Date StartTime U_cm/s V_cm/s W_cm/s Ustd_cm/s Vstd_cm/s Wstd_cm/s Uvar_(cm/s)^2 Vvar_(cm/s)^2 Wvar_(cm/s)^2 KE_(m/s)^2 TurbulentKE_(m/s)^2 HorizWindSpeed_cm/s FrictionSpeec_cm/s DragCoef SpeedOfSound_m/s SonicTemperature_C Pressure_mb 
04/20/2013  00:00:00     -158.468      195.354      -34.609       79.805       94.398       49.295     6368.876     8911.031     2430.038        4.109        0.885      251.546       46.903        0.035      338.800       11.696      864.947
04/20/2013  00:01:00     -159.511      214.709      -28.389      110.016       98.684       54.231    12103.533     9738.464     2940.965        4.856        1.239      267.477       53.875        0.041      338.790       11.677      864.927
04/20/2013  00:02:00     -138.421      162.283      -29.820       85.821       74.273       34.914     7365.299     5516.456     1218.955        3.024        0.705      213.298       42.885        0.040      338.796       11.689      864.911
04/20/2013  00:03:00     -148.011      145.805      -30.002       93.285       92.632       54.639     8702.110     8580.639     2985.383        3.216        1.013      207.765       62.902        0.092      338.792       11.683      864.892
04/20/2013  00:04:00     -211.260      182.962      -36.354       92.115      113.087       43.922     8485.183    12788.558     1929.143        5.131        1.160      279.475       41.105        0.022      338.758       11.624      864.890
04/20/2013  00:05:00     -127.901      169.049      -32.293       78.705       68.425       44.547     6194.441     4682.016     1984.451        2.942        0.643      211.982       47.878        0.051      338.761       11.630      864.901
04/20/2013  00:06:00     -200.013      207.177      -38.218       96.985      103.871       55.955     9406.041    10789.169     3130.963        5.385        1.166      287.971       43.505        0.023      338.764       11.634      864.907
04/20/2013  00:07:00     -173.985      267.355      -41.060       86.895      143.905       58.756     7550.684    20708.588     3452.252        6.757        1.586      318.982       58.563        0.034      338.743       11.600      864.916
04/20/2013  00:08:00     -132.967      190.295      -25.995       80.079       86.397       48.002     6412.675     7464.518     2304.147        3.537        0.809      232.147       47.944        0.043      338.752       11.614      864.927
04/20/2013  00:09:00     -117.345      244.149      -29.981       89.162      123.509       52.798     7949.830    15254.481     2787.643        5.013        1.300      270.885       62.003        0.052      338.752       11.615      864.926
04/20/2013  00:10:00     -194.920      247.224      -34.069      113.082      150.841       69.965    12787.611    22753.127     4895.057        7.035        2.022      314.823       56.140        0.032      338.782       11.664      864.891
04/20/2013  00:11:00     -133.451      194.316      -17.969      103.203      165.619       63.259    10650.774    27429.730     4001.655        4.898        2.104      235.728       55.225        0.055      338.792       11.682      864.913
04/20/2013  00:12:00     -181.114      309.522      -41.446      136.149      131.368       74.814    18536.524    17257.512     5597.098        8.585        2.070      358.617       88.195        0.060      338.786       11.672      864.925
04/20/2013  00:13:00     -145.477      172.018      -29.825       70.668       95.930       47.138     4994.025     9202.593     2221.964        3.403        0.821      225.286       28.478        0.016      338.784       11.670      864.937
04/20/2013  00:14:00     -185.118      231.595      -51.495       92.403       85.249       56.579     8538.393     7267.398     3201.184        5.478        0.950      296.487       54.952        0.034      338.738       11.592      864.936
04/20/2013  00:15:00     -192.121      178.545      -49.063       91.013       67.544       45.698     8283.309     4562.145     2088.294        4.306        0.747      262.276       50.338        0.037      338.742       11.596      864.942
04/20/2013  00:16:00     -181.446      309.846      -46.075      115.649      123.364       59.332    13374.746    15218.785     3520.253        8.158        1.606      359.064       56.740        0.025      338.724       11.566      864.917
04/20/2013  00:17:00     -196.777      313.563      -38.365       86.309      153.919       61.363     7449.207    23690.960     3765.391        8.670        1.745      370.193       47.115        0.016      338.701       11.528      864.944
04/20/2013  00:18:00     -200.576      335.038      -53.185      112.963      161.126       70.812    12760.669    25961.495     5014.379        9.952        2.187      390.489       77.100        0.039      338.680       11.491      864.961
04/20/2013  00:19:00     -122.009      245.788      -34.099       85.948      108.324       63.179     7387.130    11734.000     3991.539        4.978        1.156      274.405       56.369        0.042      338.680       11.492      864.991
04/20/2013  00:20:00     -178.326      262.042      -39.356      104.566      111.438       63.688    10933.963    12418.513     4056.115        6.471        1.370      316.964       69.439        0.048      338.637       11.421      865.024
04/20/2013  00:21:00     -177.573      218.803      -36.661       98.734      124.426       53.164     9748.322    15481.880     2826.420        5.440        1.403      281.792       62.782        0.050      338.615       11.383      865.031
04/20/2013  00:22:00     -170.831      166.154      -34.918       91.143       80.166       54.351     8307.126     6426.517     2954.003        3.785        0.884      238.307       42.692        0.032      338.619       11.391      865.060
04/20/2013  00:23:00     -123.041      249.744      -16.802       84.884      104.396       73.963     7205.257    10898.470     5470.466        5.068        1.179      278.408       70.473        0.064      338.600       11.358      865.074
04/20/2013  00:24:00     -152.810      337.873      -44.292       88.547      132.583       57.381     7840.524    17578.209     3292.626        8.409        1.436      370.822       65.004        0.031      338.595       11.350      865.071
04/20/2013  00:25:00     -132.850      283.230      -26.162      102.013      108.980       68.169    10406.728    11876.697     4646.999        6.274        1.347      312.839       70.647        0.051      338.561       11.294      865.078
04/20/2013  00:26:00     -226.644      310.208      -60.548      109.081      115.775       67.169    11898.620    13403.862     4511.734        9.053        1.491      384.183       56.568        0.022      338.568       11.305      865.057
04/20/2013  00:27:00     -170.744      238.929      -34.901       88.898      118.187       58.364     7902.768    13968.215     3406.309        5.636        1.264      293.668       48.003        0.027      338.544       11.265      865.028
04/20/2013  00:28:00     -160.927      254.839      -31.373       90.395      105.737       63.029     8171.331    11180.342     3972.616        5.757        1.166      301.397       47.786        0.025      338.529       11.239      865.003
04/20/2013  00:29:00     -223.586      248.850      -32.785      151.392      109.069       80.112    22919.511    11896.029     6417.976        7.711        2.062      334.540       82.175        0.060      338.550       11.274      864.991
04/20/2013  00:30:00     -184.870      321.203      -52.880      113.152      162.815       74.298    12803.446    26508.718     5520.180        9.248        2.242      370.605       73.005        0.039      338.540       11.258      864.990
04/20/2013  00:31:00     -160.487      290.639      -28.786       92.999      136.002       73.319     8648.834    18496.611     5375.717        7.178        1.626      332.005       76.968        0.054      338.533       11.247      865.022
04/20/2013  00:32:00     -189.652      345.870      -54.215      109.688      126.566       69.623    12031.422    16018.858     4847.355        9.571        1.645      394.454       71.275        0.033      338.515       11.216      865.043
04/20/2013  00:33:00     -158.871      239.699      -39.206       98.334      109.349       57.158     9669.524    11957.197     3267.076        5.456        1.245      287.568       54.652        0.036      338.496       11.184      865.070
04/20/2013  00:34:00     -131.558      177.849      -17.083      106.099       76.575       55.423    11257.078     5863.779     3071.702        3.471        1.010      221.220       52.087        0.055      338.504       11.197      865.092
04/20/2013  00:35:00     -165.914      176.863      -29.429      119.720      113.884       60.278    14332.822    12969.469     3633.491        4.530        1.547      242.504       76.423        0.099      338.513       11.214      865.099
04/20/2013  00:36:00      -98.590      212.855      -25.616       79.037       85.191       45.310     6246.842     7257.537     2052.988        3.562        0.778      234.579       41.006        0.031      338.476       11.151      865.137
04/20/2013  00:37:00     -133.862      237.433      -32.423       88.398      108.817       52.969     7814.148    11841.164     2805.663        4.890        1.123      272.568       62.878        0.053      338.447       11.102      865.147
04/20/2013  00:38:00     -106.156      268.800      -19.906       89.138      112.086       62.525     7945.621    12563.199     3909.430        5.416        1.221      289.002       59.154        0.042      338.415       11.047      865.136
04/20/2013  00:39:00     -123.631      259.868      -34.992       82.502      134.684       61.860     6806.579    18139.684     3826.625        5.640        1.439      287.778       64.585        0.050      338.443       11.094      865.132
04/20/2013  00:40:00     -185.895      314.463      -54.517       92.659      119.124       58.116     8585.680    14190.415     3377.423        8.128        1.308      365.300       48.549        0.018      338.411       11.040      865.141
04/20/2013  00:41:00     -215.141      274.262      -59.468      102.283      111.653       62.566    10461.904    12466.433     3914.519        7.594        1.342      348.576       51.909        0.022      338.410       11.038      865.142
04/20/2013  00:42:00     -191.066      211.474      -50.603       84.004       97.050       47.381     7056.716     9418.773     2244.984        5.125        0.936      285.004       42.031        0.022      338.379       10.987      865.149
04/20/2013  00:43:00     -181.923      198.143      -29.713      103.605      124.043       69.367    10733.973    15386.622     4811.788        5.208        1.547      268.992       67.339        0.063      338.378       10.986      865.147
04/20/2013  00:44:00     -157.039      137.931      -39.511       83.579      107.138       47.152     6985.391    11478.630     2223.338        3.296        1.034      209.013       47.477        0.052      338.371       10.975      865.160
04/20/2013  00:45:00      -59.275      127.057       -7.674       68.537       81.218       47.246     4697.272     6596.372     2232.140        1.662        0.676      140.203       40.393        0.083      338.383       10.996      865.157
04/20/2013  00:46:00      -72.400      215.434      -18.267       62.373      106.548       42.944     3890.430    11352.479     1844.186        3.453        0.854      227.274       52.604        0.054      338.337       10.917      865.159
04/20/2013  00:47:00     -221.441      218.554      -44.159      113.066       98.716       65.200    12783.868     9744.869     4251.062        6.276        1.339      311.130       57.817        0.035      338.326       10.898      865.171
04/20/2013  00:48:00     -229.622      250.291      -51.745      108.712      119.137       71.232    11818.373    14193.632     5074.021        7.456        1.554      339.665       59.519        0.031      338.356       10.949      865.178
04/20/2013  00:49:00     -127.700      286.939      -37.797       85.121      119.747       72.156     7245.518    14339.447     5206.554        6.343        1.340      314.072       60.493        0.037      338.353       10.943      865.203
04/20/2013  00:50:00      -58.595      128.172       -2.489       91.218       93.369       48.444     8320.785     8717.691     2346.836        1.962        0.969      140.931       54.591        0.150      338.333       10.912      865.232
04/20/2013  00:51:00      -76.969       18.351        7.176       81.687       68.203       37.179     6672.699     4651.684     1382.260        0.951        0.635       79.127       24.868        0.099      338.349       10.939      865.253
04/20/2013  00:52:00      -73.042       98.682       -3.897       61.068       69.162       38.372     3729.349     4783.378     1472.376        1.254        0.499      122.773       31.482        0.066      338.317       10.886      865.305
04/20/2013  00:53:00      -44.398      174.311      -17.584      103.599      133.464       61.842    10732.841    17812.706     3824.417        3.251        1.618      179.876       70.368        0.153      338.346       10.933      865.327
04/20/2013  00:54:00      -12.766      191.026      -17.758       77.642       85.490       50.805     6028.347     7308.586     2581.100        2.644        0.796      191.452       36.128        0.036      338.337       10.920      865.366
04/20/2013  00:55:00      -99.681      237.792      -23.951      104.255      117.537       53.282    10869.030    13814.832     2838.919        4.728        1.376      257.840       54.579        0.045      338.337       10.917      865.437
04/20/2013  00:56:00       10.362      136.750       -8.289       48.977      101.401       39.250     2398.788    10282.095     1540.540        1.655        0.711      137.142       44.096        0.103      338.335       10.915      865.497
04/20/2013  00:57:00      -50.117      224.031      -25.621       94.233      113.169       50.609     8879.882    12807.271     2561.314        3.880        1.212      229.568       49.599        0.047      338.328       10.903      865.563
04/20/2013  00:58:00      -31.389      208.764      -20.193       58.307       98.842       48.034     3399.658     9769.767     2307.289        3.022        0.774      211.111       30.274        0.021      338.309       10.872      865.607
04/20/2013  00:59:00      -25.130      105.447       -0.862       66.282       71.284       42.130     4393.305     5081.410     1774.921        1.150        0.562      108.400       49.079        0.205      338.309       10.872      865.633
04/20/2013  01:00:00      -62.393      127.623      -27.136       77.668       64.600       35.461     6032.248     4173.140     1257.500        1.619        0.573      142.058       32.481        0.052      338.328       10.904      865.649
04/20/2013  01:01:00      -10.794      143.155       -4.495       96.034       84.203       48.796     9222.443     7090.179     2381.080        1.966        0.935      143.561       39.860        0.077      338.287       10.833      865.649
04/20/2013  01:02:00      -47.510      109.330       -7.616       45.262       62.209       23.205     2048.617     3869.963      538.452        1.036        0.323      119.207       16.393        0.019      338.289       10.839      865.618
04/20/2013  01:03:00     -112.392       81.472       -8.951       52.430       56.368       30.974     2748.924     3177.396      959.412        1.312        0.344      138.815       27.261        0.039      338.261       10.792      865.592
04/20/2013  01:04:00      -56.583       53.726      -26.815       45.344       35.119       28.760     2056.044     1233.374      827.163        0.546        0.206       78.026       20.044        0.066      338.289       10.842      865.572
04/20/2013  01:05:00        8.237      -38.487        4.594       29.870       36.049       33.511      892.228     1299.555     1122.979        0.244        0.166       39.358       27.844        0.500      338.325       10.901      865.551
04/20/2013  01:06:00      -33.095       -5.469       -1.502       44.048       27.486       26.531     1940.202      755.455      703.869        0.226        0.170       33.543       19.936        0.353      338.300       10.858      865.538
04/20/2013  01:07:00       40.730      -26.510       10.804       46.670       27.781       23.457     2178.085      771.786      550.238        0.299        0.175       48.597       21.363        0.193      338.415       11.051      865.517
04/20/2013  01:08:00     -181.709      -24.438      -12.798       77.527       62.654       36.733     6010.369     3925.565     1349.343        2.253        0.564      183.345       36.893        0.040      338.266       10.799      865.496
04/20/2013  01:09:00      -94.031      -21.416      -11.337       49.914       64.244       22.955     2491.403     4127.321      526.943        0.829        0.357       96.439       14.012        0.021      338.243       10.761      865.467
04/20/2013  01:10:00     -109.523      -27.259      -10.357       42.636       36.710       24.681     1817.838     1347.641      609.144        0.831        0.189      112.864       12.673        0.013      338.258       10.786      865.459
04/20/2013  01:11:00      -42.070      -17.828       -0.188       49.293       32.363       27.257     2429.836     1047.364      742.929        0.315        0.211       45.692       22.720        0.247      338.246       10.768      865.472
04/20/2013  01:12:00      -71.395       -7.115        9.735       47.631       53.523       36.733     2268.746     2864.721     1349.305        0.586        0.324       71.748       38.260        0.284      338.207       10.701      865.471
04/20/2013  01:13:00     -194.426      -65.739       -7.428      103.579       63.463       36.712    10728.568     4027.597     1347.785        2.914        0.805      205.239       44.484        0.047      338.137       10.581      865.460
04/20/2013  01:14:00     -205.554      -63.018       -5.631      115.457       57.883       39.808    13330.347     3350.409     1584.703        3.226        0.913      214.997       45.389        0.045      338.122       10.557      865.443
04/20/2013  01:15:00     -153.171      -17.708        5.294      101.609       64.265       35.280    10324.461     4129.996     1244.646        1.975        0.785      154.191       42.557        0.076      338.098       10.516      865.430
04/20/2013  01:16:00     -104.871      -39.044        0.568       48.010       69.822       29.837     2304.969     4875.135      890.261        1.030        0.404      111.903       27.299        0.060      338.089       10.504      865.405
04/20/2013  01:17:00     -169.921      -91.622      -17.694       85.578       73.214       40.927     7323.588     5360.227     1675.016        2.597        0.718      193.048       38.338        0.039      338.158       10.616      865.405
04/20/2013  01:18:00     -238.648      -63.567      -10.625      109.934       81.619       45.924    12085.445     6661.708     2109.046        4.098        1.043      246.969       47.490        0.037      338.109       10.534      865.439
04/20/2013  01:19:00     -354.540      -75.826       -3.358      145.191       99.954       58.258    21080.470     9990.756     3394.051        8.296        1.723      362.558       57.726        0.025      338.087       10.496      865.457
04/20/2013  01:20:00     -348.293      -79.099      -13.572      152.391       70.788       59.039    23223.011     5010.953     3485.586        7.973        1.586      357.162       78.195        0.048      338.126       10.562      865.459
04/20/2013  01:21:00     -292.573     -103.382       -6.412       88.975       58.190       44.096     7916.541     3386.019     1944.423        5.479        0.662      310.301       48.137        0.024      338.190       10.671      865.458
04/20/2013  01:22:00     -187.626      -30.814       -7.987       81.445       64.997       42.534     6633.285     4224.618     1809.108        2.444        0.633      190.140       43.880        0.053      338.181       10.652      865.458
04/20/2013  01:23:00     -239.621       15.399      -24.166       67.754       63.516       41.631     4590.578     4034.253     1733.140        3.430        0.518      240.115       41.769        0.030      338.190       10.669      865.514
04/20/2013  01:24:00     -200.473      -24.458       -5.293      105.634       77.797       50.940    11158.450     6052.387     2594.912        3.031        0.990      201.959       35.315        0.031      338.139       10.586      865.560
04/20/2013  01:25:00     -114.464        3.442      -11.596       52.280       57.646       33.861     2733.241     3323.018     1146.582        1.022        0.360      114.516       32.082        0.078      338.122       10.560      865.581
04/20/2013  01:26:00     -209.158      -70.660       -8.666       84.818       67.595       33.046     7194.084     4569.081     1092.039        3.083        0.643      220.771       37.479        0.029      338.095       10.511      865.593
04/20/2013  01:27:00     -150.027      -60.370        9.829      101.660       68.437       53.877    10334.733     4683.648     2902.772        2.208        0.896      161.718       59.171        0.134      338.017       10.381      865.619
04/20/2013  01:28:00     -127.157      -75.390       -1.187       66.807       56.923       31.227     4463.136     3240.236      975.125        1.526        0.434      147.826       26.073        0.031      338.040       10.420      865.587
04/20/2013  01:29:00     -188.494      -14.975       -8.896       61.674       58.013       33.292     3803.621     3365.512     1108.371        2.205        0.414      189.088       33.853        0.032      337.980       10.319      865.549
04/20/2013  01:30:00     -206.177       18.907      -17.179       75.030       50.463       37.626     5629.523     2546.483     1415.713        2.638        0.480      207.042       32.581        0.025      337.923       10.223      865.549
04/20/2013  01:31:00     -159.203      -40.303       -1.842       55.297       64.119       31.365     3057.735     4111.216      983.789        1.756        0.408      164.225       24.385        0.022      337.933       10.241      865.564
04/20/2013  01:32:00      -81.631        5.927       -5.770       78.993       63.669       42.150     6239.885     4053.723     1776.642        0.940        0.604       81.846       47.194        0.332      337.919       10.217      865.578
04/20/2013  01:33:00     -111.320      -72.027        1.474       71.558       57.121       34.575     5120.502     3262.804     1195.457        1.358        0.479      132.590       27.390        0.043      337.895       10.177      865.571
04/20/2013  01:34:00     -189.226      -11.787      -19.667      124.525      102.151       52.627    15506.541    10434.894     2769.579        3.252        1.436      189.593       42.040        0.049      337.911       10.202      865.587
04/20/2013  01:35:00     -139.641        9.745       -9.484       95.146       61.753       43.014     9052.772     3813.451     1850.242        1.720        0.736      139.980       39.059        0.078      337.932       10.240      865.580
04/20/2013  01:36:00      -88.777       82.013      -24.810       68.181       56.693       37.129     4648.610     3214.102     1378.555        1.223        0.462      120.862       43.223        0.128      337.950       10.270      865.585
04/20/2013  01:37:00     -139.754      156.685      -33.970       87.066      125.973       59.323     7580.447    15869.165     3519.271        3.610        1.348      209.956       56.399        0.072      337.950       10.269      865.587
04/20/2013  01:38:00      -47.731      105.161       -5.012       50.811       78.033       39.313     2581.713     6089.149     1545.535        1.179        0.511      115.486       41.583        0.130      337.904       10.193      865.609
04/20/2013  01:39:00      -25.070       61.792      -18.480       44.335       68.053       36.797     1965.562     4631.245     1354.046        0.637        0.398       66.684       37.806        0.321      337.932       10.241      865.638
04/20/2013  01:40:00     -175.176       48.480      -26.480      101.995       84.525       44.951    10403.003     7144.509     2020.567        2.665        0.978      181.760       47.646        0.069      337.911       10.204      865.673
04/20/2013  01:41:00      -85.709       55.303       -4.400       81.067       77.439       46.839     6571.865     5996.820     2193.865        1.259        0.738      102.003       45.207        0.196      337.851       10.103      865.718
04/20/2013  01:42:00      -46.028      111.491      -11.366      105.448       66.060       38.826    11119.209     4363.860     1507.429        1.583        0.850      120.618       40.726        0.114      337.866       10.128      865.754
04/20/2013  01:43:00     -104.480       -7.449      -16.851       90.650       66.108       30.134     8217.489     4370.220      908.046        1.237        0.675      104.745       32.480        0.096      337.952       10.273      865.777
04/20/2013  01:44:00     -125.951      -10.691      -19.654       81.540       83.545       34.073     6648.693     6979.698     1160.965        1.557        0.739      126.404       22.460        0.032      337.867       10.130      865.788
04/20/2013  01:45:00      -66.019       30.504       -4.483       60.837       41.459       26.356     3701.112     1718.816      694.628        0.571        0.306       72.725       24.082        0.110      337.896       10.180      865.793
04/20/2013  01:46:00      -14.685       57.483       -8.215       54.194       56.816       32.315     2936.939     3228.049     1044.243        0.540        0.360       59.329       30.098        0.257      337.837       10.081      865.779
04/20/2013  01:47:00      -60.559      113.071      -36.879       61.338       70.773       35.792     3762.383     5008.772     1281.034        1.393        0.503      128.267       31.863        0.062      337.897       10.181      865.757
04/20/2013  01:48:00       -0.622       45.582       -8.864       49.140       30.007       33.912     2414.767      900.418     1150.011        0.331        0.223       45.586       24.284        0.284      337.851       10.105      865.743
04/20/2013  01:49:00       24.913       62.925       11.218       45.377       72.050       43.527     2059.038     5191.148     1894.640        0.692        0.457       67.677       33.954        0.252      337.834       10.074      865.755
04/20/2013  01:50:00      -34.108       63.344        7.281       65.881       77.641       35.974     4340.254     6028.187     1294.126        0.844        0.583       71.943       14.402        0.040      337.780        9.985      865.786
04/20/2013  01:51:00      -44.169      -27.625       22.871       77.872       77.903       32.846     6064.039     6068.946     1078.867        0.822        0.661       52.096       42.657        0.670      337.861       10.121      865.786
04/20/2013  01:52:00       57.797       51.422       43.657       32.947       27.660       23.066     1085.498      765.102      532.036        0.514        0.119       77.361       10.686        0.019      337.839       10.084      865.801
04/20/2013  01:53:00       34.706       50.286        2.385       44.999       59.250       45.064     2024.889     3510.535     2030.743        0.565        0.378       61.100       32.640        0.285      337.825       10.059      865.799
04/20/2013  01:54:00        8.983       40.613      -12.538       66.854       49.187       36.267     4469.440     2419.367     1315.274        0.504        0.410       41.594       24.221        0.339      337.809       10.033      865.784
04/20/2013  01:55:00       -7.961       -8.874       -0.110       20.754       28.686       13.604      430.720      822.884      185.081        0.079        0.072       11.922       16.194        1.845      337.813       10.039      865.778
04/20/2013  01:56:00      -20.380      -26.375        4.582       17.182       28.888       15.020      295.221      834.520      225.597        0.124        0.068       33.332        7.987        0.057      337.911       10.206      865.765
04/20/2013  01:57:00      -53.425      -36.444       -3.628       32.260       29.665       20.230     1040.687      880.008      409.238        0.326        0.116       64.672       15.452        0.057      337.848       10.099      865.761
04/20/2013  01:58:00      -40.055      -58.114        5.127       38.747       31.933       24.529     1501.326     1019.733      601.654        0.406        0.156       70.581       22.741        0.104      337.813       10.041      865.747
04/20/2013  01:59:00       -6.599      -24.134        6.378       43.837       29.155       19.079     1921.666      850.003      364.005        0.190        0.157       25.020       21.247        0.721      337.748        9.934      865.716
04/20/2013  02:00:00       18.410       -7.630       35.859       37.527       37.416       37.173     1408.244     1399.937     1381.868        0.294        0.210       19.928       33.545        2.834      337.861       10.121      865.689
04/20/2013  02:01:00      -74.408      -86.074        4.951       57.631       65.713       31.561     3321.277     4318.206      996.120        1.080        0.432      113.777       38.798        0.116      337.849       10.099      865.690
04/20/2013  02:02:00      -60.919     -130.609       10.768       81.486       74.207       38.427     6639.898     5506.676     1476.600        1.725        0.681      144.117       35.507        0.061      337.880       10.152      865.687
04/20/2013  02:03:00      -68.505     -178.326       -0.599       69.691       74.972       45.485     4856.849     5620.744     2068.925        2.452        0.627      191.032       38.126        0.040      337.926       10.227      865.679
04/20/2013  02:04:00      -53.209     -197.293      -10.192       90.939       81.472       50.349     8269.976     6637.695     2535.059        2.965        0.872      204.342       40.806        0.040      337.956       10.276      865.642
04/20/2013  02:05:00       23.894     -103.538      -14.659       91.907       83.653       54.083     8446.931     6997.902     2924.994        1.493        0.918      106.259       44.079        0.172      337.927       10.230      865.621
04/20/2013  02:06:00     -107.148     -152.584       -2.002       68.631       73.204       34.838     4710.256     5358.880     1213.675        2.302        0.564      186.447       40.235        0.047      337.959       10.284      865.625
04/20/2013  02:07:00      -45.893      -54.931        9.637       65.686       53.436       41.779     4314.632     2855.384     1745.474        0.706        0.446       71.579       37.019        0.267      337.896       10.181      865.618
04/20/2013  02:08:00      -89.947     -113.752        2.658       85.813       81.793       49.126     7363.918     6690.135     2413.410        1.875        0.823      145.018       45.412        0.098      337.899       10.183      865.607
04/20/2013  02:09:00       -7.953      -33.876        0.135       61.588       44.369       30.483     3793.118     1968.598      929.224        0.395        0.335       34.797       15.766        0.205      337.913       10.209      865.605
04/20/2013  02:10:00      -37.634       22.121       10.369       26.979       19.970       19.610      727.860      398.794      384.540        0.176        0.076       43.653       13.339        0.093      337.838       10.081      865.596
04/20/2013  02:11:00      -79.770       74.687       -5.290       52.414       47.174       29.239     2747.201     2225.369      854.926        0.890        0.291      109.276       30.070        0.076      337.797       10.013      865.601
04/20/2013  02:12:00     -164.707       18.816      -17.377       59.228       70.532       28.834     3508.012     4974.751      831.409        1.855        0.466      165.778       31.178        0.035      337.779        9.984      865.598
04/20/2013  02:13:00     -154.456      -21.695      -13.934       56.975       33.184       27.231     3246.177     1101.203      741.538        1.480        0.254      155.972       27.321        0.031      337.756        9.944      865.600
04/20/2013  02:14:00      -88.605      -39.989      -21.233       37.340       67.087       24.779     1394.288     4500.650      614.022        0.820        0.325       97.210       21.282        0.048      337.837       10.081      865.579
04/20/2013  02:15:00      -85.866     -116.491      -30.286       91.329      120.364       55.794     8340.935    14487.535     3112.917        2.390        1.297      144.717       45.929        0.101      337.889       10.166      865.554
04/20/2013  02:16:00      -12.977       32.042       13.717       54.814       33.548       33.313     3004.559     1125.471     1109.749        0.331        0.262       34.571       25.295        0.535      337.858       10.115      865.525
04/20/2013  02:17:00       15.993        7.731       -0.164       36.502       43.775       31.053     1332.379     1916.268      964.291        0.226        0.211       17.764       25.177        2.009      337.880       10.152      865.554
04/20/2013  02:18:00      112.777       67.073       32.277       64.514       62.132       48.807     4162.052     3860.341     2382.154        1.433        0.520      131.215       30.304        0.053      337.837       10.081      865.563
04/20/2013  02:19:00       43.943       62.233       76.591       50.270       47.891       37.230     2527.110     2293.557     1386.086        0.894        0.310       76.184       34.667        0.207      337.671        9.802      865.564
04/20/2013  02:20:00       10.638       27.309       36.066       24.911       27.569       27.111      620.545      760.061      734.981        0.214        0.106       29.308       22.754        0.603      337.640        9.751      865.577
04/20/2013  02:21:00       76.450       74.366       39.967       56.897       47.760       35.190     3237.276     2280.991     1238.317        0.986        0.338      106.654       25.929        0.059      337.649        9.765      865.586
04/20/2013  02:22:00       41.736       73.451       -1.957       40.197       38.028       36.163     1615.783     1446.118     1307.734        0.575        0.218       84.480       27.686        0.107      337.506        9.525      865.589
04/20/2013  02:23:00       75.740      132.767      -12.123       59.533       71.476       43.743     3544.205     5108.781     1913.486        1.704        0.528      152.852       38.253        0.063      337.518        9.545      865.602
04/20/2013  02:24:00       61.531      112.626        2.737       49.155       70.996       50.218     2416.206     5040.427     2521.867        1.323        0.499      128.338       45.257        0.124      337.557        9.610      865.619
04/20/2013  02:25:00      167.506      100.500       23.427       80.167       70.917       53.434     6426.675     5029.253     2855.182        2.651        0.716      195.342       31.189        0.025      337.667        9.794      865.564
04/20/2013  02:26:00      -25.591       18.203       -0.730      105.425       58.301       36.673    11114.484     3398.974     1344.893        0.842        0.793       31.405       23.721        0.571      337.655        9.776      865.539
04/20/2013  02:27:00       30.626        0.843       24.071       93.788      108.387       39.990     8796.195    11747.747     1599.190        1.183        1.107       30.638        7.902        0.067      337.693        9.840      865.491
04/20/2013  02:28:00      -74.280       35.124       -0.983       38.219       44.503       23.048     1460.661     1980.523      531.197        0.536        0.199       82.165       18.302        0.050      337.689        9.833      865.469
04/20/2013  02:29:00      -32.603      -22.549       -9.601       52.191       24.470       26.386     2723.912      598.787      696.247        0.284        0.201       39.641       20.262        0.261      337.653        9.772      865.461
04/20/2013  02:30:00     -124.132      -31.137      -10.737       50.837       61.661       31.426     2584.388     3802.112      987.607        1.193        0.369      127.977       25.667        0.040      337.709        9.865      865.435
04/20/2013  02:31:00       -2.867       51.603      -25.291       33.527       41.086       22.197     1124.043     1688.028      492.724        0.331        0.165       51.683       21.340        0.170      337.693        9.838      865.437
04/20/2013  02:32:00       63.579       60.736        7.492       58.178       35.440       42.326     3384.721     1255.983     1791.528        0.711        0.322       87.927       15.759        0.032      337.693        9.840      865.434
04/20/2013  02:33:00        6.593       16.749        6.842       41.407       27.705       26.649     1714.524      767.581      710.148        0.178        0.160       18.000       19.185        1.136      337.649        9.765      865.430
04/20/2013  02:34:00       38.003       31.145        8.906       25.606       13.010       24.364      655.687      169.268      593.611        0.196        0.071       49.135       11.824        0.058      337.670        9.801      865.452
04/20/2013  02:35:00       43.209       57.363        4.535       38.130       38.491       25.096     1453.883     1481.572      629.801        0.437        0.178       71.816       23.315        0.105      337.600        9.684      865.480
04/20/2013  02:36:00       19.123      109.829       -1.516       24.645       48.376       25.265      607.360     2340.242      638.318        0.801        0.179      111.481       24.823        0.050      337.510        9.532      865.523
04/20/2013  02:37:00       14.444      136.892      -14.715       35.529       54.736       30.360     1262.296     2996.057      921.712        1.217        0.259      137.652       31.546        0.053      337.467        9.460      865.561
04/20/2013  02:38:00      -19.009      210.341      -27.030       24.340       34.428       16.569      592.442     1185.286      274.530        2.369        0.103      211.198       10.013        0.002      337.478        9.476      865.591
04/20/2013  02:39:00      -32.533      215.970      -27.547       51.696       71.477       29.179     2672.436     5109.025      851.414        2.855        0.432      218.407       33.273        0.023      337.459        9.444      865.601
04/20/2013  02:40:00      -91.479      107.513      -20.630       40.622       63.632       27.604     1650.133     4048.997      762.003        1.341        0.323      141.165       27.045        0.037      337.504        9.522      865.598
04/20/2013  02:41:00     -132.121       35.994      -15.669       34.235       38.078       23.747     1172.058     1449.899      563.941        1.109        0.159      136.937       18.747        0.019      337.432        9.401      865.597
04/20/2013  02:42:00     -193.861       43.034      -24.926       52.337       45.718       26.777     2739.169     2090.126      716.997        2.280        0.277      198.580       23.837        0.014      337.424        9.385      865.602
04/20/2013  02:43:00     -106.277       43.523       -7.702       74.062       31.932       29.907     5485.232     1019.624      894.412        1.032        0.370      114.843       39.911        0.121      337.459        9.446      865.600
04/20/2013  02:44:00      -59.551       66.427      -14.289       20.798       26.289       14.140      432.549      691.122      199.926        0.474        0.066       89.212       13.938        0.024      337.373        9.304      865.585
04/20/2013  02:45:00     -132.503       -1.248      -11.423       35.728       63.816       20.806     1276.461     4072.462      432.903        1.173        0.289      132.509       20.592        0.024      337.387        9.326      865.570
04/20/2013  02:46:00      -93.908       -6.559       -4.925       37.238       24.162       17.729     1386.640      583.797      314.325        0.559        0.114       94.137       13.728        0.021      337.271        9.133      865.565
04/20/2013  02:47:00     -121.886       23.048      -13.188       44.895       44.271       27.223     2015.604     1959.961      741.111        1.014        0.236      124.045       23.315        0.035      337.325        9.224      865.562
04/20/2013  02:48:00      -64.844       70.757      -11.520       33.001       43.616       23.942     1089.098     1902.374      573.223        0.645        0.178       95.975       25.940        0.073      337.306        9.193      865.558
04/20/2013  02:49:00       -4.887      -25.819        3.008       53.157       73.174       27.603     2825.640     5354.435      761.947        0.482        0.447       26.277       27.169        1.069      337.412        9.370      865.538
04/20/2013  02:50:00     -114.362       14.671      -14.069       48.983       48.541       22.299     2399.294     2356.273      497.235        0.937        0.263      115.299       23.895        0.043      337.393        9.338      865.535
04/20/2013  02:51:00      -87.534      -19.637      -13.665       56.804       26.058       18.967     3226.735      679.022      359.739        0.625        0.213       89.709       18.755        0.044      337.352        9.269      865.562
04/20/2013  02:52:00      -72.351      -16.327        0.618       49.515       36.960       19.752     2451.696     1366.058      390.136        0.485        0.210       74.171       22.027        0.088      337.226        9.057      865.582
04/20/2013  02:53:00     -123.408      -53.234        0.014       51.840       40.841       26.046     2687.396     1668.010      678.408        1.155        0.252      134.400       27.035        0.040      337.163        8.949      865.602
04/20/2013  02:54:00     -128.661       17.929      -17.212       37.439       33.066       21.055     1401.669     1093.348      443.326        1.005        0.147      129.904       17.694        0.019      337.202        9.016      865.617
04/20/2013  02:55:00     -104.296      -20.162       -4.731       50.109       40.346       25.045     2510.923     1627.807      627.235        0.804        0.238      106.227       19.926        0.035      337.190        8.998      865.625
04/20/2013  02:56:00      -55.540      -23.939        3.392       28.837       24.301       20.935      831.550      590.537      438.259        0.276        0.093       60.480        9.169        0.023      337.194        9.005      865.639
04/20/2013  02:57:00      -66.296       15.219       -6.439       29.592       39.331       18.970      875.708     1546.889      359.855        0.372        0.139       68.020       22.258        0.107      337.189        8.996      865.648
04/20/2013  02:58:00      -74.826      -21.673       -2.251       36.058       31.773       22.565     1300.207     1009.521      509.182        0.445        0.141       77.901       20.745        0.071      337.191        8.999      865.657
04/20/2013  02:59:00      -80.520      -35.407       -3.191       41.479       26.268       21.412     1720.477      690.020      458.459        0.531        0.143       87.962       15.988        0.033      337.233        9.071      865.672
04/20/2013  03:00:00      -48.397       -3.254       -9.312       18.814       29.094       19.139      353.963      846.482      366.313        0.200        0.078       48.507       19.835        0.167      337.186        8.992      865.678
04/20/2013  03:01:00      -88.852      -49.910      -11.826       26.651       20.975       26.464      710.260      439.965      700.350        0.619        0.093      101.910       20.036        0.039      337.214        9.037      865.664
04/20/2013  03:02:00      -50.418        7.872        0.480       21.870       38.720       18.747      478.294     1499.223      351.464        0.247        0.116       51.029       16.414        0.103      337.200        9.013      865.648
04/20/2013  03:03:00      -47.091      -41.051        4.103       52.850       30.080       20.256     2793.155      904.817      410.288        0.401        0.205       62.472       24.480        0.154      337.146        8.922      865.628
04/20/2013  03:04:00      -92.219       -8.479      -14.005       58.889       42.940       28.020     3467.928     1843.865      785.106        0.743        0.305       92.608       24.822        0.072      337.107        8.858      865.614
04/20/2013  03:05:00     -133.211       36.480      -17.913       31.106       22.494       19.123      967.596      505.961      365.680        1.062        0.092      138.115       14.869        0.012      337.055        8.769      865.614
04/20/2013  03:06:00     -131.957       91.257      -25.859       30.621       48.988       24.079      937.669     2399.854      579.783        1.516        0.196      160.438       27.673        0.030      337.134        8.903      865.635
04/20/2013  03:07:00      -99.730       87.104      -22.622       24.573       34.645       21.062      603.838     1200.267      443.619        1.015        0.112      132.413        9.257        0.005      337.105        8.852      865.647
04/20/2013  03:08:00      -82.473       72.863      -22.349       21.183       24.134       15.802      448.714      582.456      249.711        0.695        0.064      110.049       13.843        0.016      337.063        8.783      865.673
04/20/2013  03:09:00      -94.624       43.288       -9.100       34.112       21.030       22.496     1163.602      442.246      506.075        0.651        0.106      104.055        2.648        0.001      337.105        8.853      865.676
04/20/2013  03:10:00      -73.318       51.377      -10.003       27.805       37.450       24.011      773.123     1402.508      576.540        0.543        0.138       89.527       19.020        0.045      337.035        8.738      865.663
04/20/2013  03:11:00      -55.428       73.326       -9.675       46.029       55.529       26.778     2118.696     3083.503      717.057        0.723        0.296       91.918       31.624        0.118      337.049        8.760      865.663
04/20/2013  03:12:00     -108.509       92.775      -14.706       33.183       59.679       26.397     1101.103     3561.620      696.785        1.298        0.268      142.764       19.133        0.018      336.997        8.673      865.662
04/20/2013  03:13:00      -50.140      111.366      -11.838       47.148       37.342       23.485     2222.950     1394.444      551.534        0.961        0.208      122.132       19.641        0.026      336.943        8.584      865.660
04/20/2013  03:14:00       34.339       75.092       -7.164       31.284       33.722       24.448      978.713     1137.174      597.714        0.479        0.136       82.571       24.103        0.085      336.825        8.387      865.665
04/20/2013  03:15:00       18.901      111.267       -0.965       37.658       48.418       39.568     1418.112     2344.296     1565.612        0.903        0.266      112.861       33.814        0.090      336.734        8.236      865.661
04/20/2013  03:16:00       -1.937      146.408      -12.229       33.041       60.138       31.073     1091.707     3616.571      965.523        1.363        0.284      146.421       36.856        0.063      336.773        8.300      865.648
04/20/2013  03:17:00      -25.023      132.437      -12.428       27.243       50.155       21.191      742.181     2515.558      449.079        1.101        0.185      134.781       23.139        0.029      336.805        8.354      865.633
04/20/2013  03:18:00      -32.025      154.152      -23.448       26.653       28.586       16.811      710.401      817.155      282.601        1.357        0.091      157.443        6.315        0.002      336.904        8.517      865.623
04/20/2013  03:19:00      -64.685       95.805      -17.683       32.477       52.208       26.926     1054.761     2725.672      725.035        0.909        0.225      115.598       25.199        0.048      336.886        8.489      865.610
04/20/2013  03:20:00      -99.699      147.500      -26.497       43.172       61.752       30.790     1863.831     3813.249      948.033        1.951        0.331      178.034       23.054        0.017      336.803        8.348      865.602
04/20/2013  03:21:00      -91.645       80.766      -22.219       45.392       44.260       30.918     2060.405     1958.904      955.952        1.019        0.249      122.155       30.256        0.061      336.832        8.400      865.583
04/20/2013  03:22:00      -66.949      121.392      -11.026       39.555       41.968       28.274     1564.608     1761.321      799.434        1.173        0.206      138.629       23.743        0.029      336.846        8.420      865.572
04/20/2013  03:23:00      -70.561      133.980      -19.071       27.935       36.532       26.951      780.358     1334.600      726.355        1.307        0.142      151.425       17.460        0.013      336.875        8.471      865.560
04/20/2013  03:24:00      -82.531      108.596      -25.867       32.933       41.271       21.803     1084.606     1703.313      475.372        1.127        0.163      136.399       22.677        0.028      336.795        8.336      865.536
04/20/2013  03:25:00      -93.821       86.027      -24.700       32.962       38.850       20.874     1086.521     1509.327      435.704        0.992        0.152      127.291       19.201        0.023      336.748        8.257      865.517
04/20/2013  03:26:00     -100.059       42.012      -11.463       41.423       42.078       20.349     1715.831     1770.560      414.069        0.790        0.195      108.521       18.761        0.030      336.767        8.292      865.500
04/20/2013  03:27:00     -122.352       95.663      -19.818       50.729       67.856       31.030     2573.460     4604.388      962.862        1.633        0.407      155.311       34.135        0.048      336.726        8.221      865.503
04/20/2013  03:28:00     -118.146       83.716      -20.404       52.206       65.088       37.046     2725.487     4236.429     1372.395        1.486        0.417      144.799       35.020        0.058      336.698        8.173      865.501
04/20/2013  03:29:00     -123.374      157.451      -24.596       52.338       70.947       37.038     2739.275     5033.502     1371.821        2.488        0.457      200.030       41.984        0.044      336.647        8.088      865.495
04/20/2013  03:30:00     -163.131      159.417      -39.924       58.077       84.629       40.320     3372.941     7162.084     1625.713        3.289        0.608      228.091       45.357        0.040      336.667        8.121      865.493
04/20/2013  03:31:00     -138.546      152.840      -27.984       59.170       81.394       44.835     3501.082     6624.947     2010.158        2.774        0.607      206.289       47.503        0.053      336.657        8.104      865.501
04/20/2013  03:32:00     -157.318      152.766      -34.873       72.437       62.977       41.393     5247.076     3966.115     1713.383        3.011        0.546      219.286       40.601        0.034      336.700        8.174      865.519
04/20/2013  03:33:00     -164.477      231.767      -37.577       70.711       62.513       46.770     5000.054     3907.849     2187.473        4.664        0.555      284.198       48.652        0.029      336.714        8.198      865.525
04/20/2013  03:34:00     -170.735      196.401      -30.724       54.575       84.004       40.260     2978.415     7056.692     1620.840        4.016        0.583      260.238       39.513        0.023      336.718        8.205      865.536
04/20/2013  03:35:00     -143.253      209.095      -39.078       62.593       72.483       38.698     3917.919     5253.764     1497.551        3.822        0.533      253.460       36.106        0.020      336.712        8.193      865.552
04/20/2013  03:36:00      -71.135      142.651      -19.226       54.234       68.720       32.926     2941.304     4722.441     1084.112        1.726        0.437      159.403       32.929        0.043      336.738        8.241      865.568
04/20/2013  03:37:00     -107.787      140.761      -23.978       57.178       70.782       33.075     3269.377     5010.061     1093.940        2.069        0.469      177.290       36.627        0.043      336.679        8.142      865.575
04/20/2013  03:38:00      -47.156      169.918       -5.567       56.335       91.325       45.566     3173.604     8340.288     2076.271        2.236        0.680      176.340       49.982        0.080      336.639        8.075      865.600
04/20/2013  03:39:00      -57.937      179.395      -19.498       58.992       73.874       39.658     3480.051     5457.380     1572.769        2.321        0.526      188.519       29.639        0.025      336.700        8.178      865.612
04/20/2013  03:40:00      -43.243      220.672      -18.950       49.784       63.874       29.706     2478.483     4079.863      882.419        2.918        0.372      224.869       20.946        0.009      336.606        8.019      865.608
04/20/2013  03:41:00       -6.464      163.736      -16.067       41.992       61.934       30.598     1763.313     3835.821      936.265        1.682        0.327      163.864       31.354        0.037      336.538        7.906      865.623
04/20/2013  03:42:00        8.064      179.328      -21.239       35.623       43.411       27.325     1269.032     1884.475      746.674        1.829        0.195      179.509       20.003        0.012      336.525        7.885      865.617
04/20/2013  03:43:00      -33.372      159.560      -12.236       37.081       57.457       23.401     1375.014     3301.348      547.616        1.597        0.261      163.013       20.741        0.016      336.530        7.894      865.619
04/20/2013  03:44:00        5.664      126.386       -1.554       34.320       68.034       33.471     1177.890     4628.585     1120.294        1.147        0.346      126.513       37.792        0.089      336.469        7.791      865.622
04/20/2013  03:45:00        2.873      127.828       -1.231       61.107       74.260       36.178     3734.013     5514.520     1308.834        1.345        0.528      127.861       32.743        0.066      336.446        7.753      865.620
04/20/2013  03:46:00       24.357      174.769      -30.091       30.977       68.441       32.636      959.546     4684.192     1065.094        1.937        0.335      176.458       28.494        0.026      336.467        7.788      865.629
04/20/2013  03:47:00       43.374       77.750       -0.963       28.992       48.745       27.102      840.540     2376.069      734.494        0.594        0.198       89.030       21.963        0.061      336.379        7.640      865.643
04/20/2013  03:48:00       -4.334      101.097      -10.157       39.742       52.857       24.185     1579.442     2793.856      584.929        0.765        0.248      101.189       24.647        0.059      336.371        7.627      865.644
04/20/2013  03:49:00       36.888      111.715       -9.986       31.475       35.381       29.338      990.702     1251.782      860.691        0.852        0.155      117.648       25.186        0.046      336.314        7.532      865.646
04/20/2013  03:50:00        5.452      100.942        0.351       47.162       50.098       35.776     2224.209     2509.839     1279.954        0.812        0.301      101.089       32.030        0.100      336.257        7.438      865.629
04/20/2013  03:51:00       14.571       42.489       -6.540       23.793       21.688       13.841      566.128      470.352      191.564        0.164        0.061       44.918       12.499        0.077      336.236        7.403      865.617
04/20/2013  03:52:00      -46.003      139.364      -14.056       52.961       46.719       30.414     2804.821     2182.666      924.990        1.382        0.296      146.760       24.755        0.028      336.321        7.541      865.598
04/20/2013  03:53:00      -66.165      199.467      -21.051       40.047       68.992       37.062     1603.724     4759.897     1373.609        2.617        0.387      210.154       32.497        0.024      336.350        7.589      865.567
04/20/2013  03:54:00      -54.300       90.879       -7.797       37.899       47.834       23.793     1436.343     2288.134      566.103        0.778        0.215      105.865       20.275        0.037      336.343        7.580      865.545
04/20/2013  03:55:00      -78.456      105.783      -25.140       30.129       43.774       22.983      907.730     1916.202      528.224        1.066        0.168      131.702       13.111        0.010      336.390        7.660      865.536
04/20/2013  03:56:00     -106.970      101.231      -20.187       30.011       49.605       28.829      900.688     2460.665      831.087        1.314        0.210      147.276       24.319        0.027      336.366        7.619      865.530
04/20/2013  03:57:00      -74.982       79.540      -20.021       56.603       45.468       35.487     3203.862     2067.357     1259.294        0.944        0.327      109.311       24.851        0.052      336.360        7.607      865.549
04/20/2013  03:58:00      -64.960       90.203      -13.723       54.978       54.423       24.053     3022.581     2961.877      578.550        0.955        0.328      111.159       23.969        0.046      336.409        7.691      865.553
04/20/2013  03:59:00      -64.580       77.443       -0.566       82.901       64.620       36.880     6872.556     4175.761     1360.139        1.129        0.620      100.836       36.328        0.130      336.446        7.753      865.574
04/20/2013  04:00:00      -87.404       89.100       -9.739       53.547       59.986       34.349     2867.323     3598.318     1179.879        1.166        0.382      124.812       31.937        0.065      336.400        7.675      865.610
04/20/2013  04:01:00     -144.006      182.183      -38.819       57.114       62.481       36.081     3261.998     3903.850     1301.858        3.195        0.423      232.225       33.885        0.021      336.446        7.750      865.626
04/20/2013  04:02:00     -121.433      156.153      -24.072       64.743       78.096       45.110     4191.719     6098.996     2034.933        2.602        0.616      197.813       40.501        0.042      336.411        7.691      865.636
04/20/2013  04:03:00     -119.553      167.794      -20.800       50.077       88.968       44.236     2507.671     7915.278     1956.844        2.763        0.619      206.028       30.951        0.023      336.386        7.649      865.640
04/20/2013  04:04:00     -183.632      146.984      -38.788       81.940       81.795       42.131     6714.093     6690.424     1775.007        3.600        0.759      235.213       42.807        0.033      336.424        7.712      865.620
04/20/2013  04:05:00     -144.452      161.913      -24.035       63.225       63.698       39.390     3997.404     4057.490     1551.590        2.863        0.480      216.984       34.032        0.025      336.404        7.681      865.600
04/20/2013  04:06:00     -131.129      130.063      -19.388       71.782       71.133       48.327     5152.617     5059.889     2335.544        2.352        0.627      184.692       45.362        0.060      336.397        7.668      865.605
04/20/2013  04:07:00     -164.178      130.219      -26.777       93.934       67.912       49.128     8823.640     4611.997     2413.596        3.024        0.792      209.550       52.493        0.063      336.419        7.706      865.596
04/20/2013  04:08:00     -136.600      218.558      -19.563       84.119      101.928       59.793     7075.948    10389.230     3575.187        4.392        1.052      257.735       55.720        0.047      336.364        7.611      865.597
04/20/2013  04:09:00     -151.726      184.339      -21.643       67.386       79.943       51.629     4540.858     6390.804     2665.557        3.553        0.680      238.751       33.408        0.020      336.389        7.653      865.613
04/20/2013  04:10:00      -84.713      117.394      -17.921       64.880       61.781       37.361     4209.421     3816.911     1395.817        1.535        0.471      144.768       33.607        0.054      336.414        7.699      865.624
04/20/2013  04:11:00     -132.727       52.874      -43.815       56.226       74.692       32.694     3161.351     5578.949     1068.897        1.607        0.490      142.870       19.891        0.019      336.469        7.791      865.638
04/20/2013  04:12:00     -143.356      142.629      -33.336       74.089       66.724       42.022     5489.158     4452.093     1765.833        2.685        0.585      202.222       40.522        0.040      336.446        7.750      865.649
04/20/2013  04:13:00      -31.355       72.351       11.145       35.343       59.401       34.304     1249.105     3528.533     1176.772        0.615        0.298       78.853       32.150        0.166      336.384        7.649      865.665
04/20/2013  04:14:00      -30.762       15.444        6.954       41.587       38.697       25.951     1729.472     1497.463      673.472        0.257        0.195       34.421       18.460        0.288      336.429        7.724      865.686
04/20/2013  04:15:00      -96.475       47.889      -24.848       98.652       74.315       48.302     9732.151     5522.703     2333.042        1.490        0.879      107.707       56.280        0.273      336.506        7.852      865.695
04/20/2013  04:16:00     -157.559       58.674      -18.365       90.234       87.849       51.219     8142.229     7717.519     2623.407        2.354        0.924      168.129       51.798        0.095      336.501        7.845      865.696
04/20/2013  04:17:00     -117.495        2.133       -8.099       71.729       80.780       38.354     5145.048     6525.331     1471.010        1.351        0.657      117.515       29.378        0.062      336.523        7.882      865.693
04/20/2013  04:18:00     -145.128       70.719      -16.145      112.500       59.197       36.265    12656.180     3504.329     1315.127        2.190        0.874      161.441       49.963        0.096      336.488        7.823      865.693
04/20/2013  04:19:00     -117.571       23.819      -10.629      105.552       48.793       35.181    11141.289     2380.735     1237.708        1.463        0.738      119.960       43.943        0.134      336.569        7.959      865.685
04/20/2013  04:20:00      -36.806      -31.104       -4.197       55.253       33.439       21.709     3052.894     1118.150      471.290        0.349        0.232       48.189       14.036        0.085      336.587        7.989      865.672
04/20/2013  04:21:00     -200.680       34.613      -22.875      126.990      111.367       59.241    16126.429    12402.605     3509.454        3.701        1.602      203.643       69.936        0.118      336.521        7.876      865.656
04/20/2013  04:22:00     -173.778      -27.882       -8.092      107.645       62.139       44.325    11587.427     3861.222     1964.750        2.422        0.871      176.001       48.542        0.076      336.510        7.860      865.646
04/20/2013  04:23:00     -103.083      -54.079       -7.161       60.191       53.904       33.454     3622.997     2905.625     1119.184        1.062        0.382      116.407       31.303        0.072      336.485        7.817      865.640
04/20/2013  04:24:00      -90.151       57.565       19.365       79.591      117.372       64.285     6334.802    13776.206     4132.577        1.803        1.212      106.963       54.853        0.263      336.454        7.765      865.640
04/20/2013  04:25:00     -114.214      126.294        0.589       81.307       83.869       59.526     6610.799     7033.949     3543.327        2.309        0.859      170.279       48.935        0.083      336.507        7.854      865.673
04/20/2013  04:26:00     -155.159      115.710      -24.607       65.121      124.288       43.457     4240.716    15447.576     1888.492        2.982        1.079      193.554       42.318        0.048      336.567        7.956      865.686
04/20/2013  04:27:00     -152.697      113.212      -21.645      103.572       85.978       50.580    10727.215     7392.216     2558.298        2.864        1.034      190.088       48.971        0.066      336.595        8.002      865.699
04/20/2013  04:28:00     -201.643      154.474      -36.092      123.043      107.762       58.992    15139.502    11612.576     3480.044        4.802        1.512      254.012       48.365        0.036      336.545        7.915      865.701
04/20/2013  04:29:00     -150.243       33.444      -34.339       64.581      110.365       47.063     4170.672    12180.355     2214.949        2.172        0.928      153.920       38.215        0.062      336.495        7.835      865.705
04/20/2013  04:30:00     -124.515       23.544      -12.796       86.913       85.100       48.910     7553.787     7241.966     2392.168        1.670        0.859      126.722       46.198        0.133      336.461        7.777      865.693
04/20/2013  04:31:00     -104.277       58.794      -15.696       43.667       50.983       35.418     1906.787     2599.280     1254.433        1.017        0.288      119.710       19.406        0.026      336.413        7.698      865.693
04/20/2013  04:32:00     -153.672       85.148      -13.031       82.662      126.711       65.780     6833.017    16055.592     4327.018        2.912        1.361      175.685       41.287        0.055      336.412        7.691      865.671
04/20/2013  04:33:00     -192.923       33.934      -12.485       81.983       64.842       50.640     6721.245     4204.461     2564.395        2.601        0.675      195.884       39.786        0.041      336.397        7.666      865.652
04/20/2013  04:34:00     -219.514       52.156      -34.430       72.511      103.796       55.273     5257.871    10773.522     3055.104        3.559        0.954      225.625       42.570        0.036      336.375        7.630      865.628
04/20/2013  04:35:00     -148.592       47.532      -14.346      100.296       83.950       52.258    10059.208     7047.608     2730.922        2.219        0.992      156.009       55.710        0.128      336.364        7.612      865.610
04/20/2013  04:36:00     -178.146       68.448      -27.223       93.758      109.749       56.980     8790.620    12044.760     3246.722        3.062        1.204      190.843       41.430        0.047      336.376        7.632      865.591
04/20/2013  04:37:00     -211.309       75.430      -28.562      114.547       60.233       41.212    13120.973     3628.014     1698.458        3.480        0.922      224.369       39.765        0.031      336.337        7.569      865.574
04/20/2013  04:38:00     -137.566       13.353      -18.548       96.947      104.723       45.042     9398.644    10966.967     2028.757        2.092        1.120      138.213       48.661        0.124      336.366        7.616      865.563
04/20/2013  04:39:00     -120.995       44.310      -28.949       74.517       54.718       41.585     5552.814     2994.027     1729.295        1.386        0.514      128.854       35.598        0.076      336.333        7.564      865.564
04/20/2013  04:40:00     -211.333       81.854      -32.422       95.463       83.799       44.699     9113.139     7022.337     1998.023        3.527        0.907      226.631       43.362        0.037      336.314        7.528      865.569
04/20/2013  04:41:00     -114.390       35.443      -10.077       39.980       24.807       17.824     1598.361      615.384      317.709        0.849        0.127      119.755       15.978        0.018      336.332        7.563      865.578
04/20/2013  04:42:00     -112.804       -5.648      -14.215       60.863       27.231       38.345     3704.315      741.521     1470.368        0.944        0.296      112.945       34.133        0.091      336.323        7.549      865.581
04/20/2013  04:43:00      -40.791       31.707       -4.372       39.970       86.888       33.470     1597.596     7549.552     1120.250        0.648        0.513       51.665       42.304        0.670      336.334        7.565      865.581
04/20/2013  04:44:00     -157.502       74.450      -26.107      107.830       61.471       42.025    11627.210     3778.740     1766.082        2.410        0.859      174.212       54.581        0.098      336.479        7.807      865.593
04/20/2013  04:45:00      -22.778       57.698       -8.590       29.408       64.922       29.476      864.807     4214.822      868.831        0.493        0.297       62.032       32.177        0.269      336.475        7.801      865.588
04/20/2013  04:46:00     -125.386      115.603      -23.835      101.034       85.848       59.789    10207.872     7369.910     3574.779        2.540        1.058      170.545       64.003        0.141      336.592        7.995      865.566
04/20/2013  04:47:00     -178.749       34.131      -14.846       89.359       99.199       50.134     7984.990     9840.358     2513.410        2.683        1.017      181.979       47.580        0.068      336.567        7.953      865.592
04/20/2013  04:48:00     -164.979      116.470      -39.236       97.476       70.514       49.508     9501.589     4972.199     2450.999        2.962        0.846      201.949       47.106        0.054      336.513        7.865      865.638
04/20/2013  04:49:00      -88.497       44.517       -9.627       75.827       80.298       38.079     5749.666     6447.700     1450.009        1.177        0.682       99.063       40.230        0.165      336.473        7.797      865.663
04/20/2013  04:50:00     -119.538       17.751      -24.839       72.115       83.943       39.496     5200.507     7046.483     1559.908        1.451        0.690      120.849       28.766        0.057      336.458        7.772      865.685
04/20/2013  04:51:00      -59.905       -6.728        9.654       71.702       50.213       44.696     5141.156     2521.303     1997.688        0.669        0.483       60.281       32.038        0.282      336.422        7.712      865.691
04/20/2013  04:52:00      -93.487        2.263       -1.789       73.723       73.007       31.305     5435.030     5329.982      979.974        1.024        0.587       93.514       30.753        0.108      336.340        7.574      865.700
04/20/2013  04:53:00      -92.359      -43.416       -4.475       73.010       39.963       29.520     5330.494     1597.065      871.401        0.912        0.390      102.054       33.413        0.107      336.348        7.590      865.690
04/20/2013  04:54:00      -94.924       -8.759       -8.880       41.917       41.052       24.350     1757.034     1685.241      592.927        0.660        0.202       95.327       14.332        0.023      336.291        7.495      865.679
04/20/2013  04:55:00      -77.263       -1.249      -11.833       17.520       23.651       14.990      306.945      559.348      224.703        0.360        0.055       77.273        9.447        0.015      336.310        7.526      865.667
04/20/2013  04:56:00      -98.044      -12.480       -9.755       55.043       58.834       27.625     3029.705     3461.497      763.157        0.856        0.363       98.835       21.034        0.045      336.333        7.564      865.666
04/20/2013  04:57:00      -59.777       -5.908       -1.616       28.604       22.903       25.302      818.188      524.553      640.199        0.280        0.099       60.069       16.602        0.076      336.262        7.446      865.648
04/20/2013  04:58:00      -37.655       26.054      -16.952       35.981       47.090       25.533     1294.623     2217.477      651.953        0.327        0.208       45.790       18.146        0.157      336.307        7.521      865.612
04/20/2013  04:59:00      -69.789       34.449       -5.256       56.982       79.867       36.355     3246.910     6378.766     1321.719        0.851        0.547       77.828       32.814        0.178      336.269        7.457      865.606
04/20/2013  05:00:00     -100.576       56.886       -6.165       70.210       74.511       45.547     4929.407     5551.902     2074.535        1.297        0.628      115.549       41.370        0.128      336.310        7.525      865.608
04/20/2013  05:01:00      -75.365       30.956       -3.757       65.855       73.629       36.024     4336.915     5421.214     1297.705        0.885        0.553       81.474       35.999        0.195      336.322        7.546      865.617
04/20/2013  05:02:00     -107.727      117.408      -16.737       78.465       81.663       47.528     6156.788     6668.818     2258.927        2.037        0.754      159.341       47.794        0.090      336.344        7.579      865.632
04/20/2013  05:03:00     -202.172       84.943      -28.239       92.913       58.945       35.225     8632.867     3474.532     1240.792        3.112        0.667      219.292       27.898        0.016      336.336        7.567      865.624
04/20/2013  05:04:00     -116.954       37.089      -17.906       55.004       49.120       48.251     3025.474     2412.726     2328.206        1.157        0.388      122.694       37.233        0.092      336.336        7.568      865.635
04/20/2013  05:05:00     -113.002       41.713      -19.329       72.462       56.675       36.463     5250.760     3212.084     1329.526        1.234        0.490      120.455       42.407        0.124      336.295        7.500      865.658
04/20/2013  05:06:00        6.604       62.080       -4.898       24.602       23.629       17.504      605.240      558.326      306.386        0.270        0.073       62.430       12.018        0.037      336.245        7.416      865.668
04/20/2013  05:07:00      -13.667        6.076      -17.293       32.763       43.706       31.785     1073.446     1910.213     1010.264        0.226        0.200       14.956       17.296        1.337      336.218        7.372      865.683
04/20/2013  05:08:00      -76.534       89.948      -16.814       64.036      114.625       39.087     4100.669    13138.970     1527.817        1.650        0.938      118.102       45.537        0.149      336.246        7.418      865.692
04/20/2013  05:09:00      -70.588      159.289      -19.224       48.860       56.980       30.351     2387.318     3246.732      921.160        1.864        0.328      174.229       28.936        0.028      336.211        7.358      865.706
04/20/2013  05:10:00       43.551       67.864       -1.130       40.182       55.908       31.984     1614.625     3125.687     1022.956        0.613        0.288       80.636       34.506        0.183      336.140        7.242      865.727
04/20/2013  05:11:00       48.958       32.042       20.550       30.045       27.621       30.916      902.702      762.935      955.773        0.323        0.131       58.512       17.722        0.092      336.176        7.301      865.745
04/20/2013  05:12:00       34.647      -17.991       36.551       32.691       69.242       40.558     1068.713     4794.504     1644.970        0.518        0.375       39.040       46.943        1.446      336.062        7.112      865.746
04/20/2013  05:13:00       50.382      -90.346       -7.083       41.782       43.206       18.919     1745.715     1866.756      357.942        0.736        0.199      103.445       18.538        0.032      336.154        7.265      865.740
04/20/2013  05:14:00       52.779       43.349       11.572       17.503       20.136       16.251      306.371      405.473      264.087        0.289        0.049       68.299       12.317        0.033      335.994        6.996      865.743
04/20/2013  05:15:00       14.875        4.812        3.042       18.926       32.050       17.065      358.186     1027.180      291.201        0.096        0.084       15.634       16.857        1.162      335.956        6.935      865.741
04/20/2013  05:16:00       12.173      -18.817       18.249       13.415       25.355       17.874      179.960      642.893      319.471        0.099        0.057       22.411       16.296        0.529      335.959        6.939      865.745
04/20/2013  05:17:00       21.338       10.119       23.489       23.232       44.707       16.586      539.744     1998.746      275.109        0.196        0.141       23.616       15.530        0.432      335.935        6.899      865.745
04/20/2013  05:18:00       21.243      -57.003       25.434       26.558       33.946       27.316      705.312     1152.307      746.154        0.348        0.130       60.833       14.587        0.057      335.986        6.983      865.757
04/20/2013  05:19:00       -3.113        1.865       37.886       17.191       25.446       12.449      295.534      647.490      154.990        0.127        0.055        3.629        7.609        4.396      335.952        6.928      865.784
04/20/2013  05:20:00       45.940       59.121       52.901       36.379       27.979       22.020     1323.410      782.826      484.882        0.550        0.130       74.872        7.952        0.011      335.893        6.830      865.807
04/20/2013  05:21:00       29.893       33.915       32.796       26.234       15.019       15.085      688.218      225.579      227.556        0.213        0.057       45.208        2.488        0.003      335.748        6.588      865.836
04/20/2013  05:22:00       59.315       42.967       22.526       11.925       18.503       17.079      142.204      342.364      291.698        0.332        0.039       73.242       10.464        0.020      335.765        6.617      865.844
04/20/2013  05:23:00       15.391       11.002       23.820       25.419       23.781       18.776      646.108      565.547      352.548        0.124        0.078       18.919       12.291        0.422      335.734        6.565      865.851
04/20/2013  05:24:00        1.093       19.402       13.156       14.525       12.923       17.940      210.965      166.991      321.840        0.063        0.035       19.432        4.355        0.050      335.701        6.511      865.849
04/20/2013  05:25:00      -10.594       11.911        0.739       26.902        9.500       13.591      723.700       90.242      184.716        0.063        0.050       15.941       15.262        0.917      335.704        6.519      865.846
04/20/2013  05:26:00     -109.351        3.910      -11.240       28.524       28.277       20.911      813.600      799.607      437.277        0.707        0.103      109.421        6.200        0.003      335.946        6.919      865.849
04/20/2013  05:27:00      -79.721       48.888      -18.554       57.534       22.931       22.143     3310.140      525.808      490.291        0.671        0.216       93.518       28.299        0.092      335.992        6.994      865.864
04/20/2013  05:28:00       57.996       24.977       -0.170       14.675       20.766       14.476      215.348      431.239      209.566        0.242        0.043       63.145       12.429        0.039      335.795        6.667      865.875
04/20/2013  05:29:00       40.796       14.061        1.973       12.951       16.337       12.765      167.718      266.888      162.947        0.123        0.030       43.152       10.525        0.059      335.712        6.530      865.885
04/20/2013  05:30:00       31.316       19.681       17.240       31.499       32.620       18.379      992.191     1064.057      337.781        0.203        0.120       36.986        9.427        0.065      335.701        6.511      865.889
04/20/2013  05:31:00       55.074       44.684       16.977       34.611       20.312       21.980     1197.953      412.561      483.120        0.371        0.105       70.921        9.186        0.017      335.769        6.624      865.904
04/20/2013  05:32:00       70.858       35.640        5.490       26.731       19.139       20.321      714.551      366.292      412.934        0.391        0.075       79.316       10.892        0.019      335.680        6.475      865.906
04/20/2013  05:33:00      -23.915       93.334      -16.213       25.935       27.464       18.888      672.631      754.248      356.744        0.566        0.089       96.349       15.853        0.027      335.845        6.750      865.896
04/20/2013  05:34:00      -13.793       64.008       -7.872       28.024       19.704       18.310      785.342      388.251      335.244        0.293        0.075       65.477       12.309        0.035      335.772        6.629      865.881
04/20/2013  05:35:00      -64.623       67.828      -17.972       26.296       34.483       15.708      691.457     1189.097      246.753        0.561        0.106       93.685       17.807        0.036      335.825        6.717      865.869
04/20/2013  05:36:00      -35.663       91.630      -10.415       27.639       32.483       21.373      763.919     1055.132      456.811        0.603        0.114       98.326       18.934        0.037      335.847        6.753      865.865
04/20/2013  05:37:00      -72.414       32.819       -2.542       40.169       31.261       25.377     1613.569      977.258      644.017        0.478        0.162       79.504       19.207        0.058      335.812        6.695      865.855
04/20/2013  05:38:00     -115.387       47.202      -15.039       48.054       39.978       29.979     2309.230     1598.244      898.744        1.029        0.240      124.668       32.446        0.068      335.746        6.584      865.853
04/20/2013  05:39:00     -103.438        1.588      -13.103       66.596       67.032       31.814     4435.039     4493.316     1012.146        1.041        0.497      103.450       32.885        0.101      335.768        6.622      865.837
04/20/2013  05:40:00     -197.430      -26.922       -6.955       65.044       81.900       43.628     4230.670     6707.643     1903.425        2.629        0.642      199.257       35.568        0.032      335.762        6.610      865.826
04/20/2013  05:41:00     -145.737      -52.138       -1.183       78.349       67.435       37.684     6138.583     4547.542     1420.101        1.803        0.605      154.782       39.468        0.065      335.754        6.596      865.810
04/20/2013  05:42:00      -98.669      -34.241       -3.434       47.373       44.752       33.370     2244.248     2002.710     1113.565        0.814        0.268      104.442       25.885        0.061      335.751        6.594      865.816
04/20/2013  05:43:00     -181.578      -31.211      -20.572       39.122       68.664       28.046     1530.525     4714.812      786.594        2.070        0.352      184.241       12.015        0.004      335.743        6.578      865.819
04/20/2013  05:44:00     -133.768      -48.280        1.055       62.359       43.279       27.340     3888.591     1873.052      747.499        1.337        0.325      142.214       32.275        0.052      335.653        6.431      865.830
04/20/2013  05:45:00     -123.427      -25.000        1.215       36.332       41.794       25.153     1320.049     1746.750      632.666        0.978        0.185      125.934       24.253        0.037      335.596        6.336      865.829
04/20/2013  05:46:00     -165.999      -22.044       -5.460       85.110       50.186       31.362     7243.664     2518.676      983.589        1.941        0.537      167.456       39.630        0.056      335.581        6.308      865.813
04/20/2013  05:47:00     -115.980      -36.305        2.336       60.545       50.023       30.845     3665.681     2502.305      951.425        1.095        0.356      121.530       31.844        0.069      335.531        6.227      865.806
04/20/2013  05:48:00     -139.911      -12.545       -9.045       62.145       58.693       29.396     3862.057     3444.870      864.127        1.399        0.409      140.473       28.333        0.041      335.529        6.222      865.822
04/20/2013  05:49:00     -149.317       -9.069      -12.448       67.860       57.933       31.899     4605.019     3356.283     1017.515        1.575        0.449      149.593       28.203        0.036      335.567        6.287      865.821
04/20/2013  05:50:00      -72.935      -11.694       -2.963       39.507       39.489       24.404     1560.818     1559.399      595.534        0.459        0.186       73.866       19.808        0.072      335.548        6.254      865.830
04/20/2013  05:51:00       35.323       10.923      -14.492       30.015       42.267       26.659      900.872     1786.541      710.676        0.249        0.170       36.973       23.545        0.406      335.668        6.455      865.820
04/20/2013  05:52:00       30.205       -0.662       19.020       34.544       30.446       25.255     1193.314      926.939      637.821        0.202        0.138       30.212        7.246        0.058      335.618        6.372      865.813
04/20/2013  05:53:00       -1.927      -43.922       14.467       27.814       29.953       21.634      773.593      897.177      468.037        0.214        0.107       43.964       11.306        0.066      335.649        6.423      865.816
04/20/2013  05:54:00      -29.997       20.262       -6.025       24.330       32.712       11.979      591.954     1070.043      143.499        0.158        0.090       36.199       11.489        0.101      335.570        6.292      865.839
04/20/2013  05:55:00      -49.637      125.693      -18.235       47.039       42.087       25.302     2212.658     1771.298      640.176        1.161        0.231      135.139       21.408        0.025      335.529        6.224      865.869
04/20/2013  05:56:00       -8.097       32.194        9.960       71.204       22.839       35.928     5070.067      521.608     1290.788        0.404        0.344       33.197       37.720        1.291      335.479        6.142      865.877
04/20/2013  05:57:00       47.883       51.451       -2.131       24.447       35.466       28.167      597.667     1257.827      793.360        0.380        0.132       70.285       14.788        0.044      335.446        6.082      865.895
04/20/2013  05:58:00       20.320       95.604      -13.190       21.144       44.348       20.583      447.050     1966.753      423.643        0.628        0.142       97.740       24.216        0.061      335.410        6.023      865.901
04/20/2013  05:59:00       50.630       46.042       14.570       38.914       21.886       24.612     1514.296      478.998      605.763        0.375        0.130       68.434       18.872        0.076      335.333        5.896      865.898
04/20/2013  06:00:00       33.581       27.242        0.166       19.311       20.819       17.306      372.900      433.418      299.484        0.149        0.055       43.241        6.099        0.020      335.334        5.898      865.889
04/20/2013  06:01:00       30.038       26.822       -1.814       28.416       19.064       14.381      807.449      363.423      206.820        0.150        0.069       40.271       10.374        0.066      335.276        5.800      865.874
04/20/2013  06:02:00       13.432       17.003       -6.755       24.629       19.282       12.324      606.588      371.801      151.870        0.082        0.057       21.668        7.199        0.110      335.374        5.966      865.858
04/20/2013  06:03:00       21.867       21.793       13.819       32.171       17.159       20.424     1035.005      294.437      417.138        0.145        0.087       30.873       17.435        0.319      335.311        5.861      865.855
04/20/2013  06:04:00       17.576       10.544        2.869       23.292       25.487       21.175      542.538      649.588      448.360        0.103        0.082       20.496       21.067        1.057      335.274        5.798      865.850
04/20/2013  06:05:00       32.780        2.742        5.072       32.846       34.153       27.573     1078.861     1166.426      760.265        0.206        0.150       32.894       23.987        0.532      335.409        6.024      865.843
04/20/2013  06:06:00      -10.046      123.292      -22.995       54.382       58.663       26.718     2957.386     3441.313      713.865        1.147        0.356      123.700       30.731        0.062      335.352        5.927      865.846
04/20/2013  06:07:00       27.673      138.859        1.732       57.741       51.693       38.075     3334.007     2672.186     1449.695        1.375        0.373      141.590       31.804        0.050      335.321        5.875      865.829
04/20/2013  06:08:00       64.420       54.340        8.231       25.432       29.780       31.849      646.764      886.860     1014.360        0.486        0.127       84.278       22.105        0.069      335.261        5.775      865.835
04/20/2013  06:09:00       34.281       19.906       15.931       29.823       45.354       25.802      889.395     2057.014      665.767        0.272        0.181       39.641       22.422        0.320      335.280        5.807      865.827
04/20/2013  06:10:00       36.716       30.646       -8.295       29.812       28.027       27.502      888.750      785.515      756.355        0.239        0.122       47.825       25.554        0.285      335.309        5.855      865.840
04/20/2013  06:11:00       43.321       18.055        2.409       24.650       23.323       24.006      607.619      543.952      576.277        0.197        0.086       46.933       15.295        0.106      335.208        5.689      865.842
04/20/2013  06:12:00      -11.278      -13.034       -6.753       30.746       18.101       20.126      945.327      327.641      405.059        0.101        0.084       17.236       17.614        1.044      335.257        5.769      865.827
04/20/2013  06:13:00        4.311       -0.794        1.589       14.283       24.406       18.730      203.998      595.647      350.829        0.059        0.058        4.383       11.103        6.416      335.337        5.903      865.820
04/20/2013  06:14:00        1.753       -3.675       -1.095       55.174       38.948       23.996     3044.144     1516.975      575.803        0.258        0.257        4.072       28.361       48.513      335.288        5.821      865.819
04/20/2013  06:15:00      -41.014      -13.849       -3.358       34.565       26.655       23.339     1194.770      710.515      544.705        0.217        0.122       43.289       18.890        0.190      335.302        5.844      865.819
04/20/2013  06:16:00      -78.008        8.771       -3.740       51.398       28.492       18.687     2641.753      811.766      349.216        0.499        0.190       78.499       22.194        0.080      335.273        5.795      865.831
04/20/2013  06:17:00     -181.296       82.295      -35.105       53.742       63.920       39.697     2888.176     4085.778     1575.864        2.471        0.427      199.100       31.839        0.026      335.250        5.756      865.844
04/20/2013  06:18:00     -140.095       24.913      -24.897       33.727       83.225       32.185     1137.487     6926.334     1035.890        1.498        0.455      142.293       28.431        0.040      335.263        5.778      865.852
04/20/2013  06:19:00      -37.264      -18.821       -0.480       47.207       29.696       26.638     2228.518      881.861      709.576        0.278        0.191       41.747       27.631        0.438      335.269        5.788      865.860
04/20/2013  06:20:00      -30.089       36.990        5.755       53.857       73.676       38.423     2900.576     5428.165     1476.332        0.605        0.490       47.683       31.166        0.427      335.302        5.844      865.864
04/20/2013  06:21:00      -44.482      -36.111       -6.277       24.127       24.428       13.853      582.100      596.736      191.915        0.235        0.069       57.294       12.490        0.048      335.324        5.882      865.872
04/20/2013  06:22:00      -16.720      -17.227       -5.053       19.356       16.436        8.542      374.667      270.157       72.969        0.066        0.036       24.007        7.636        0.101      335.321        5.875      865.879
04/20/2013  06:23:00      -37.262      -14.196       -6.295       52.546       27.965       19.022     2761.065      782.028      361.821        0.277        0.195       39.875       10.203        0.065      335.396        6.001      865.876
04/20/2013  06:24:00      -60.573      -78.291       -1.219       39.187       24.611       22.128     1535.636      605.682      489.630        0.622        0.132       98.988       17.259        0.030      335.198        5.672      865.889
04/20/2013  06:25:00        5.426      -35.677       12.754       26.946       26.050       21.707      726.111      678.596      471.203        0.167        0.094       36.088       13.873        0.148      335.243        5.746      865.886
04/20/2013  06:26:00      -18.544      -16.664        7.711       28.644       18.881       12.361      820.503      356.508      152.792        0.101        0.066       24.931        7.838        0.099      335.220        5.708      865.875
04/20/2013  06:27:00     -105.703       13.466      -11.530       36.420       28.881       26.696     1326.410      834.125      712.673        0.718        0.144      106.558       19.104        0.032      335.149        5.591      865.864
04/20/2013  06:28:00     -113.323      -40.847       -7.397       37.824       25.850       19.383     1430.642      668.201      375.685        0.852        0.124      120.460       10.644        0.008      335.186        5.653      865.846
04/20/2013  06:29:00      -93.973       30.570      -22.317       27.700       35.482       22.566      767.293     1258.968      509.224        0.640        0.127       98.820       11.187        0.013      335.121        5.545      865.857
04/20/2013  06:30:00     -118.663       -3.054      -17.218       28.483       30.401       18.911      811.303      924.231      357.642        0.824        0.105      118.702       14.232        0.014      335.108        5.522      865.852
04/20/2013  06:31:00      -29.976      -14.338       -7.069       31.228       16.754       17.799      975.197      280.713      316.803        0.136        0.079       33.228       21.068        0.402      335.138        5.573      865.856
04/20/2013  06:32:00      -14.047      -23.638        1.459       21.345       25.981       19.881      455.627      675.011      395.245        0.114        0.076       27.496       12.047        0.192      335.217        5.702      865.875
04/20/2013  06:33:00       -8.951      -28.461        4.446       22.582       28.913       23.991      509.939      835.964      575.556        0.142        0.096       29.836       16.903        0.321      335.219        5.705      865.907
04/20/2013  06:34:00      -86.071      -50.780       -7.141       63.313       37.094       21.584     4008.508     1375.985      465.886        0.794        0.293       99.934       20.119        0.041      335.126        5.554      865.947
04/20/2013  06:35:00     -160.508       -1.744       -5.963       35.548       35.470       27.543     1263.631     1258.092      758.597        1.454        0.164      160.518       19.234        0.014      334.996        5.338      865.975
04/20/2013  06:36:00      -73.370      -58.047        0.131       46.906       34.200       23.229     2200.200     1169.620      539.580        0.633        0.195       93.556       25.992        0.077      335.006        5.354      865.988
04/20/2013  06:37:00      -52.547      -36.652       10.041       61.302       46.318       34.946     3757.958     2145.323     1221.198        0.566        0.356       64.066       38.025        0.352      335.081        5.479      865.996
04/20/2013  06:38:00     -146.758      -44.845       -1.750       46.754       41.899       26.695     2185.946     1755.516      712.597        1.410        0.233      153.457       28.196        0.034      334.936        5.238      866.000
04/20/2013  06:39:00     -145.601      -55.143      -11.248       24.969       25.132       18.560      623.472      631.596      344.476        1.298        0.080      155.693       13.904        0.008      334.896        5.171      865.999
04/20/2013  06:40:00      -79.307      -14.080       -1.970       32.076       19.056       16.309     1028.897      363.150      265.987        0.407        0.083       80.548       15.958        0.039      334.960        5.278      866.008
04/20/2013  06:41:00      -37.801      -15.949       -5.636       29.680       27.333       15.230      880.895      747.092      231.964        0.179        0.093       41.028       14.425        0.124      334.962        5.282      866.028
04/20/2013  06:42:00      -68.103        8.324       -8.411       38.816       24.605       16.511     1506.676      605.412      272.602        0.358        0.119       68.610       13.285        0.037      334.909        5.193      866.048
04/20/2013  06:43:00     -116.615      -11.329      -13.763       12.531       19.502       11.431      157.038      380.327      130.657        0.729        0.033      117.164        7.323        0.004      334.925        5.219      866.066
04/20/2013  06:44:00     -104.614       -7.587       -5.859       25.409       24.431       17.885      645.627      596.851      319.860        0.630        0.078      104.889       14.987        0.020      334.922        5.214      866.079
04/20/2013  06:45:00     -133.753       16.971      -13.429       32.502       24.727       14.419     1056.355      611.415      207.909        1.012        0.094      134.825       13.019        0.009      334.990        5.327      866.090
04/20/2013  06:46:00     -113.730       10.730      -15.053       26.175       24.547       15.077      685.124      602.569      227.321        0.740        0.076      114.235       13.548        0.014      334.980        5.311      866.100
04/20/2013  06:47:00      -93.096        2.827       -5.522       31.178       24.248       15.503      972.051      587.966      240.340        0.525        0.090       93.139       14.219        0.023      335.022        5.381      866.105
04/20/2013  06:48:00      -71.848       -3.553        1.540       35.828       22.469       16.936     1283.630      504.854      286.815        0.363        0.104       71.936       19.341        0.072      335.033        5.399      866.112
04/20/2013  06:49:00      -48.512       -1.288       -5.418       27.073       23.041       17.458      732.939      530.870      304.794        0.198        0.078       48.529       13.123        0.073      335.006        5.354      866.132
04/20/2013  06:50:00      -53.810      -21.172       -2.441       28.027       30.215       19.753      785.500      912.947      390.172        0.272        0.104       57.825       16.029        0.077      335.043        5.416      866.153
04/20/2013  06:51:00      -74.907       -2.602       -6.224       16.894       17.971        9.766      285.400      322.952       95.370        0.318        0.035       74.952        7.757        0.011      335.065        5.452      866.181
04/20/2013  06:52:00      -67.265      -18.871       -8.735       14.869       14.067       10.101      221.084      197.882      102.027        0.274        0.026       69.862        8.686        0.015      335.199        5.674      866.209
04/20/2013  06:53:00      -66.710      -22.350      -12.908       16.742       12.152        9.022      280.301      147.678       81.390        0.281        0.025       70.354        5.201        0.005      335.230        5.724      866.249
04/20/2013  06:54:00      -43.114      -31.403        5.134       29.792       18.541       14.370      887.584      343.782      206.498        0.215        0.072       53.338       11.157        0.044      335.260        5.773      866.276
04/20/2013  06:55:00      -32.569      -13.731       11.130       26.235       32.774       15.018      688.287     1074.110      225.538        0.168        0.099       35.345       14.795        0.175      335.190        5.659      866.290
04/20/2013  06:56:00      -75.146      -32.211       -0.509       21.867       21.525       11.167      478.180      463.346      124.697        0.388        0.053       81.759        6.848        0.007      335.174        5.633      866.288
04/20/2013  06:57:00      -55.372      -28.650        0.886       33.057       19.779       15.302     1092.775      391.209      234.151        0.280        0.086       62.345       14.909        0.057      335.247        5.752      866.268
04/20/2013  06:58:00      -46.124        0.895        2.448       27.739       20.624       14.703      769.455      425.329      216.172        0.177        0.071       46.133       13.671        0.088      335.335        5.899      866.264
04/20/2013  06:59:00      -45.210      -27.303       11.305       30.879       26.262       17.630      953.525      689.694      310.827        0.244        0.098       52.814       16.262        0.095      335.265        5.784      866.275
04/20/2013  07:00:00      -19.608      -19.300       15.781       27.203       18.706       12.341      740.001      349.931      152.302        0.112        0.062       27.513       13.350        0.235      335.533        6.229      866.307
04/20/2013  07:01:00      -63.583       -8.740       -2.305       27.377       24.092       15.257      749.475      580.411      232.776        0.284        0.078       64.181       10.809        0.028      335.250        5.758      866.340
04/20/2013  07:02:00      -36.969      -16.125       -3.135       15.493        7.113        5.404      240.046       50.594       29.202        0.098        0.016       40.333        6.184        0.024      335.260        5.774      866.359
04/20/2013  07:03:00      -13.602       23.584       -2.268       18.946       23.446       12.308      358.942      549.738      151.484        0.090        0.053       27.225        8.158        0.090      335.387        5.985      866.376
04/20/2013  07:04:00       -3.379       52.640       -1.431       15.692       33.464       15.051      246.242     1119.829      226.518        0.219        0.080       52.748       18.375        0.121      335.456        6.101      866.390
04/20/2013  07:05:00        0.035       33.471        6.065       13.739       16.488       16.780      188.761      271.840      281.585        0.095        0.037       33.471       14.403        0.185      335.583        6.313      866.393
04/20/2013  07:06:00       -0.222       26.886        1.085        8.788       15.000       13.824       77.228      225.013      191.115        0.061        0.025       26.887        6.489        0.058      335.533        6.229      866.383
04/20/2013  07:07:00        3.994       -1.505       13.606        8.307        9.269        6.549       69.002       85.908       42.893        0.020        0.010        4.268        2.080        0.237      335.875        6.801      866.377
04/20/2013  07:08:00       16.120       21.367        2.304       13.207        7.982       12.859      174.434       63.717      165.350        0.056        0.020       26.766        5.070        0.036      335.527        6.221      866.368
04/20/2013  07:09:00      -10.750        4.101       12.843       15.371        8.273        9.932      236.259       68.445       98.650        0.035        0.020       11.506        4.822        0.176      335.966        6.952      866.368
04/20/2013  07:10:00       -1.205       37.230       18.884       22.003       26.392       14.435      484.148      696.556      208.366        0.157        0.069       37.249       14.938        0.161      335.660        6.443      866.366
04/20/2013  07:11:00        5.288       21.229       29.717       12.861       18.203       10.397      165.395      331.363      108.103        0.098        0.030       21.878        7.648        0.122      335.917        6.872      866.374
04/20/2013  07:12:00        2.240       -8.543       20.459       11.481       22.790       13.366      131.811      519.377      178.641        0.066        0.041        8.831        9.519        1.162      335.939        6.907      866.391
04/20/2013  07:13:00        8.165       -4.526       11.848       10.694       24.977       15.147      114.355      623.846      229.437        0.060        0.048        9.335       11.628        1.552      335.921        6.876      866.393
04/20/2013  07:14:00       11.325      -45.418       -0.111       24.313       32.642       20.073      591.134     1065.480      402.938        0.212        0.103       46.808       18.044        0.149      335.846        6.751      866.406
04/20/2013  07:15:00      -13.004      -31.492        6.597       30.379       25.937       19.861      922.860      672.742      394.474        0.160        0.100       34.072       15.569        0.209      335.902        6.846      866.417
04/20/2013  07:16:00      -24.178      -25.021        8.180       15.558       21.052       15.216      242.038      443.183      231.540        0.110        0.046       34.794       13.264        0.145      335.866        6.784      866.421
04/20/2013  07:17:00        5.555       12.183       29.578       18.033       16.940       14.832      325.188      286.956      219.975        0.094        0.042       13.389       10.022        0.560      336.150        7.260      866.407
04/20/2013  07:18:00       14.158       32.210       41.486       19.434       18.095       14.044      377.679      327.446      197.232        0.193        0.045       35.184       13.705        0.152      335.896        6.836      866.404
04/20/2013  07:19:00        0.290       38.982       29.826       18.334       22.768       20.135      336.117      518.368      405.431        0.183        0.063       38.983       15.417        0.156      335.829        6.725      866.407
04/20/2013  07:20:00        6.201       31.887       34.703       21.459       21.267       20.717      460.470      452.302      429.199        0.180        0.067       32.484       20.439        0.396      335.930        6.892      866.401
04/20/2013  07:21:00       30.629       19.646       10.260       17.601       14.996       22.368      309.799      224.878      500.323        0.123        0.052       36.388       12.302        0.114      335.750        6.592      866.422
04/20/2013  07:22:00        6.605       21.958       27.914       15.444       14.702       10.133      238.510      216.156      102.672        0.093        0.028       22.930        9.950        0.188      336.133        7.230      866.432
04/20/2013  07:23:00       21.280        7.263       19.884       19.005       17.519       15.829      361.181      306.900      250.564        0.091        0.046       22.486       15.377        0.468      336.012        7.027      866.435
04/20/2013  07:24:00       49.840       -5.377        5.785       29.262       19.069       21.199      856.253      363.629      449.391        0.211        0.083       50.129       12.564        0.063      336.057        7.104      866.441
04/20/2013  07:25:00       12.325       -4.702       29.452       16.900       25.959       15.478      285.617      673.854      239.573        0.112        0.060       13.191        8.271        0.393      336.396        7.670      866.416
04/20/2013  07:26:00       17.805      -25.521       21.607       33.728       33.852       38.168     1137.594     1145.940     1456.809        0.259        0.187       31.118       19.445        0.390      336.226        7.385      866.398
04/20/2013  07:27:00        4.369        6.593       48.568       21.747       41.121       29.841      472.938     1690.922      890.475        0.274        0.153        7.909       21.139        7.143      336.391        7.660      866.379
04/20/2013  07:28:00       12.244      -40.243       24.277       27.162       46.099       31.305      737.764     2125.097      979.998        0.310        0.192       42.064       18.414        0.192      336.272        7.461      866.377
04/20/2013  07:29:00        7.842       23.522       65.849       28.321       55.643       26.964      802.103     3096.133      727.063        0.479        0.231       24.795       25.041        1.020      336.340        7.577      866.376
04/20/2013  07:30:00       16.531       69.586       85.124       44.780       37.775       23.046     2005.249     1426.922      531.125        0.816        0.198       71.523       18.324        0.066      336.033        7.064      866.395
04/20/2013  07:31:00       19.323       81.237       88.932       41.490       37.934       29.361     1721.385     1438.982      862.069        0.945        0.201       83.504       25.674        0.095      335.993        6.997      866.413
04/20/2013  07:32:00       11.658       70.647       88.063       38.760       34.427       24.935     1502.330     1185.185      621.760        0.810        0.165       71.603       14.566        0.041      336.039        7.073      866.422
04/20/2013  07:33:00       15.296      -14.662       46.744       36.046       34.441       25.480     1299.334     1186.190      649.242        0.288        0.157       21.188       18.002        0.722      336.243        7.415      866.436
04/20/2013  07:34:00       12.685       -6.945       28.028       32.176       43.700       27.592     1035.315     1909.695      761.295        0.235        0.185       14.462       14.039        0.942      336.393        7.666      866.443
04/20/2013  07:35:00       28.530      -19.384       45.603       44.227       65.442       36.050     1956.069     4282.696     1299.627        0.540        0.377       34.492       45.896        1.771      336.224        7.382      866.463
04/20/2013  07:36:00       19.279       12.357       51.237       37.980       65.333       36.869     1442.452     4268.354     1359.344        0.511        0.354       22.900       42.468        3.439      336.342        7.579      866.481
04/20/2013  07:37:00       11.677       42.906       70.436       38.106       44.468       35.478     1452.064     1977.365     1258.663        0.581        0.234       44.466       33.703        0.574      336.339        7.574      866.502
04/20/2013  07:38:00       44.511       13.253       45.298       44.337       42.281       39.809     1965.733     1787.675     1584.784        0.477        0.267       46.442       34.787        0.561      336.331        7.561      866.506
04/20/2013  07:39:00       74.467       11.259       51.674       41.573       48.312       32.504     1728.344     2334.096     1056.512        0.673        0.256       75.314       33.986        0.204      336.274        7.465      866.525
04/20/2013  07:40:00       43.796       51.775       58.918       39.359       39.872       31.984     1549.118     1589.812     1023.005        0.612        0.208       67.814       31.946        0.222      336.172        7.295      866.548
04/20/2013  07:41:00       18.139       15.022       43.797       24.620       29.615       24.208      606.156      877.060      586.035        0.227        0.103       23.551       16.348        0.482      336.497        7.840      866.551
04/20/2013  07:42:00       88.214       66.426       65.182       60.830       41.582       48.476     3700.336     1729.076     2349.969        1.211        0.389      110.427       42.059        0.145      336.179        7.308      866.558
04/20/2013  07:43:00       38.633       64.081       54.126       29.080       17.283       19.274      845.638      298.708      371.493        0.502        0.076       74.826       13.105        0.031      336.091        7.160      866.559
04/20/2013  07:44:00       35.266       50.518       40.752       33.240       20.766       16.019     1104.908      431.210      256.612        0.362        0.090       61.610        7.555        0.015      336.118        7.206      866.556
04/20/2013  07:45:00        6.461       15.290       67.533       25.639       54.192       23.829      657.340     2936.800      567.804        0.450        0.208       16.599       27.902        2.826      336.631        8.063      866.545
04/20/2013  07:46:00       23.952      -16.121       47.886       33.744       54.265       35.416     1138.652     2944.694     1254.260        0.423        0.267       28.872       31.917        1.222      336.614        8.035      866.541
04/20/2013  07:47:00       36.051      -92.510       -0.353       52.559       83.981       54.620     2762.442     7052.882     2983.379        1.133        0.640       99.287       51.246        0.266      336.479        7.807      866.546
04/20/2013  07:48:00       19.201       44.565       78.970       42.256       62.933       48.353     1785.611     3960.532     2337.994        0.834        0.404       48.526       37.749        0.605      336.562        7.947      866.554
04/20/2013  07:49:00       22.818       56.939       72.470       35.806       50.389       37.110     1282.098     2539.009     1377.130        0.711        0.260       61.341       27.953        0.208      336.427        7.722      866.580
04/20/2013  07:50:00       16.450       24.760       52.125       25.261       32.847       29.292      638.117     1078.893      858.029        0.309        0.129       29.726       18.663        0.394      336.564        7.950      866.568
04/20/2013  07:51:00       21.982       -4.296       30.458       27.308       46.717       24.942      745.703     2182.485      622.103        0.249        0.178       22.398       17.212        0.591      336.542        7.914      866.561
04/20/2013  07:52:00       70.940     -134.851      -15.344       38.995       36.856       31.693     1520.618     1358.354     1004.440        1.367        0.194      152.372       18.131        0.014      336.301        7.511      866.547
04/20/2013  07:53:00       35.906      -27.949       40.990       47.954      113.099       77.170     2299.573    12791.424     5955.143        1.239        1.052       45.501       90.335        3.941      336.550        7.927      866.549
04/20/2013  07:54:00       -2.540       58.453       65.389       22.099       39.625       32.830      488.355     1570.155     1077.790        0.542        0.157       58.508       29.591        0.256      336.553        7.931      866.582
04/20/2013  07:55:00       14.891       -9.016       47.730       40.211       61.943       37.288     1616.940     3836.919     1390.416        0.471        0.342       17.408       44.390        6.502      336.653        8.100      866.610
04/20/2013  07:56:00       47.143      -49.569       12.186       35.870       61.964       37.172     1286.679     3839.524     1381.789        0.567        0.325       68.407       37.500        0.301      336.489        7.825      866.632
04/20/2013  07:57:00       40.193      -90.194        7.740       43.785       66.437       41.003     1917.133     4413.903     1681.209        0.891        0.401       98.745       41.086        0.173      336.718        8.209      866.665
04/20/2013  07:58:00       69.606      -70.922       10.120       54.090       83.599       51.585     2925.729     6988.755     2661.031        1.127        0.629       99.373       59.441        0.358      336.554        7.934      866.689
04/20/2013  07:59:00       83.496       26.351       42.851       46.157       48.539       34.870     2130.479     2356.007     1215.931        0.760        0.285       87.556       30.886        0.124      336.372        7.629      866.728
04/20/2013  08:00:00       80.369       35.195       50.476       56.635       39.433       41.228     3207.524     1554.926     1699.732        0.835        0.323       87.737       35.266        0.162      336.670        8.127      866.727
04/20/2013  08:01:00       13.985       20.784       72.245       35.652       41.107       28.766     1271.076     1689.788      827.511        0.482        0.189       25.051       16.710        0.445      337.085        8.821      866.720
04/20/2013  08:02:00       12.159       -4.781       60.908       41.860       88.008       47.823     1752.293     7745.379     2287.035        0.783        0.589       13.066       42.000       10.334      336.925        8.556      866.718
04/20/2013  08:03:00       64.993      -81.466        9.703       50.667      131.955       43.835     2567.118    17412.061     1921.494        1.642        1.095      104.216       54.776        0.276      336.789        8.325      866.745
04/20/2013  08:04:00       34.879      -96.398       32.086       59.034      107.335       68.174     3485.009    11520.808     4647.683        1.559        0.983      102.514       82.335        0.645      336.961        8.612      866.748
04/20/2013  08:05:00        3.839      -60.500       43.506       35.294       52.954       46.214     1245.634     2804.110     2135.709        0.588        0.309       60.622       24.209        0.159      337.132        8.898      866.758
04/20/2013  08:06:00       58.695     -121.459      -12.611       43.567       46.994       35.636     1898.114     2208.455     1269.903        1.187        0.269      134.898       25.116        0.035      336.807        8.356      866.771
04/20/2013  08:07:00       31.453     -100.128       -5.600       59.948       86.021       48.734     3593.707     7399.650     2375.030        1.221        0.668      104.952       39.233        0.140      336.867        8.456      866.760
04/20/2013  08:08:00       86.880     -159.632      -24.336       68.402       76.205       59.915     4678.878     5807.255     3589.853        2.385        0.704      181.743       52.596        0.084      336.589        7.990      866.773
04/20/2013  08:09:00       73.218      -98.399       -8.410       58.500       66.862       42.444     3422.199     4470.482     1801.469        1.240        0.485      122.651       35.404        0.083      336.650        8.093      866.797
04/20/2013  08:10:00       68.552     -112.637      -11.942       74.309       58.288       46.473     5521.888     3397.448     2159.729        1.430        0.554      131.858       52.106        0.156      336.665        8.117      866.818
04/20/2013  08:11:00       73.786      -93.408      -11.148       58.670       74.676       41.754     3442.127     5576.470     1743.358        1.253        0.538      119.036       42.754        0.129      336.652        8.097      866.825
04/20/2013  08:12:00      -32.245      -14.410       -0.468       51.061       50.195       34.470     2607.266     2519.544     1188.185        0.378        0.316       35.319       22.162        0.394      336.639        8.078      866.840
04/20/2013  08:13:00      -88.931      -31.955        0.471       44.269       47.398       22.106     1959.724     2246.606      488.675        0.681        0.235       94.498       21.471        0.052      336.607        8.024      866.851
04/20/2013  08:14:00      -68.610      -50.176       15.550       73.213       31.554       26.401     5360.161      995.630      697.003        0.726        0.353       85.000       23.032        0.073      336.568        7.957      866.851
04/20/2013  08:15:00     -125.728      -72.498      -14.237       34.578       32.870       21.913     1195.607     1080.418      480.176        1.201        0.138      145.133       12.139        0.007      336.319        7.541      866.857
04/20/2013  08:16:00      -89.061        2.646        1.790       23.259       48.120       18.451      540.963     2315.530      340.453        0.557        0.160       89.100       18.393        0.043      336.432        7.728      866.865
04/20/2013  08:17:00      -30.238       27.074       22.737       40.991       35.516       26.586     1680.263     1261.415      706.820        0.291        0.182       40.587       16.341        0.162      336.927        8.558      866.876
04/20/2013  08:18:00       23.094       62.267      100.036       46.909       86.881       45.483     2200.418     7548.266     2068.706        1.312        0.591       66.412       55.375        0.695      336.861        8.448      866.861
04/20/2013  08:19:00       35.626       64.553       84.646       52.244       86.834       51.485     2729.441     7540.063     2650.689        1.276        0.646       73.731       55.216        0.561      336.939        8.577      866.853
04/20/2013  08:20:00       44.881        4.538       28.802       52.903       44.998       30.277     2798.766     2024.828      916.679        0.430        0.287       45.109       23.110        0.262      336.885        8.486      866.870
04/20/2013  08:21:00       14.624       18.343       54.810       34.043       41.800       24.094     1158.953     1747.243      580.530        0.352        0.174       23.458       20.424        0.758      337.351        9.267      866.863
04/20/2013  08:22:00       11.988      -77.019      -15.358       29.617       35.573       22.266      877.167     1265.423      495.771        0.447        0.132       77.947       15.360        0.039      336.901        8.514      866.866
04/20/2013  08:23:00      -24.468      -35.909       -9.890       20.473       20.230       15.745      419.159      409.234      247.903        0.153        0.054       43.453       13.217        0.093      336.881        8.480      866.876
04/20/2013  08:24:00      -28.691       15.733        9.091       20.339       25.157       18.912      413.675      632.877      357.683        0.128        0.070       32.721       15.688        0.230      337.255        9.106      866.869
04/20/2013  08:25:00      -75.808       16.508      -21.418       41.638       35.422       29.050     1733.736     1254.708      843.879        0.515        0.192       77.584       21.324        0.076      336.914        8.534      866.871
04/20/2013  08:26:00        3.525       21.417       15.353       25.937       49.930       31.436      672.746     2493.011      988.241        0.243        0.208       21.706       26.779        1.522      337.309        9.197      866.844
04/20/2013  08:27:00       24.177       62.267       66.084       42.210       42.450       38.911     1781.651     1802.022     1514.096        0.696        0.255       66.796       29.513        0.195      337.473        9.472      866.834
04/20/2013  08:28:00       93.949      119.555       37.942       98.165       55.679       65.413     9636.460     3100.167     4278.801        2.078        0.851      152.052       35.518        0.055      337.140        8.912      866.800
04/20/2013  08:29:00      129.206      117.176      -15.281       67.662       59.895       49.127     4578.118     3587.439     2413.418        2.062        0.529      174.426       38.569        0.049      337.272        9.132      866.797
04/20/2013  08:30:00       73.965      134.966        3.029       82.276       73.939       60.161     6769.390     5466.956     3619.348        1.977        0.793      153.905       46.049        0.090      337.163        8.951      866.795
04/20/2013  08:31:00       51.620       43.051        9.827       51.961       38.723       32.962     2699.978     1499.461     1086.515        0.495        0.264       67.216       14.366        0.046      337.310        9.198      866.786
04/20/2013  08:32:00       33.610       52.038        4.957       31.481       33.084       30.178      991.023     1094.521      910.713        0.343        0.150       61.948       23.885        0.149      337.421        9.383      866.760
04/20/2013  08:33:00       -7.697      203.003      -19.036       34.283       98.145       34.231     1175.311     9632.469     1171.757        2.680        0.599      203.149       43.309        0.045      337.118        8.873      866.749
04/20/2013  08:34:00       15.267      166.789      -15.677       47.526       83.275       42.432     2258.687     6934.668     1800.495        1.964        0.550      167.486       42.671        0.065      337.172        8.965      866.745
04/20/2013  08:35:00       15.773      176.701      -19.160       51.474       82.266       46.532     2649.591     6767.724     2165.249        2.171        0.579      177.403       50.746        0.082      337.125        8.886      866.730
04/20/2013  08:36:00      -33.094      148.322       -8.464       74.107       50.338       40.742     5491.826     2533.886     1659.919        1.642        0.484      151.969       33.887        0.050      337.162        8.949      866.706
04/20/2013  08:37:00      -57.049      186.510      -16.297       49.337       57.797       40.831     2434.120     3340.436     1667.153        2.287        0.372      195.040       38.963        0.040      337.060        8.777      866.712
04/20/2013  08:38:00      -67.988      149.456      -10.623       57.037       72.215       39.977     3253.167     5214.941     1598.177        1.857        0.503      164.193       38.176        0.054      337.175        8.970      866.706
04/20/2013  08:39:00       13.945      158.371       -8.846       49.117       97.876       47.693     2412.474     9579.800     2274.593        1.981        0.713      158.983       47.750        0.090      337.351        9.265      866.725
04/20/2013  08:40:00      -14.955      217.479      -15.162       45.577       63.979       36.293     2077.305     4093.262     1317.176        2.762        0.374      217.993       34.187        0.025      337.069        8.793      866.738
04/20/2013  08:41:00      -57.363      249.745      -15.052       64.389       73.879       40.662     4145.887     5458.113     1653.407        3.857        0.563      256.248       36.650        0.020      337.035        8.733      866.727
04/20/2013  08:42:00      -44.650      211.931      -13.918       39.927       50.206       34.657     1594.179     2520.659     1201.104        2.621        0.266      216.584       28.642        0.017      336.925        8.551      866.725
04/20/2013  08:43:00      -34.116      149.834       -4.174       33.920       58.642       33.597     1150.592     3438.852     1128.775        1.467        0.286      153.669       30.022        0.038      337.171        8.965      866.724
04/20/2013  08:44:00      -44.598      184.851      -12.439       34.049       83.810       32.180     1159.307     7024.137     1035.533        2.276        0.461      190.155       39.063        0.042      337.025        8.719      866.719
04/20/2013  08:45:00      -33.852      116.608        0.069       66.014       64.020       43.636     4357.797     4098.554     1904.138        1.255        0.518      121.422       45.678        0.142      337.333        9.238      866.712
04/20/2013  08:46:00       -0.659      113.958        0.026       62.700       81.737       45.963     3931.301     6680.980     2112.616        1.285        0.636      113.960       41.329        0.132      337.302        9.183      866.713
04/20/2013  08:47:00       11.073      228.336      -23.629       59.258       80.383       42.485     3511.486     6461.364     1804.969        3.230        0.589      228.605       46.219        0.041      337.141        8.915      866.718
04/20/2013  08:48:00       -9.171      170.351      -20.653       64.858       61.730       39.159     4206.579     3810.654     1533.440        1.954        0.478      170.598       35.324        0.043      337.070        8.796      866.716
04/20/2013  08:49:00      -45.026      149.208       -7.668       47.534       53.630       34.784     2259.489     2876.163     1209.955        1.535        0.317      155.853       34.108        0.048      337.092        8.834      866.705
04/20/2013  08:50:00       33.601       70.756       27.653       74.885       50.557       46.585     5607.702     2556.019     2170.188        0.862        0.517       78.329       36.560        0.218      337.867       10.133      866.704
04/20/2013  08:51:00       97.262       81.785       10.025       62.772       44.832       51.641     3940.271     2009.920     2666.785        1.243        0.431      127.077       12.789        0.010      337.204        9.021      866.678
04/20/2013  08:52:00       75.567       65.360       10.318       54.707       43.648       39.839     2992.867     1905.105     1587.116        0.829        0.324       99.911       20.600        0.043      337.554        9.607      866.686
04/20/2013  08:53:00      -26.669      176.482      -27.304       59.333       54.268       32.435     3520.447     2945.028     1052.013        2.006        0.376      178.486       26.945        0.023      337.133        8.902      866.707
04/20/2013  08:54:00      -18.818      133.891       -1.646       84.634       71.279       47.795     7162.865     5080.682     2284.334        1.640        0.726      135.207       48.689        0.130      337.344        9.255      866.690
04/20/2013  08:55:00       81.466      128.158      -13.089       75.551       67.356       42.458     5707.997     4536.775     1802.685        1.764        0.602      151.859       34.933        0.053      337.283        9.151      866.689
04/20/2013  08:56:00      112.018       58.788       48.281       84.983       53.826       56.417     7222.063     2897.254     3182.825        1.582        0.665      126.507       53.062        0.176      337.364        9.288      866.665
04/20/2013  08:57:00       17.852      105.143      109.224       46.563       38.823       37.998     2168.088     1507.250     1443.864        1.421        0.256      106.647       34.501        0.105      337.257        9.109      866.656
04/20/2013  08:58:00       13.644       64.966       76.779       24.041       41.082       24.382      577.975     1687.709      594.481        0.658        0.143       66.383       23.848        0.129      337.290        9.164      866.638
04/20/2013  08:59:00        4.496       65.102       85.252       28.994       60.559       37.495      840.674     3667.340     1405.868        0.872        0.296       65.257       37.150        0.324      337.686        9.828      866.640
04/20/2013  09:00:00        4.478       38.872       76.783       33.167       44.592       30.293     1100.042     1988.479      917.641        0.572        0.200       39.129       21.049        0.289      337.982       10.325      866.653
04/20/2013  09:01:00       20.655       -4.015       55.247       39.328       68.338       41.221     1546.723     4670.072     1699.173        0.570        0.396       21.041       41.333        3.859      337.868       10.134      866.669
04/20/2013  09:02:00      -12.833      -36.399       19.660       27.479       47.174       28.800      755.069     2225.361      829.447        0.284        0.190       38.595       17.296        0.201      337.928       10.233      866.685
04/20/2013  09:03:00        0.332       46.675       25.364       41.407       45.101       30.503     1714.536     2034.083      930.425        0.375        0.234       46.676       25.631        0.302      338.624       11.403      866.663
04/20/2013  09:04:00       81.378       50.728       27.157       55.283       39.081       40.799     3056.188     1527.313     1664.540        0.809        0.312       95.894       30.786        0.103      338.010       10.372      866.646
04/20/2013  09:05:00       99.949       71.251       21.592       44.610       41.679       34.319     1990.083     1737.122     1177.807        1.022        0.245      122.746       21.464        0.031      337.366        9.291      866.621
04/20/2013  09:06:00       16.337       44.006       41.487       20.623       33.454       22.570      425.302     1119.143      509.410        0.299        0.103       46.941       17.973        0.147      337.684        9.827      866.607
04/20/2013  09:07:00        1.851       15.278       29.932       17.442       17.363       12.899      304.239      301.464      166.385        0.095        0.039       15.390       10.566        0.471      338.161       10.625      866.611
04/20/2013  09:08:00      -22.117       32.330        2.025       52.288       29.230       23.207     2734.007      854.412      538.560        0.283        0.206       39.172       14.264        0.133      337.816       10.047      866.626
04/20/2013  09:09:00      -49.161      140.252        2.348       55.729       54.041       37.785     3105.732     2920.404     1427.724        1.477        0.373      148.618       28.788        0.038      337.554        9.606      866.636
04/20/2013  09:10:00      -10.636       56.216       15.948       18.930       55.802       24.537      358.335     3113.868      602.053        0.380        0.204       57.213       23.870        0.174      338.130       10.573      866.639
04/20/2013  09:11:00      -42.477        4.048        5.470       26.487       22.046       24.927      701.585      486.035      621.339        0.183        0.090       42.669       20.444        0.230      337.480        9.483      866.618
04/20/2013  09:12:00       32.964       71.720        8.647       25.917       42.172       34.867      671.677     1778.457     1215.738        0.498        0.183       78.933       33.486        0.180      337.863       10.124      866.604
04/20/2013  09:13:00       -8.415       96.143        5.252       27.701       59.476       34.536      767.348     3537.393     1192.756        0.742        0.275       96.511       30.595        0.100      337.821       10.055      866.619
04/20/2013  09:14:00        7.152       77.061        8.836       32.084       42.394       36.658     1029.387     1797.289     1343.831        0.512        0.209       77.392       29.702        0.147      337.961       10.291      866.628
04/20/2013  09:15:00       12.691      103.808        0.247       40.341       53.000       41.782     1627.363     2809.043     1745.712        0.856        0.309      104.581       34.386        0.108      337.821       10.056      866.627
04/20/2013  09:16:00       64.100       92.820        8.014       50.930       73.388       44.637     2593.887     5385.856     1992.434        1.138        0.499      112.802       46.480        0.170      337.750        9.935      866.620
04/20/2013  09:17:00       75.473       79.016        2.911       78.333       48.287       40.736     6136.019     2331.657     1659.384        1.104        0.506      109.269       36.788        0.113      338.157       10.618      866.606
04/20/2013  09:18:00       72.184      103.469       -3.039       67.205       52.421       30.890     4516.547     2747.931      954.170        1.207        0.411      126.160       25.847        0.042      337.678        9.815      866.585
04/20/2013  09:19:00       -1.634      113.390        0.050       29.343       56.390       33.156      860.987     3179.786     1099.326        0.900        0.257      113.401       32.377        0.082      337.954       10.278      866.571
04/20/2013  09:20:00       -9.282      143.383       -8.134       29.493       46.444       33.003      869.821     2157.036     1089.179        1.241        0.206      143.683       27.917        0.038      337.846       10.097      866.551
04/20/2013  09:21:00       25.235       66.673        3.260       63.686       53.682       36.837     4055.922     2881.708     1356.995        0.669        0.415       71.289       19.898        0.078      338.018       10.385      866.522
04/20/2013  09:22:00       58.318       68.192       16.972       75.103       67.238       40.337     5640.519     4520.958     1627.087        1.006        0.589       89.728       32.200        0.129      337.835       10.078      866.508
04/20/2013  09:23:00        0.942       65.125       22.796       38.806       53.661       31.950     1505.869     2879.457     1020.832        0.508        0.270       65.132       34.136        0.275      338.269       10.807      866.502
04/20/2013  09:24:00       89.322       72.109       36.411       66.211       44.865       44.409     4383.859     2012.842     1972.131        1.143        0.418      114.796       34.921        0.093      337.944       10.258      866.506
04/20/2013  09:25:00      122.734       54.274       22.231       41.337       59.508       50.970     1708.753     3541.202     2597.990        1.317        0.392      134.199       30.113        0.050      337.748        9.931      866.524
04/20/2013  09:26:00       16.388       65.898       26.311       58.530       77.398       39.590     3425.803     5990.508     1567.399        0.814        0.549       67.905       38.346        0.319      338.391       11.011      866.528
04/20/2013  09:27:00       13.265        4.349       10.722       33.173       39.900       27.513     1100.434     1591.991      756.992        0.188        0.172       13.960       19.155        1.883      338.102       10.526      866.529
04/20/2013  09:28:00        5.452      -60.951       37.269       45.517       82.538       51.230     2071.785     6812.560     2624.497        0.832        0.575       61.194       47.190        0.595      338.055       10.446      866.518
04/20/2013  09:29:00       22.221       53.434       99.420       53.960       57.803       38.705     2911.728     3341.151     1498.068        1.049        0.388       57.871       37.740        0.425      338.355       10.951      866.499
04/20/2013  09:30:00       87.552       38.474       70.353       49.182       75.621       48.190     2418.912     5718.571     2322.324        1.228        0.523       95.633       49.105        0.264      337.897       10.182      866.470
04/20/2013  09:31:00       31.564       21.425       94.123       62.475       87.059       71.869     3903.112     7579.193     5165.141        1.348        0.832       38.149       68.361        3.211      338.439       11.092      866.439
04/20/2013  09:32:00       80.266       81.335       78.246       80.747       69.889       53.510     6520.004     4884.457     2863.308        1.672        0.713      114.272       43.862        0.147      338.010       10.369      866.426
04/20/2013  09:33:00       34.680       62.854       84.378       66.762       56.945       38.376     4457.156     3242.775     1472.731        1.072        0.459       71.787       25.038        0.122      338.353       10.947      866.405
04/20/2013  09:34:00      105.503      115.783       84.122       85.731       69.154       61.805     7349.806     4782.310     3819.913        2.378        0.798      156.642       61.921        0.156      338.125       10.561      866.400
04/20/2013  09:35:00      138.220      132.187      103.061       82.577       67.085       57.553     6819.007     4500.457     3312.383        3.091        0.732      191.254       47.922        0.063      337.744        9.921      866.399
04/20/2013  09:36:00      127.504      115.579       85.734       68.881       48.396       49.389     4744.628     2342.174     2439.320        2.324        0.476      172.093       24.727        0.021      337.717        9.878      866.390
04/20/2013  09:37:00       68.988      117.935       97.628       71.768       54.276       49.098     5150.578     2945.886     2410.651        1.935        0.525      136.631       26.268        0.037      338.244       10.762      866.388
04/20/2013  09:38:00       65.576       61.896       60.636       66.020       71.522       56.287     4358.640     5115.336     3168.191        1.222        0.632       90.174       52.051        0.333      337.901       10.190      866.391
04/20/2013  09:39:00       87.541       71.842       18.687       68.890       42.689       36.191     4745.872     1822.392     1309.777        1.052        0.394      113.246       30.902        0.074      337.803       10.024      866.386
04/20/2013  09:40:00       97.993       83.695       13.278       75.167       47.774       43.371     5650.108     2282.379     1881.024        1.330        0.491      128.870       21.628        0.028      337.977       10.315      866.370
04/20/2013  09:41:00       24.610       12.344       55.744       42.798       49.795       31.153     1831.655     2479.527      970.507        0.457        0.264       27.533       13.793        0.251      338.652       11.450      866.363
04/20/2013  09:42:00       75.542       -4.996       62.693       65.482       97.388       57.759     4287.930     9484.453     3336.067        1.338        0.855       75.707       46.491        0.377      338.189       10.672      866.341
04/20/2013  09:43:00       77.739       31.737       55.578       97.577       97.996       48.798     9521.287     9603.209     2381.250        1.582        1.075       83.968       33.171        0.156      338.405       11.034      866.320
04/20/2013  09:44:00      209.465      138.335        9.217       60.430       43.493       46.301     3651.759     1891.628     2143.752        3.539        0.384      251.022       10.060        0.002      337.760        9.946      866.327
04/20/2013  09:45:00      157.792      119.235       12.788       81.401       55.633       49.382     6626.051     3095.045     2438.575        2.572        0.608      197.776       30.057        0.023      337.951       10.271      866.313
04/20/2013  09:46:00      107.579       60.074       38.032       52.835       57.006       49.065     2791.539     3249.723     2407.382        1.254        0.422      123.215       29.773        0.058      338.202       10.693      866.316
04/20/2013  09:47:00       96.245       58.876       15.325       46.891       36.737       39.278     2198.805     1349.631     1542.737        0.903        0.255      112.825       16.848        0.022      338.067       10.466      866.313
04/20/2013  09:48:00      -16.306      135.556      -18.106       42.619       56.824       32.729     1816.353     3228.915     1071.220        1.254        0.306      136.533       31.050        0.052      337.987       10.332      866.328
04/20/2013  09:49:00       12.506       51.902       19.353       56.267       68.003       32.124     3165.943     4624.430     1031.938        0.602        0.441       53.388       26.333        0.243      338.709       11.546      866.332
04/20/2013  09:50:00       -0.266       16.931       28.562       20.418       26.636       19.544      416.903      709.455      381.979        0.131        0.075       16.933       13.388        0.625      338.907       11.878      866.335
04/20/2013  09:51:00      -36.953      -14.789       -7.766       30.734       23.799       19.443      944.587      566.376      378.017        0.177        0.094       39.802       17.850        0.201      338.220       10.724      866.334
04/20/2013  09:52:00      -30.328       -4.905       10.025       35.848       26.671       24.309     1285.109      711.321      590.906        0.182        0.129       30.722       15.869        0.267      338.629       11.412      866.322
04/20/2013  09:53:00       -0.258       28.183       19.330       46.163       31.724       27.938     2131.055     1006.413      780.552        0.254        0.196       28.185       12.972        0.212      338.692       11.516      866.320
04/20/2013  09:54:00       26.810      -10.198      -18.942       20.929       30.253       23.062      438.032      915.237      531.854        0.153        0.094       28.684       20.845        0.528      337.875       10.145      866.313
04/20/2013  09:55:00       77.396       55.234       10.680       36.734       37.056       35.702     1349.374     1373.117     1274.651        0.658        0.200       95.084       17.872        0.035      338.318       10.886      866.310
04/20/2013  09:56:00       31.479       27.151        2.519       43.601       54.028       29.444     1901.078     2918.977      866.949        0.371        0.284       41.570       17.680        0.181      338.562       11.298      866.324
04/20/2013  09:57:00       72.766       12.317       19.667       41.107       48.313       30.554     1689.807     2334.192      933.527        0.539        0.248       73.801       17.896        0.059      338.446       11.104      866.315
04/20/2013  09:58:00       52.244       61.112       47.391       47.199       38.905       37.299     2227.705     1513.602     1391.212        0.692        0.257       80.400       27.195        0.114      338.550       11.277      866.294
04/20/2013  09:59:00       29.682       17.989        2.235       71.729       73.713       47.882     5145.054     5433.596     2292.655        0.704        0.644       34.708       23.552        0.460      338.602       11.365      866.262
04/20/2013  10:00:00      -57.246      -50.703        8.034       39.705       39.669       32.589     1576.453     1573.654     1062.037        0.506        0.211       76.472       19.142        0.063      338.516       11.220      866.235
04/20/2013  10:01:00       43.031      -40.073       21.383       79.103       96.394       48.488     6257.281     9291.801     2351.067        1.090        0.895       58.800       34.888        0.352      338.837       11.759      866.205
04/20/2013  10:02:00       48.859      -14.679       35.377       48.611       77.399       39.104     2363.053     5990.617     1529.158        0.687        0.494       51.017       29.454        0.333      338.587       11.339      866.191
04/20/2013  10:03:00       41.083       31.504       78.066       48.786       64.851       32.915     2380.090     4205.658     1083.418        0.822        0.383       51.771       24.089        0.216      338.756       11.624      866.188
04/20/2013  10:04:00      106.372       82.854       69.772       95.596       54.745       45.889     9138.522     2996.978     2105.784        1.864        0.712      134.832       43.172        0.103      338.560       11.293      866.196
04/20/2013  10:05:00      107.320       74.749       74.498       66.816       54.754       56.806     4464.322     2998.029     3226.940        1.667        0.534      130.786       32.246        0.061      338.279       10.822      866.186
04/20/2013  10:06:00       41.873      -61.018       45.611       60.639      100.011       53.056     3677.029    10002.190     2814.929        1.202        0.825       74.004       50.922        0.473      338.695       11.521      866.179
04/20/2013  10:07:00       62.708       72.831       92.829       89.587       72.308       62.971     8025.792     5228.452     3965.314        1.753        0.861       96.107       58.328        0.368      338.691       11.515      866.171
04/20/2013  10:08:00       61.113     -140.733       -8.481       88.113      125.152       80.839     7763.944    15662.975     6534.993        2.678        1.498      153.429       70.101        0.209      338.526       11.236      866.160
04/20/2013  10:09:00      127.934     -128.058       -6.704       86.383      104.160       57.692     7462.104    10849.308     3328.360        2.722        1.082      181.013       65.397        0.131      338.292       10.843      866.169
04/20/2013  10:10:00       -8.907       30.527       71.447       38.185       61.168       45.144     1458.088     3741.483     2037.944        0.668        0.362       31.800       36.899        1.346      338.961       11.969      866.176
04/20/2013  10:11:00       70.062       10.345       63.195       85.359      117.822       71.362     7286.208    13882.121     5092.518        1.763        1.313       70.821       82.432        1.355      338.617       11.390      866.169
04/20/2013  10:12:00       51.609        5.177       54.015       62.726       94.647       55.145     3934.589     8958.121     3040.997        1.077        0.797       51.868       66.522        1.645      338.816       11.726      866.153
04/20/2013  10:13:00      -21.307       44.018       91.953       39.201       74.795       46.073     1536.688     5594.277     2122.745        1.005        0.463       48.904       43.103        0.777      338.943       11.939      866.131
04/20/2013  10:14:00      -21.721       33.369       92.125       32.316       55.014       40.873     1044.313     3026.584     1670.590        0.791        0.287       39.816       39.960        1.007      339.271       12.491      866.121
04/20/2013  10:15:00      -18.209        2.544       60.020       36.092       55.181       44.681     1302.643     3044.994     1996.352        0.514        0.317       18.386       39.930        4.717      339.223       12.409      866.130
04/20/2013  10:16:00       97.747      105.936       95.955      105.335      115.058       80.277    11095.371    13238.415     6444.394        3.038        1.539      144.142       76.184        0.279      338.560       11.293      866.111
04/20/2013  10:17:00      166.567      118.267       73.682       75.294       62.153       61.414     5669.194     3863.042     3771.645        3.023        0.665      204.283       47.400        0.054      338.077       10.480      866.132
04/20/2013  10:18:00       95.513      121.916       94.516       68.454       60.093       63.968     4685.994     3611.223     4091.876        2.265        0.619      154.875       52.799        0.116      338.308       10.870      866.129
04/20/2013  10:19:00       40.538       -1.717       17.319       48.149       71.297       41.608     2318.365     5083.215     1731.205        0.554        0.457       40.574       29.700        0.536      338.651       11.447      866.128
04/20/2013  10:20:00       43.301      -94.164       22.216       56.382       93.844       55.732     3178.977     8806.626     3106.007        1.316        0.755      103.643       60.414        0.340      338.787       11.674      866.111
04/20/2013  10:21:00       72.419       18.011       85.869       89.188       72.802       59.267     7954.450     5300.132     3512.576        1.485        0.838       74.625       52.251        0.490      339.173       12.325      866.080
04/20/2013  10:22:00      106.033      108.788       95.631      109.635       69.688       53.705    12019.915     4856.438     2884.193        2.599        0.988      151.913       55.786        0.135      338.871       11.815      866.091
04/20/2013  10:23:00      219.013      121.689       46.771       95.542       74.214       56.849     9128.284     5507.742     3231.758        4.141        0.893      250.550       41.136        0.027      338.410       11.042      866.108
04/20/2013  10:24:00      232.820      137.022       46.777       72.646       58.007       58.688     5277.452     3364.780     3444.240        4.363        0.604      270.149       37.282        0.019      338.165       10.628      866.110
04/20/2013  10:25:00      168.688       95.786       19.599       91.754       72.737       65.602     8418.797     5290.680     4303.638        2.801        0.901      193.986       54.279        0.078      338.203       10.693      866.108
04/20/2013  10:26:00      177.558      118.417       20.751       69.448       60.946       56.457     4823.067     3714.404     3187.400        2.885        0.586      213.423       28.753        0.018      338.481       11.160      866.109
04/20/2013  10:27:00      121.051       73.241       14.275       82.673       55.831       40.491     6834.868     3117.135     1639.482        1.590        0.580      141.483       31.941        0.051      338.559       11.292      866.120
04/20/2013  10:28:00       -6.778      239.397      -25.489       45.151       68.292       38.872     2038.573     4663.856     1511.001        3.311        0.411      239.493       38.512        0.026      338.241       10.755      866.102
04/20/2013  10:29:00       -4.811      148.501       -0.126       41.194       84.977       43.220     1696.937     7221.007     1867.985        1.643        0.539      148.579       48.656        0.107      338.795       11.688      866.115
04/20/2013  10:30:00      -10.914      130.552        8.256       40.258       79.129       38.346     1620.668     6261.469     1470.449        1.329        0.468      131.008       39.596        0.091      338.939       11.930      866.113
04/20/2013  10:31:00      -24.558        6.771       48.386       54.113       74.439       45.523     2928.172     5541.213     2072.324        0.676        0.527       25.474       29.671        1.357      339.278       12.503      866.105
04/20/2013  10:32:00      -27.610      -71.246       10.931       84.493       80.877       60.964     7139.119     6541.022     3716.660        1.167        0.870       76.409       65.067        0.725      338.677       11.492      866.124
04/20/2013  10:33:00       94.334      -85.457       -0.040       73.790       95.972       66.884     5445.019     9210.579     4473.417        1.766        0.956      127.286       73.950        0.338      338.866       11.807      866.117
04/20/2013  10:34:00       31.517      -38.236       25.499       49.238       79.891       43.202     2424.399     6382.559     1866.373        0.689        0.534       49.551       42.364        0.731      338.855       11.792      866.119
04/20/2013  10:35:00       40.496      -58.626       38.624       61.083       76.352       54.783     3731.085     5829.593     3001.185        0.956        0.628       71.253       56.115        0.620      339.435       12.767      866.104
04/20/2013  10:36:00      121.234      138.593      127.917       95.679       94.766       87.359     9154.419     8980.652     7631.610        3.801        1.288      184.135       79.204        0.185      338.419       11.055      866.077
04/20/2013  10:37:00      165.828       91.218       41.036       61.006       78.741       59.061     3721.789     6200.143     3488.225        2.545        0.671      189.261       37.089        0.038      338.436       11.085      866.092
04/20/2013  10:38:00      107.526       16.314       18.731       59.125       86.327       49.091     3495.746     7452.425     2409.956        1.277        0.668      108.756       50.530        0.216      338.485       11.167      866.082
04/20/2013  10:39:00        8.100       59.739       60.474       46.109       62.691       68.988     2126.012     3930.151     4759.346        0.905        0.541       60.286       51.316        0.725      339.356       12.634      866.065
04/20/2013  10:40:00      -63.146     -115.817       19.328       58.727      130.117       66.102     3448.816    16930.327     4369.472        2.126        1.237      131.913       82.097        0.387      339.034       12.092      866.074
04/20/2013  10:41:00       -6.902       11.299       57.989       67.176       66.342       48.323     4512.558     4401.268     2335.140        0.739        0.562       13.240       48.311       13.314      339.153       12.292      866.066
04/20/2013  10:42:00       38.267       82.742       81.902       70.607       47.591       64.391     4985.296     2264.939     4146.159        1.321        0.570       91.162       58.597        0.413      339.142       12.273      866.087
04/20/2013  10:43:00       76.976        5.837       39.533       69.319       82.760       54.056     4805.063     6849.145     2922.077        1.105        0.729       77.197       47.404        0.377      339.177       12.333      866.066
04/20/2013  10:44:00      113.932       73.483       20.717       69.339       55.349       51.453     4807.879     3063.498     2647.375        1.466        0.526      135.574       35.409        0.068      339.185       12.344      866.069
04/20/2013  10:45:00       82.476       39.787       21.253       84.575       64.866       56.888     7152.943     4207.616     3236.214        1.171        0.730       91.571       36.902        0.162      339.347       12.617      866.049
04/20/2013  10:46:00       81.779       86.530       51.049      107.522       57.067       75.392    11561.008     3256.663     5683.966        1.864        1.025      119.060       59.981        0.254      339.387       12.686      866.057
04/20/2013  10:47:00       84.560      142.267      128.945      100.085       79.162       89.254    10016.943     6266.614     7966.283        3.413        1.212      165.500       79.628        0.231      338.976       11.992      866.050
04/20/2013  10:48:00      251.463      149.915       74.627      105.110       67.071       86.766    11048.163     4498.561     7528.378        5.717        1.154      292.760       71.533        0.060      338.481       11.158      866.033
04/20/2013  10:49:00      211.143      151.927       52.543       76.536       62.719       62.585     5857.729     3933.664     3916.825        4.206        0.685      260.121       38.856        0.022      338.604       11.366      866.055
04/20/2013  10:50:00      168.072      105.286        6.216       71.923       49.020       48.182     5172.873     2402.922     2321.529        2.463        0.495      198.326       29.338        0.022      338.700       11.527      866.050
04/20/2013  10:51:00       25.924       31.084       32.036       41.052       40.494       35.087     1685.306     1639.780     1231.117        0.361        0.228       40.476       25.299        0.391      339.492       12.862      866.040
04/20/2013  10:52:00      116.150      117.564       67.136      122.540       62.845       68.199    15016.047     3949.432     4651.113        2.771        1.181      165.264       75.090        0.206      338.985       12.008      866.029
04/20/2013  10:53:00       63.394       96.786        6.137       72.259       63.790       51.475     5221.420     4069.182     2649.630        1.268        0.597      115.699       40.737        0.124      338.901       11.867      866.043
04/20/2013  10:54:00       62.498       49.366       12.996       55.033       46.443       39.855     3028.622     2156.936     1588.385        0.664        0.339       79.643       22.745        0.082      339.063       12.139      866.032
04/20/2013  10:55:00      103.933       70.613       22.216       50.234       39.821       37.339     2523.474     1585.713     1394.215        1.089        0.275      125.651       18.039        0.021      338.790       11.683      866.038
04/20/2013  10:56:00       41.060      103.819      -10.765       39.444       53.542       31.215     1555.794     2866.697      974.362        0.899        0.270      111.644       22.609        0.041      338.897       11.861      866.033
04/20/2013  10:57:00      102.488       33.136       22.725       94.935       85.829       50.014     9012.644     7366.577     2501.449        1.550        0.944      107.711       32.670        0.092      339.014       12.056      866.036
04/20/2013  10:58:00      104.077       63.964        9.200       65.695       51.523       52.953     4315.851     2654.616     2803.983        1.239        0.489      122.161       23.097        0.036      339.069       12.151      866.040
04/20/2013  10:59:00       57.389        1.421       31.916       35.990       58.774       39.045     1295.301     3454.400     1524.486        0.529        0.314       57.407       33.084        0.332      339.210       12.388      866.044
04/20/2013  11:00:00       51.315      -29.537       42.314       42.963       33.424       32.318     1845.803     1117.142     1044.463        0.465        0.200       59.208       16.871        0.081      339.191       12.356      866.040
04/20/2013  11:01:00       14.235      -26.130       21.278       19.525       32.975       20.604      381.232     1087.345      424.526        0.162        0.095       29.756       18.755        0.397      339.312       12.561      866.036
04/20/2013  11:02:00       91.464       67.153       35.634       48.727       42.069       24.339     2374.331     1769.796      592.367        0.944        0.237      113.469       11.859        0.011      339.218       12.402      866.031
04/20/2013  11:03:00       93.736       27.895       31.980       47.111       54.089       51.172     2219.458     2925.650     2618.576        0.917        0.388       97.799       24.994        0.065      339.174       12.328      866.031
04/20/2013  11:04:00      153.218       91.922       12.852       71.627       58.870       49.080     5130.400     3465.675     2408.837        2.155        0.550      178.677       32.854        0.034      339.348       12.617      866.027
04/20/2013  11:05:00      171.563      106.571       22.652       46.729       37.137       35.982     2183.605     1379.158     1294.711        2.308        0.243      201.969       19.657        0.009      338.713       11.550      866.029
04/20/2013  11:06:00      119.886       79.836       11.269       42.417       48.415       36.594     1799.180     2344.054     1339.116        1.318        0.274      144.036       18.966        0.017      338.748       11.610      866.022
04/20/2013  11:07:00       48.789        7.370       56.943       67.711       97.388       60.919     4584.796     9484.463     3711.098        1.173        0.889       49.342       50.551        1.050      339.535       12.936      866.000
04/20/2013  11:08:00       51.811        5.355       38.545       83.394       63.023       57.599     6954.476     3971.901     3317.681        0.922        0.712       52.087       23.320        0.200      339.446       12.784      865.994
04/20/2013  11:09:00       46.932       18.155       80.299       63.899      108.200       76.263     4083.031    11707.150     5816.044        1.529        1.080       50.321       85.269        2.871      339.459       12.808      865.970
04/20/2013  11:10:00       94.774     -102.248       17.314       83.009      100.629       63.354     6890.485    10126.266     4013.762        2.038        1.052      139.415       71.415        0.262      339.185       12.344      865.979
04/20/2013  11:11:00       29.750      -41.778       34.759       74.215      127.671       66.484     5507.822    16299.977     4420.058        1.503        1.311       51.288       67.015        1.707      339.376       12.666      865.991
04/20/2013  11:12:00       65.906       90.381       91.493       69.957       53.547       47.999     4893.977     2867.291     2303.878        1.547        0.503      111.858       35.410        0.100      339.509       12.891      865.989
04/20/2013  11:13:00        5.023      -17.294       53.764       46.719       62.773       45.530     2182.703     3940.456     2073.005        0.570        0.410       18.008       38.784        4.638      339.852       13.470      865.996
04/20/2013  11:14:00       59.938       58.023       51.343       48.459       31.773       46.419     2348.304     1009.540     2154.734        0.755        0.276       83.422       27.327        0.107      339.086       12.179      865.989
04/20/2013  11:15:00      -22.951      -11.051       29.842       48.091       59.156       39.810     2312.742     3499.439     1584.857        0.447        0.370       25.473       42.349        2.764      339.773       13.336      865.983
04/20/2013  11:16:00        2.171      -85.398       -8.076       62.763       61.392       36.230     3939.155     3769.037     1312.632        0.819        0.451       85.426       23.872        0.078      339.634       13.101      865.976
04/20/2013  11:17:00      -10.427       -7.679       30.019       37.832       38.566       33.142     1431.280     1487.327     1098.403        0.254        0.201       12.949       22.318        2.970      339.975       13.678      865.970
04/20/2013  11:18:00       -1.588      -44.126       52.770       42.740       64.577       44.753     1826.750     4170.200     2002.831        0.637        0.400       44.154       42.900        0.944      339.847       13.461      865.971
04/20/2013  11:19:00      -39.142      -32.850       14.470       40.710       44.608       27.740     1657.322     1989.843      769.481        0.362        0.221       51.100       32.834        0.413      339.566       12.990      865.974
04/20/2013  11:20:00       -8.676       -2.274       46.527       28.961       34.646       44.149      838.724     1200.374     1949.107        0.312        0.199        8.969       30.050       11.225      339.986       13.697      865.977
04/20/2013  11:21:00       -6.409      -43.084       -1.651       30.871       41.707       33.407      952.999     1739.486     1116.021        0.285        0.190       43.558       27.276        0.392      339.170       12.321      865.970
04/20/2013  11:22:00       -4.155      -42.506        3.838       40.494       54.454       31.973     1639.731     2965.190     1022.266        0.373        0.281       42.709       21.282        0.248      339.505       12.883      865.964
04/20/2013  11:23:00        0.036      -36.567       -7.734       30.063       32.005       31.377      903.802     1024.294      984.501        0.215        0.146       36.567       17.947        0.241      339.260       12.471      865.947
04/20/2013  11:24:00      -67.309      -54.053        2.446       51.951       40.186       21.175     2698.911     1614.945      448.386        0.611        0.238       86.326       23.342        0.073      339.109       12.218      865.938
04/20/2013  11:25:00     -125.400      -26.688       -1.527       38.466       39.975       29.452     1479.609     1597.973      867.446        1.019        0.197      128.208       25.887        0.041      338.963       11.973      865.930
04/20/2013  11:26:00      -79.577      -59.872        5.506       49.821       57.977       34.366     2482.164     3361.295     1181.000        0.848        0.351       99.585       31.671        0.101      339.239       12.437      865.932
04/20/2013  11:27:00      -41.838      -53.237       -3.383       45.554       35.513       28.161     2075.184     1261.158      793.033        0.436        0.206       67.710       15.446        0.052      339.252       12.458      865.924
04/20/2013  11:28:00      -32.294      -25.479        6.444       25.822       33.561       21.975      666.769     1126.325      482.917        0.200        0.114       41.135       13.090        0.101      339.703       13.218      865.908
04/20/2013  11:29:00       -9.070      -22.713        7.525       38.771       42.736       28.593     1503.182     1826.407      817.584        0.240        0.207       24.457       26.176        1.146      340.193       14.045      865.880
04/20/2013  11:30:00        6.696      -27.563       17.794       43.977       39.299       41.201     1933.982     1544.376     1697.484        0.315        0.259       28.365       23.311        0.675      340.254       14.148      865.872
04/20/2013  11:31:00      -23.802       39.216       65.914       20.902       35.819       32.061      436.882     1283.029     1027.916        0.460        0.137       45.874       25.803        0.316      340.458       14.494      865.854
04/20/2013  11:32:00       25.530      -30.311       50.603       47.197       77.755       59.479     2227.511     6045.892     3537.740        0.797        0.591       39.630       54.001        1.857      340.443       14.468      865.823
04/20/2013  11:33:00       13.702       -6.904       44.864       48.588       70.567       58.216     2360.812     4979.705     3389.097        0.649        0.536       15.344       55.060       12.877      339.725       13.256      865.833
04/20/2013  11:34:00        8.556      -17.276       29.323       39.790       62.072       41.519     1583.238     3852.874     1723.855        0.419        0.358       19.278       43.005        4.976      339.657       13.141      865.815
04/20/2013  11:35:00       15.344       81.120       91.318       46.237       48.788       36.556     2137.879     2380.224     1336.348        1.050        0.293       82.558       21.208        0.066      340.166       13.999      865.798
04/20/2013  11:36:00        8.527       77.296      125.207       51.568       85.017       54.897     2659.240     7227.820     3013.663        1.731        0.645       77.765       52.056        0.448      340.195       14.048      865.794
04/20/2013  11:37:00      106.508       66.884       88.580       65.418       78.137       51.290     4279.545     6105.438     2630.712        1.834        0.651      125.767       47.101        0.140      339.625       13.087      865.806
04/20/2013  11:38:00       61.196       43.931        7.894       46.218       71.692       30.982     2136.088     5139.692      959.896        0.699        0.412       75.332       19.368        0.066      339.348       12.620      865.806
04/20/2013  11:39:00       19.472       97.971       -8.024       36.837       81.771       39.888     1356.995     6686.499     1591.027        0.984        0.482       99.888       42.675        0.183      339.565       12.986      865.787
04/20/2013  11:40:00       -7.542       43.216      -23.594       21.673       21.747       21.668      469.732      472.936      469.519        0.195        0.071       43.869       14.366        0.107      339.163       12.309      865.783
04/20/2013  11:41:00       21.164       29.282       36.454       36.062       26.009       26.112     1300.452      676.485      681.835        0.265        0.133       36.130       13.937        0.149      339.974       13.675      865.760
04/20/2013  11:42:00       18.435       58.377        7.875       45.900       51.619       41.814     2106.832     2664.528     1748.379        0.516        0.326       61.219       36.153        0.349      340.107       13.902      865.740
04/20/2013  11:43:00       21.295       40.662       11.185       39.157       21.331       27.521     1533.246      455.002      757.415        0.249        0.137       45.901       13.197        0.083      339.868       13.496      865.721
04/20/2013  11:44:00       -7.472        3.192       17.301       32.498       29.233       22.959     1056.103      854.596      527.096        0.140        0.122        8.125       12.800        2.482      340.475       14.521      865.698
04/20/2013  11:45:00        2.065      -46.795       17.413       34.199       57.473       34.747     1169.558     3303.113     1207.333        0.409        0.284       46.840       35.092        0.561      340.107       13.899      865.676
04/20/2013  11:46:00      -49.651      -74.702       -9.008       23.491       32.668       17.468      551.807     1067.230      305.136        0.503        0.096       89.697        8.927        0.010      339.364       12.647      865.659
04/20/2013  11:47:00      -50.292      -34.822       -3.768       31.812       22.244       17.741     1011.983      494.810      314.749        0.279        0.091       61.171        7.605        0.015      339.549       12.957      865.650
04/20/2013  11:48:00      -45.448       -9.866       36.690       44.010       59.971       43.929     1936.901     3596.467     1929.801        0.548        0.373       46.507       49.773        1.145      340.252       14.146      865.626
04/20/2013  11:49:00       73.483      109.448       93.081       87.637       79.760       59.952     7680.253     6361.614     3594.260        2.184        0.882      131.827       50.165        0.145      339.808       13.392      865.609
04/20/2013  11:50:00       39.193      -93.317       31.346       91.288      146.020       60.110     8333.466    21321.940     3613.223        2.224        1.663      101.214       77.905        0.592      340.060       13.820      865.590
04/20/2013  11:51:00      129.672       93.596       40.797       80.673       43.126       56.248     6508.176     1859.888     3163.824        1.938        0.577      159.922       52.072        0.106      339.878       13.514      865.575
04/20/2013  11:52:00       95.443      131.763      -10.059       79.062       59.165       46.407     6250.785     3500.502     2153.632        1.924        0.595      162.699       38.891        0.057      339.816       13.408      865.550
04/20/2013  11:53:00       43.700      123.032       -3.557       68.821       72.261       52.349     4736.317     5221.628     2740.464        1.488        0.635      130.562       42.709        0.107      339.916       13.577      865.531
04/20/2013  11:54:00       81.251       48.123       14.334       64.907       44.966       42.062     4212.975     2021.942     1769.228        0.856        0.400       94.432       25.596        0.073      340.295       14.217      865.506
04/20/2013  11:55:00      108.897       71.465       76.945      107.325       62.910       66.805    11518.551     3957.664     4462.857        2.141        0.997      130.252       46.652        0.128      340.317       14.253      865.479
04/20/2013  11:56:00      135.012      113.443       91.788       68.775       54.406       57.280     4729.954     2959.996     3280.944        2.524        0.549      176.345       39.275        0.050      339.873       13.503      865.467
04/20/2013  11:57:00       67.864      -10.090       31.298       69.199       54.053       36.583     4788.523     2921.757     1338.346        0.737        0.452       68.610       43.734        0.406      340.257       14.154      865.447
04/20/2013  11:58:00       93.043       80.589       26.672       83.639       52.126       42.356     6995.552     2717.149     1793.998        1.368        0.575      123.092       37.530        0.093      340.130       13.937      865.413
04/20/2013  11:59:00      130.663       84.865       47.641       61.082       56.207       52.360     3730.984     3159.215     2741.546        1.809        0.482      155.804       37.155        0.057      339.987       13.695      865.385
04/20/2013  12:00:00       53.355       17.447       60.537       42.294       52.177       39.563     1788.816     2722.419     1565.201        0.645        0.304       56.135       37.273        0.441      340.046       13.797      865.373
04/20/2013  12:01:00      -41.005       65.780        5.905       86.142       54.990       36.636     7420.462     3023.901     1342.224        0.891        0.589       77.514       49.707        0.411      339.969       13.667      865.307
04/20/2013  12:02:00       26.257       49.497       56.247       49.995       40.436       40.320     2499.468     1635.095     1625.709        0.603        0.288       56.030       21.840        0.152      340.457       14.492      865.294
04/20/2013  12:03:00       87.075       73.710       39.346       69.070       73.811       49.697     4770.661     5448.042     2469.823        1.362        0.634      114.084       36.990        0.105      339.922       13.586      865.270
04/20/2013  12:04:00       -9.416      -49.220       19.470       36.025       75.974       44.060     1297.816     5772.063     1941.256        0.595        0.451       50.112       16.023        0.102      340.414       14.418      865.251
04/20/2013  12:05:00       -3.662      -51.882       33.004       41.603       76.503       49.815     1730.800     5852.659     2481.542        0.693        0.503       52.011       40.867        0.617      340.875       15.198      865.249
04/20/2013  12:06:00      -44.229      -34.408        7.772       48.863       44.505       30.198     2387.624     1980.718      911.931        0.424        0.264       56.037       26.582        0.225      340.736       14.964      865.251
04/20/2013  12:07:00      -74.869      -95.694      -11.661       38.666       55.373       24.859     1495.075     3066.121      617.952        1.004        0.259      121.502       20.201        0.028      339.706       13.224      865.253
04/20/2013  12:08:00      -25.004        0.497        7.178       34.476       33.813       25.614     1188.597     1143.322      656.052        0.183        0.149       25.009       12.256        0.240      340.304       14.233      865.242
04/20/2013  12:09:00      -39.799       13.276       19.494       38.746       28.986       24.961     1501.285      840.207      623.071        0.255        0.148       41.955       24.053        0.329      340.909       15.257      865.215
04/20/2013  12:10:00       -6.268        5.437       15.434       66.495       32.310       22.764     4421.602     1043.919      518.187        0.314        0.299        8.298        9.886        1.420      340.472       14.516      865.196
04/20/2013  12:11:00       77.946       58.269       33.026       39.313       42.170       29.194     1545.481     1778.321      852.298        0.737        0.209       97.318       16.998        0.031      339.994       13.709      865.164
04/20/2013  12:12:00      -50.018        1.754        6.206       50.914       37.564       29.221     2592.226     1411.022      853.859        0.370        0.243       50.049       30.696        0.376      340.370       14.345      865.121
04/20/2013  12:13:00       -9.908        0.227       32.677       40.419       54.679       28.173     1633.665     2989.754      793.731        0.329        0.271        9.910       26.980        7.412      341.030       15.461      865.080
04/20/2013  12:14:00      -49.027      -31.906       13.485       70.535       49.362       35.934     4975.215     2436.632     1291.259        0.615        0.435       58.495       22.434        0.147      340.693       14.890      865.044
04/20/2013  12:15:00      -43.177      -55.497       14.607       80.349       57.214       35.054     6455.884     3273.408     1228.803        0.806        0.548       70.315       31.338        0.199      340.675       14.859      865.029
04/20/2013  12:16:00     -118.184      -61.011        1.243       64.548       50.269       30.306     4166.417     2526.985      918.438        1.265        0.381      133.003       22.164        0.028      340.213       14.078      865.019
04/20/2013  12:17:00     -123.185      -50.921        0.711       69.292       58.567       29.056     4801.317     3430.141      844.251        1.342        0.454      133.294       34.514        0.067      340.227       14.101      865.000
04/20/2013  12:18:00     -145.385      -10.160       -1.049       60.995       44.452       31.882     3720.376     1975.986     1016.488        1.398        0.336      145.739       32.208        0.049      340.077       13.848      865.008
04/20/2013  12:19:00      -31.021      -46.107        7.907       44.212       47.645       25.842     1954.730     2270.048      667.829        0.402        0.245       55.572       26.148        0.221      340.548       14.645      865.007
04/20/2013  12:20:00      -35.218      -84.367        2.518       35.603       61.932       21.862     1267.603     3835.616      477.947        0.697        0.279       91.422       16.302        0.032      340.397       14.389      865.012
04/20/2013  12:21:00      -93.184       -6.027        0.022       36.495       49.265       22.112     1331.858     2427.086      488.930        0.648        0.212       93.378       19.024        0.042      340.412       14.414      865.025
04/20/2013  12:22:00      -29.619       54.817      -37.134       37.803       30.120       18.628     1429.070      907.185      347.017        0.397        0.134       62.307       12.085        0.038      340.131       13.942      865.021
04/20/2013  12:23:00      -23.586       -9.667        2.679       48.097       41.069       33.742     2313.337     1686.703     1138.510        0.290        0.257       25.490       16.538        0.421      340.522       14.601      865.027
04/20/2013  12:24:00       98.293       51.037       36.860       63.508       45.289       42.868     4033.293     2051.049     1837.668        1.077        0.396      110.753       26.512        0.057      340.717       14.931      865.013
04/20/2013  12:25:00       76.759       68.325       40.201       57.111       39.020       38.262     3261.723     1522.578     1463.946        0.921        0.312      102.763       33.408        0.106      340.631       14.784      864.989
04/20/2013  12:26:00       76.682       37.073        4.011       77.798       56.233       39.670     6052.491     3162.128     1573.748        0.903        0.539       85.173       19.191        0.051      340.903       15.243      864.991
04/20/2013  12:27:00       43.658       39.062       54.716       63.591       65.853       51.821     4043.849     4336.585     2685.425        0.874        0.553       58.582       40.025        0.467      340.810       15.087      864.976
04/20/2013  12:28:00      139.658       99.594       46.175       65.468       52.836       56.995     4286.063     2791.667     3248.406        2.094        0.516      171.532       35.913        0.044      340.435       14.451      864.971
04/20/2013  12:29:00       44.254       58.423       23.245       61.953       32.838       32.654     3838.129     1078.367     1066.263        0.595        0.299       73.291       15.826        0.047      340.895       15.233      864.969
04/20/2013  12:30:00       55.013      -22.050       15.009       55.140       54.193       30.687     3040.391     2936.865      941.664        0.533        0.346       59.267       22.574        0.145      340.472       14.518      864.960
04/20/2013  12:31:00       62.204      -61.549       26.259       76.163       78.517       48.036     5800.841     6164.979     2307.464        1.131        0.714       87.508       50.523        0.333      340.455       14.488      864.949
04/20/2013  12:32:00       63.062      -39.560       41.701       57.238       81.386       53.156     3276.145     6623.639     2825.509        1.000        0.636       74.443       62.243        0.699      340.757       14.999      864.923
04/20/2013  12:33:00       43.145      -77.182       20.361       57.384       75.641       50.958     3292.903     5721.558     2596.741        0.992        0.581       88.423       52.151        0.348      340.728       14.948      864.903
04/20/2013  12:34:00      123.162     -168.572      -43.994      109.763      130.527       70.413    12047.982    17037.257     4957.930        3.978        1.702      208.771       76.053        0.133      340.636       14.790      864.865
04/20/2013  12:35:00      134.576     -143.889      -27.448       51.841       70.160       48.951     2687.530     4922.368     2396.218        2.479        0.500      197.015       33.508        0.029      340.327       14.269      864.858
04/20/2013  12:36:00       45.402      -61.071       17.964       35.513       64.063       32.086     1261.200     4104.017     1029.512        0.625        0.320       76.099       27.953        0.135      340.506       14.575      864.869
04/20/2013  12:37:00       53.607      121.105       -1.056       67.935       72.035       55.051     4615.212     5189.021     3030.612        1.519        0.642      132.439       47.632        0.129      340.569       14.679      864.860
04/20/2013  12:38:00       55.592       41.614       22.405       61.150       46.531       41.216     3739.355     2165.114     1698.779        0.646        0.380       69.442       29.990        0.187      340.653       14.823      864.835
04/20/2013  12:39:00      134.168      115.053        6.531      108.874       71.715       59.906    11853.533     5143.079     3588.765        2.593        1.029      176.744       47.101        0.071      340.818       15.099      864.804
04/20/2013  12:40:00      201.271      132.749       -8.431       67.803       38.587       43.842     4597.278     1488.985     1922.095        3.310        0.400      241.107       23.720        0.010      340.343       14.295      864.811
04/20/2013  12:41:00      154.727      100.107       10.764       59.616       38.784       38.665     3554.035     1504.201     1495.001        2.031        0.328      184.287       30.224        0.027      340.278       14.186      864.807
04/20/2013  12:42:00      -10.429       38.191        2.858       50.217       37.656       24.238     2521.748     1418.001      587.478        0.305        0.226       39.589       18.616        0.221      340.544       14.638      864.789
04/20/2013  12:43:00      138.801       86.434       18.525       71.180       51.704       46.772     5066.543     2673.319     2187.640        1.850        0.496      163.513       29.035        0.032      340.568       14.677      864.790
04/20/2013  12:44:00       71.455       35.597        1.008       41.407       41.658       36.873     1714.556     1735.386     1359.649        0.559        0.240       79.830       21.722        0.074      340.366       14.339      864.786
04/20/2013  12:45:00      110.010       46.029       41.476       75.982       70.944       46.803     5773.298     5033.052     2190.493        1.447        0.650      119.251       46.004        0.149      340.678       14.864      864.793
04/20/2013  12:46:00       38.090      -54.704        8.974       54.858       62.624       44.494     3009.424     3921.772     1979.705        0.672        0.446       66.659       18.552        0.077      340.668       14.847      864.754
04/20/2013  12:47:00       59.827       39.974        4.779       82.094       52.492       27.319     6739.407     2755.396      746.311        0.772        0.512       71.953       14.024        0.038      340.870       15.189      864.769
04/20/2013  12:48:00      126.170       59.584       18.959       82.569       50.527       51.339     6817.647     2552.962     2635.680        1.592        0.600      139.532       31.711        0.052      341.092       15.565      864.777
04/20/2013  12:49:00       49.833       48.577        6.037       58.087       62.318       39.956     3374.075     3883.471     1596.519        0.687        0.443       69.592       30.600        0.193      341.069       15.528      864.774
04/20/2013  12:50:00       23.091      211.327      -28.185       62.552      100.200       48.773     3912.807    10039.994     2378.806        3.116        0.817      212.585       50.377        0.056      340.739       14.964      864.752
04/20/2013  12:51:00       28.082      162.339      -11.770       49.297       67.010       52.414     2430.179     4490.396     2747.254        1.847        0.483      164.750       44.665        0.073      340.787       15.049      864.752
04/20/2013  12:52:00       34.574      105.545        0.390       53.522       55.134       40.113     2864.583     3039.720     1609.055        0.992        0.376      111.064       31.424        0.080      340.878       15.204      864.740
04/20/2013  12:53:00       48.085       62.633       11.775       42.008       36.101       41.601     1764.648     1303.269     1730.663        0.559        0.240       78.963       23.118        0.086      340.639       14.798      864.729
04/20/2013  12:54:00      -36.989        3.744      -12.991       32.101       25.564       25.541     1030.490      653.505      652.365        0.194        0.117       37.178       10.108        0.074      340.636       14.794      864.703
04/20/2013  12:55:00      -28.485        8.545       12.222       43.011       29.431       25.409     1849.913      866.175      645.620        0.220        0.168       29.739       21.612        0.528      341.311       15.936      864.687
04/20/2013  12:56:00       27.293       16.728       38.753       40.195       33.149       32.265     1615.634     1098.887     1041.026        0.314        0.188       32.012       32.382        1.023      341.274       15.873      864.670
04/20/2013  12:57:00       44.535       42.290       31.544       34.999       34.329       39.877     1224.925     1178.476     1590.205        0.438        0.200       61.415       12.608        0.042      340.866       15.183      864.670
04/20/2013  12:58:00        0.244       83.734       11.016       31.648       50.097       31.219     1001.585     2509.699      974.651        0.581        0.224       83.735       32.761        0.153      341.324       15.960      864.664
04/20/2013  12:59:00      -26.445       85.236       -0.410       59.306       62.255       29.320     3517.257     3875.649      859.688        0.811        0.413       89.244       24.701        0.077      341.245       15.824      864.652
04/20/2013  13:00:00     -119.691       98.282      -13.300       50.702       50.209       42.817     2570.701     2520.945     1833.259        1.554        0.346      154.872       42.974        0.077      340.913       15.262      864.614
04/20/2013  13:01:00     -123.981       68.149      -19.636       38.088       30.010       20.003     1450.718      900.589      400.109        1.158        0.138      141.476        9.786        0.005      340.651       14.820      864.588
04/20/2013  13:02:00     -102.122       46.127      -13.467       52.482       35.265       33.648     2754.384     1243.622     1132.164        0.893        0.257      112.056       31.430        0.079      341.235       15.806      864.543
04/20/2013  13:03:00       17.536       42.576       38.124       70.330       41.893       40.994     4946.289     1755.059     1680.515        0.598        0.419       46.046       42.477        0.851      341.511       16.275      864.530
04/20/2013  13:04:00       33.192       -1.029       -2.619       50.622       40.626       23.082     2562.558     1650.504      532.759        0.293        0.237       33.208       18.741        0.318      340.938       15.304      864.518
04/20/2013  13:05:00      149.982       73.726       20.521       81.602       65.853       49.543     6658.897     4336.623     2454.553        2.090        0.673      167.123       38.385        0.053      341.095       15.567      864.491
04/20/2013  13:06:00       38.411       75.993       13.093       55.853       55.786       38.960     3119.504     3112.081     1517.869        0.758        0.387       85.149       21.050        0.061      341.714       16.620      864.491
04/20/2013  13:07:00       30.030      173.415      -21.952       80.322       88.677       51.780     6451.628     7863.625     2681.190        2.422        0.850      175.996       47.918        0.074      341.109       15.593      864.490
04/20/2013  13:08:00      -51.727      155.185       -1.168       53.204       91.997       43.569     2830.693     8463.439     1898.296        1.997        0.660      163.579       51.991        0.101      341.472       16.207      864.486
04/20/2013  13:09:00      -99.914      261.718      -33.091       73.002       94.629       46.135     5329.282     8954.727     2128.393        4.799        0.821      280.141       40.464        0.021      341.093       15.562      864.459
04/20/2013  13:10:00      -13.412      255.311      -23.802       56.474       87.088       42.472     3189.295     7584.285     1803.876        3.925        0.629      255.663       36.795        0.021      340.976       15.366      864.460
04/20/2013  13:11:00      -21.500      255.523      -19.420       40.853      118.306       47.435     1668.932    13996.296     2250.036        4.202        0.896      256.426       62.226        0.059      341.094       15.566      864.442
04/20/2013  13:12:00      -35.534      191.430      -11.006       42.714       81.959       39.730     1824.485     6717.317     1578.475        2.407        0.506      194.701       44.968        0.053      341.364       16.024      864.444
04/20/2013  13:13:00        5.565      190.465       -5.988       67.718      100.814       51.668     4585.686    10163.427     2669.611        2.688        0.871      190.547       57.834        0.092      341.590       16.407      864.444
04/20/2013  13:14:00       80.742       68.796       14.099       90.693       72.143       50.680     8225.244     5204.609     2568.438        1.372        0.800      106.076       36.922        0.121      341.477       16.216      864.418
04/20/2013  13:15:00      140.105      126.563      -11.777      120.572       82.534       63.778    14537.490     6811.819     4067.667        3.060        1.271      188.806       49.499        0.069      341.467       16.198      864.390
04/20/2013  13:16:00      130.033      103.166       29.054       76.088       43.222       43.522     5789.443     1868.110     1894.159        1.897        0.478      165.987       37.558        0.051      340.971       15.359      864.376
04/20/2013  13:17:00       19.788      117.380        6.173       59.228       59.472       49.903     3507.910     3536.912     2490.345        1.187        0.477      119.037       45.187        0.144      341.283       15.890      864.377
04/20/2013  13:18:00        2.190       67.014       24.030       35.831       65.868       40.405     1283.868     4338.536     1632.577        0.616        0.363       67.050       43.445        0.420      341.711       16.613      864.363
04/20/2013  13:19:00       65.606       46.556        9.582       38.983       29.712       29.188     1519.660      882.823      851.933        0.491        0.163       80.446       22.952        0.081      341.434       16.146      864.359
04/20/2013  13:20:00       51.011       16.901        8.481       27.471       45.051       28.184      754.642     2029.569      794.320        0.327        0.179       53.738       14.693        0.075      341.357       16.014      864.350
04/20/2013  13:21:00      157.357      110.482       24.762       91.595       84.444       53.996     8389.586     7130.805     2915.539        2.801        0.922      192.269       27.040        0.020      341.444       16.158      864.339
04/20/2013  13:22:00       89.964      130.452      115.594      104.440       84.775       57.679    10907.702     7186.856     3326.909        2.994        1.071      158.466       43.597        0.076      341.680       16.560      864.323
04/20/2013  13:23:00       47.126       76.192       69.361       81.702       91.752       64.017     6675.147     8418.450     4098.125        1.601        0.960       89.588       60.090        0.450      341.913       16.955      864.338
04/20/2013  13:24:00        8.617       86.227      106.721       57.342       79.532       73.274     3288.090     6325.353     5369.013        1.694        0.749       86.657       60.348        0.485      341.833       16.820      864.327
04/20/2013  13:25:00      169.426      135.661       94.230       48.798       51.478       60.296     2381.272     2650.028     3635.620        3.233        0.433      217.046       43.606        0.040      340.969       15.352      864.337
04/20/2013  13:26:00      133.916       71.131       35.478       97.395       70.287       62.573     9485.807     4940.208     3915.357        2.129        0.917      151.635       40.263        0.071      341.415       16.109      864.338
04/20/2013  13:27:00      110.319       22.138       12.847       31.035       57.027       33.442      963.180     3252.134     1118.364        0.908        0.267      112.518       25.042        0.050      340.888       15.220      864.358
04/20/2013  13:28:00       62.254      -83.282        0.103       78.056       96.169       39.626     6092.692     9248.523     1570.192        1.386        0.846      103.978       57.464        0.305      341.183       15.716      864.330
04/20/2013  13:29:00       41.579     -166.514       -8.510       57.630       71.081       25.534     3321.188     5052.468      651.997        1.928        0.451      171.627       12.214        0.005      340.890       15.221      864.328
04/20/2013  13:30:00     -115.656     -124.202       -8.015       66.564       55.288       43.027     4430.782     3056.733     1851.347        1.910        0.467      169.713       34.784        0.042      341.264       15.853      864.279
04/20/2013  13:31:00       20.332       -0.523       36.992       37.895       35.583       32.781     1436.043     1266.116     1074.576        0.278        0.189       20.339       17.280        0.722      342.091       17.258      864.261
04/20/2013  13:32:00      115.493       65.767       17.264      105.198      109.179       46.340    11066.658    11920.106     2147.408        2.154        1.257      132.905       37.569        0.080      341.655       16.517      864.241
04/20/2013  13:33:00       95.255       99.615       48.185       73.030       43.273       56.842     5333.440     1872.551     3231.053        1.588        0.522      137.828       32.194        0.055      341.464       16.194      864.236
04/20/2013  13:34:00      168.286      100.404       19.806       94.235       75.731       49.604     8880.243     5735.222     2460.552        2.793        0.854      195.963       31.935        0.027      341.571       16.373      864.235
04/20/2013  13:35:00        4.585      -28.582       10.568       33.898       36.423       22.632     1149.077     1326.648      512.217        0.197        0.149       28.947        9.589        0.110      341.490       16.240      864.210
04/20/2013  13:36:00        6.042      -12.939       13.197       53.193       59.440       37.695     2829.532     3533.064     1420.886        0.408        0.389       14.280       33.103        5.374      342.027       17.149      864.164
04/20/2013  13:37:00        8.574       64.040        9.483       49.881       57.235       36.333     2488.085     3275.876     1320.122        0.567        0.354       64.611       37.793        0.342      341.853       16.854      864.139
04/20/2013  13:38:00       -0.346       21.929       63.843       41.446       85.087       67.445     1717.759     7239.810     4548.770        0.903        0.675       21.931       54.511        6.178      342.441       17.854      864.088
04/20/2013  13:39:00       77.339      -55.504       86.485      102.577      149.074      101.195    10522.142    22223.052    10240.491        2.976        2.149       95.194      106.440        1.250      341.820       16.796      864.045
04/20/2013  13:40:00       88.558       71.887       57.813       58.193       76.548       54.463     3386.459     5859.576     2966.269        1.428        0.611      114.063       31.703        0.077      341.756       16.690      864.114
04/20/2013  13:41:00      141.812      104.053        4.464       77.806       56.913       53.888     6053.817     3239.124     2903.886        2.158        0.610      175.891       20.453        0.014      342.152       17.359      864.104
04/20/2013  13:42:00       -4.639      -73.622        9.551       46.481       67.681       40.212     2160.524     4580.686     1616.976        0.694        0.418       73.769       26.387        0.128      341.821       16.802      864.100
04/20/2013  13:43:00       -6.701       -4.863        4.893       25.902       31.672       32.608      670.931     1003.125     1063.310        0.141        0.137        8.279       19.474        5.532      341.874       16.891      864.087
04/20/2013  13:44:00      166.659       70.579       24.494       91.853       69.390       46.557     8437.011     4815.029     2167.569        2.439        0.771      180.988       28.358        0.025      341.759       16.694      864.081
04/20/2013  13:45:00       85.771       88.035        7.080       84.349       82.145       39.959     7114.705     6747.760     1596.756        1.531        0.773      122.910       18.753        0.023      341.726       16.639      864.088
04/20/2013  13:46:00       48.629       24.016       52.928       72.255       63.325       46.014     5220.724     4010.087     2117.281        0.854        0.567       54.236       34.348        0.401      342.064       17.213      864.056
04/20/2013  13:47:00      128.882       62.071       12.217      126.072       79.442       51.192    15894.151     6310.959     2620.631        2.272        1.241      143.050       30.425        0.045      341.493       16.243      864.053
04/20/2013  13:48:00      135.320       84.336       16.726       81.419       44.810       47.690     6629.123     2007.908     2274.361        1.831        0.546      159.449       21.676        0.018      341.437       16.148      864.053
04/20/2013  13:49:00      -52.629      195.768      -22.221       52.590       86.219       40.464     2765.685     7433.649     1637.358        2.671        0.592      202.719       40.692        0.040      341.646       16.502      864.021
04/20/2013  13:50:00     -105.636      107.903      -17.888       62.001       89.251       41.478     3844.093     7965.667     1720.397        1.832        0.677      151.004       30.893        0.042      341.741       16.662      864.004
04/20/2013  13:51:00      -35.532      101.177        8.600       69.362       61.391       45.848     4811.104     3768.907     2102.072        1.113        0.534      107.235       46.333        0.187      342.186       17.419      863.994
04/20/2013  13:52:00      -17.374      104.935       16.663       38.835       66.401       48.213     1508.120     4409.079     2324.518        0.991        0.412      106.364       47.867        0.203      342.070       17.224      863.980
04/20/2013  13:53:00       35.485       73.963       22.998       63.341       50.526       43.984     4012.124     2552.830     1934.624        0.788        0.425       82.035       30.576        0.139      342.155       17.368      863.964
04/20/2013  13:54:00      127.735      111.473       42.071      118.884       99.883       71.126    14133.360     9976.681     5058.976        2.984        1.458      169.536       46.334        0.075      342.144       17.348      863.951
04/20/2013  13:55:00      247.909      132.806       27.263      101.560       69.316       72.762    10314.431     4804.679     5294.332        5.012        1.021      281.241       43.880        0.024      341.763       16.698      863.931
04/20/2013  13:56:00      220.592      169.298       40.555      105.331       70.962       65.043    11094.599     5035.674     4230.595        4.966        1.018      278.069       42.740        0.024      341.613       16.444      863.924
04/20/2013  13:57:00       74.228       90.020        5.750       78.015       55.911       58.686     6086.364     3126.057     3444.046        1.315        0.633      116.676       41.463        0.126      341.624       16.467      863.927
04/20/2013  13:58:00       88.090       97.268       89.689      102.926       87.311       62.556    10593.704     7623.238     3913.231        2.369        1.107      131.228       59.766        0.207      341.822       16.802      863.904
04/20/2013  13:59:00      192.357       96.046       67.348      152.776      102.679       66.217    23340.415    10542.988     4384.757        4.451        1.913      215.002       46.673        0.047      341.906       16.942      863.905
04/20/2013  14:00:00      101.772       81.758       92.876       79.613       61.782       65.604     6338.282     3817.007     4303.899        2.006        0.723      130.544       33.546        0.066      341.865       16.873      863.903
04/20/2013  14:01:00       67.639      -34.434       39.616       85.806      129.104       65.870     7362.636    16667.860     4338.798        1.784        1.418       75.899       63.794        0.706      341.993       17.090      863.905
04/20/2013  14:02:00      125.623       24.100       65.558      113.345      101.447       65.530    12847.026    10291.446     4294.123        2.404        1.372      127.914       48.765        0.145      341.761       16.696      863.921
04/20/2013  14:03:00       78.662       24.485       24.448       89.285       50.599       50.277     7971.747     2560.244     2527.802        1.022        0.653       82.384       26.885        0.106      341.831       16.818      863.940
04/20/2013  14:04:00      105.117       57.799       39.241       51.687       70.414       44.939     2671.497     4958.201     2019.470        1.279        0.482      119.960       13.768        0.013      341.816       16.791      863.947
04/20/2013  14:05:00       82.319       93.768       53.030       73.835       82.724       86.292     5451.679     6843.186     7446.224        1.906        0.987      124.775       43.902        0.124      341.932       16.987      863.917
04/20/2013  14:06:00       64.229       -1.757       37.738       86.247      113.452       61.070     7438.593    12871.404     3729.506        1.479        1.202       64.253       57.149        0.791      341.916       16.961      863.884
04/20/2013  14:07:00       67.572       68.953       44.201       57.009       63.880       65.895     3249.996     4080.694     4342.091        1.147        0.584       96.543       48.756        0.255      341.888       16.914      863.859
04/20/2013  14:08:00      106.904       56.939       38.593       72.921       94.494       46.512     5317.446     8929.197     2163.346        1.628        0.820      121.122       39.253        0.105      342.090       17.253      863.810
04/20/2013  14:09:00      162.732       81.125       44.818      114.420       98.173       61.327    13091.841     9637.978     3760.977        3.078        1.325      181.832       37.345        0.042      342.249       17.523      863.768
04/20/2013  14:10:00      112.482      109.105       94.878      101.690       85.565       75.424    10340.793     7321.383     5688.792        2.845        1.168      156.704       64.511        0.169      341.973       17.056      863.761
04/20/2013  14:11:00      150.352       53.028       41.473      113.120       58.615       48.465    12796.246     3435.689     2348.828        2.286        0.929      159.430       43.041        0.073      341.997       17.097      863.748
04/20/2013  14:12:00      115.342      125.606      110.970      127.239       81.838       71.965    16189.683     6697.454     5178.997        3.473        1.403      170.530       54.266        0.101      342.196       17.434      863.738
04/20/2013  14:13:00      166.864      113.601       15.345      143.655      133.635       65.960    20636.823    17858.379     4350.749        4.191        2.142      201.864       53.396        0.070      342.143       17.344      863.732
04/20/2013  14:14:00      136.392      129.922       64.872      143.211       99.356       95.447    20509.477     9871.646     9110.087        3.958        1.975      188.368       71.031        0.142      342.428       17.828      863.736
04/20/2013  14:15:00      100.246       92.306       95.042      121.308      115.649       82.509    14715.511    13374.663     6807.688        3.124        1.745      136.270       63.168        0.215      341.752       16.680      863.731
04/20/2013  14:16:00      141.156       87.582       20.933      113.617       77.485       57.906    12908.835     6003.938     3353.149        2.515        1.113      166.120       26.195        0.025      342.058       17.201      863.754
04/20/2013  14:17:00       70.852      196.269        0.412       78.843      134.910       77.394     6216.148    18200.583     5989.892        3.697        1.520      208.666       79.893        0.147      341.951       17.019      863.781
04/20/2013  14:18:00      135.826      116.270        6.040       91.063       80.645       57.646     8292.447     6503.653     3323.022        2.506        0.906      178.794       29.505        0.027      341.729       16.642      863.826
04/20/2013  14:19:00       54.741      -60.454       11.749       37.769       54.321       39.691     1426.461     2950.783     1575.348        0.637        0.298       81.556       23.782        0.085      341.597       16.421      863.809
04/20/2013  14:20:00       48.430     -146.912       -6.244       51.476       46.014       32.646     2649.807     2117.277     1065.739        1.490        0.292      154.689       19.054        0.015      341.421       16.120      863.783
04/20/2013  14:21:00       59.875     -149.011        2.762       80.013      121.597       44.010     6402.049    14785.731     1936.844        2.446        1.156      160.591       48.561        0.091      342.098       17.268      863.741
04/20/2013  14:22:00       74.219       33.205      102.104       85.353      133.634      112.078     7285.162    17858.001    12561.410        2.736        1.885       81.308       99.855        1.508      341.999       17.101      863.714
04/20/2013  14:23:00      173.781      160.701      105.390      121.255       70.232       73.909    14702.824     4932.482     5462.496        4.611        1.255      236.695       63.304        0.072      341.949       17.013      863.708
04/20/2013  14:24:00      123.239      106.212       57.073       95.283       69.763       67.050     9078.912     4866.808     4495.661        2.408        0.922      162.693       63.352        0.152      341.954       17.023      863.707
04/20/2013  14:25:00      106.965       98.848       76.066       98.646       71.486       52.338     9731.026     5110.243     2739.298        2.229        0.879      145.645       22.958        0.025      341.923       16.972      863.686
04/20/2013  14:26:00      123.296       90.562       32.036       94.647       77.626       61.690     8957.996     6025.741     3805.666        2.161        0.939      152.982       46.446        0.092      342.034       17.159      863.674
04/20/2013  14:27:00       32.538       -7.663       -4.938       72.054      111.724       34.162     5191.797    12482.162     1167.059        0.999        0.942       33.429       18.425        0.304      341.909       16.950      863.634
04/20/2013  14:28:00       59.268      -24.041       44.948       72.517       89.878       53.332     5258.744     8078.038     2844.321        1.114        0.809       63.958       59.417        0.863      341.735       16.655      863.608
04/20/2013  14:29:00      174.025      122.566       43.589       82.840       95.246       62.367     6862.470     9071.873     3889.685        3.351        0.991      212.855       41.532        0.038      342.445       17.858      863.564
04/20/2013  14:30:00      145.290      137.534       88.677      157.083       97.514       99.037    24675.009     9509.020     9808.344        4.593        2.200      200.061       82.912        0.172      342.839       18.527      863.548
04/20/2013  14:31:00      128.273      129.158       90.025      146.162      104.513       97.779    21363.425    10923.063     9560.799        4.154        2.092      182.032       57.466        0.100      342.051       17.188      863.558
04/20/2013  14:32:00       53.858       95.487      115.549       74.527       75.573       62.458     5554.241     5711.318     3900.988        2.027        0.758      109.629       56.352        0.264      342.431       17.834      863.570
04/20/2013  14:33:00       79.144       75.231       74.099       86.950       78.124       62.470     7560.285     6103.302     3902.476        1.749        0.878      109.195       38.601        0.125      342.270       17.561      863.586
04/20/2013  14:34:00       71.353      107.810      120.139       78.070       83.543       67.592     6094.954     6979.504     4568.643        2.439        0.882      129.283       51.642        0.160      342.277       17.574      863.568
04/20/2013  14:35:00      145.498       67.747       55.947       68.648       60.333       61.094     4712.522     3640.120     3732.465        2.049        0.604      160.497       39.335        0.060      341.370       16.033      863.584
04/20/2013  14:36:00       48.184       -0.302       13.003       27.128       23.188       36.077      735.940      537.664     1301.578        0.253        0.129       48.185       18.621        0.149      341.456       16.181      863.572
04/20/2013  14:37:00       39.573        3.014        4.858       30.335       23.043       29.495      920.233      530.980      869.955        0.196        0.116       39.688       14.020        0.125      341.756       16.690      863.555
04/20/2013  14:38:00      110.348       47.356       27.156       96.113       66.152       35.955     9237.770     4376.081     1292.762        1.503        0.745      120.080       18.044        0.023      342.235       17.503      863.536
04/20/2013  14:39:00      175.968      110.467       15.155       60.074       41.968       44.098     3608.871     1761.303     1944.665        2.535        0.366      207.768       29.514        0.020      341.765       16.702      863.503
04/20/2013  14:40:00       85.156       84.824       16.371       65.211       51.943       43.997     4252.441     2698.109     1935.707        1.180        0.444      120.194       24.921        0.043      341.987       17.081      863.490
04/20/2013  14:41:00       25.488       54.722       14.955       32.683       53.549       41.516     1068.209     2867.523     1723.568        0.476        0.283       60.367       35.217        0.340      342.175       17.401      863.476
04/20/2013  14:42:00       49.594        0.449      -20.071       52.750       81.890       33.997     2782.521     6705.935     1155.790        0.675        0.532       49.596       25.931        0.273      341.900       16.935      863.463
04/20/2013  14:43:00      103.553       50.343       35.498       91.882       62.052       40.358     8442.332     3850.459     1628.797        1.422        0.696      115.142       22.794        0.039      342.280       17.578      863.438
04/20/2013  14:44:00      138.839       73.859       36.544      107.955       95.991       60.000    11654.203     9214.321     3600.046        2.526        1.223      157.262       10.209        0.004      342.407       17.793      863.414
04/20/2013  14:45:00      141.321      125.867       59.168       85.123       59.445       55.780     7245.847     3533.715     3111.356        2.660        0.695      189.246       41.313        0.048      342.061       17.204      863.417
04/20/2013  14:46:00       75.804       37.852       47.790      101.741       89.975       52.089    10351.294     8095.558     2713.288        1.531        1.058       84.729       44.241        0.273      341.909       16.948      863.419
04/20/2013  14:47:00       61.020       61.338       53.330       65.092       53.406       36.123     4236.969     2852.169     1304.839        0.936        0.420       86.520       29.418        0.116      342.067       17.216      863.398
04/20/2013  14:48:00       69.223       48.137       35.859       73.751       66.592       59.260     5439.167     4434.493     3511.742        1.089        0.669       84.314       28.188        0.112      342.643       18.197      863.393
04/20/2013  14:49:00      164.374      108.759       19.453       91.072       70.489       61.493     8294.099     4968.685     3781.349        2.813        0.852      197.097       32.358        0.027      342.166       17.383      863.396
04/20/2013  14:50:00      339.960      196.999       45.862      125.020       77.614       72.094    15630.101     6023.870     5197.611        9.166        1.343      392.914       25.167        0.004      342.025       17.142      863.372
04/20/2013  14:51:00      195.397      127.243       56.979       96.882       93.201       79.649     9386.153     8686.473     6343.909        4.101        1.221      233.175       45.565        0.038      342.363       17.717      863.363
04/20/2013  14:52:00       86.572      114.483       97.334       94.958       71.932       71.350     9017.100     5174.236     5090.785        2.468        0.964      143.531       67.428        0.221      342.352       17.699      863.339
04/20/2013  14:53:00      149.396       38.018        5.989       69.607       60.301       42.031     4845.136     3636.179     1766.563        1.702        0.512      154.158       14.244        0.009      342.260       17.543      863.339
04/20/2013  14:54:00       48.625       42.004       75.105       71.318       71.788       56.257     5086.231     5153.470     3164.841        1.158        0.670       64.255       49.617        0.596      342.299       17.613      863.312
04/20/2013  14:55:00      109.689       76.683       52.737       75.964       58.413       46.740     5770.466     3412.126     2184.616        1.603        0.568      133.835       30.706        0.053      342.139       17.337      863.316
04/20/2013  14:56:00       86.518       63.315       55.499       99.877       89.691       62.462     9975.374     8044.537     3901.559        1.824        1.096      107.211       44.805        0.175      342.236       17.502      863.289
04/20/2013  14:57:00       47.826       19.054       52.004       88.075       78.355       65.990     7757.125     6139.494     4354.694        1.180        0.913       51.482       55.072        1.144      342.277       17.574      863.278
04/20/2013  14:58:00      101.262       83.938      123.619       89.624      101.767       70.074     8032.383    10356.492     4910.344        2.794        1.165      131.528       67.435        0.263      341.693       16.583      863.271
04/20/2013  14:59:00      177.124      135.075       87.112       96.238       71.936       72.728     9261.767     5174.830     5289.345        3.846        0.986      222.751       50.808        0.052      341.986       17.078      863.258
04/20/2013  15:00:00       65.432      -19.902       62.394       86.787      106.737       81.732     7531.979    11392.791     6680.187        1.708        1.280       68.391       62.172        0.826      342.412       17.803      863.221
04/20/2013  15:01:00       93.983       73.944       91.142       96.863      123.815       74.147     9382.522    15330.182     5497.811        2.640        1.511      119.585       51.343        0.184      342.349       17.695      863.238
04/20/2013  15:02:00       71.328      136.620      163.980       96.702      107.439       75.388     9351.226    11543.235     5683.421        3.861        1.329      154.120       69.578        0.204      342.097       17.264      863.261
04/20/2013  15:03:00      129.369      187.018      167.058      127.132      106.859       83.349    16162.481    11418.777     6947.032        5.707        1.726      227.403       77.519        0.116      341.773       16.715      863.247
04/20/2013  15:04:00      118.971      -29.406       51.546      107.136      152.016       86.149    11478.230    23108.858     7421.655        2.984        2.100      122.551      110.979        0.820      341.837       16.824      863.257
04/20/2013  15:05:00       77.063     -180.986        7.211       51.764      114.444       43.454     2679.465    13097.345     1888.239        2.820        0.883      196.709       41.059        0.044      342.100       17.271      863.214
04/20/2013  15:06:00       29.830        2.745       33.240       34.595       30.023       28.719     1196.806      901.369      824.767        0.246        0.146       29.956       11.947        0.159      342.359       17.713      863.219
04/20/2013  15:07:00       57.346      -41.320       11.314       62.472       81.973       52.155     3902.692     6719.620     2720.162        0.923        0.667       70.682       42.824        0.367      342.041       17.174      863.192
04/20/2013  15:08:00      173.443     -162.445       -4.832       88.438      141.045       66.621     7821.349    19893.826     4438.337        4.432        1.608      237.636       85.639        0.130      342.130       17.323      863.157
04/20/2013  15:09:00      112.398       97.205       75.803      118.207       67.613       59.666    13972.994     4571.534     3559.997        2.496        1.105      148.601       52.892        0.127      342.328       17.659      863.191
04/20/2013  15:10:00      252.686      184.988       36.680      111.175       66.207       66.668    12359.887     4383.324     4444.557        6.030        1.059      313.163       60.352        0.037      342.146       17.349      863.190
04/20/2013  15:11:00      106.050       93.487       20.592      103.117       75.454       59.014    10633.173     5693.339     3482.648        2.011        0.990      141.374       38.006        0.072      342.492       17.939      863.186
04/20/2013  15:12:00       75.461       88.752       20.591       87.368       66.718       55.491     7633.106     4451.345     3079.243        1.458        0.758      116.496       46.440        0.159      342.372       17.737      863.173
04/20/2013  15:13:00       39.668       59.580       12.619       52.733       52.369       45.409     2780.778     2742.461     2061.993        0.643        0.379       71.578       35.121        0.241      342.503       17.958      863.144
04/20/2013  15:14:00      102.482      140.756       43.661      133.865       98.745      103.090    17919.924     9750.654    10627.457        3.525        1.915      174.112       35.840        0.042      342.643       18.195      863.123
04/20/2013  15:15:00      147.386      139.005      152.094      109.288      141.746      101.553    11943.906    20091.812    10313.028        5.326        2.117      202.595      104.827        0.268      342.301       17.612      863.101
04/20/2013  15:16:00      183.129      199.473      173.551      102.990      107.056       77.135    10606.856    11461.072     5949.853        6.573        1.401      270.787       52.554        0.038      342.263       17.546      863.093
04/20/2013  15:17:00      209.532      157.602      113.577      123.449       95.011       83.432    15239.696     9027.104     6960.873        5.643        1.561      262.187       78.446        0.090      341.958       17.028      863.096
04/20/2013  15:18:00      136.989       90.805       86.215      110.215      128.512       77.078    12147.273    16515.325     5941.006        3.452        1.730      164.352       57.832        0.124      342.209       17.455      863.074
04/20/2013  15:19:00       64.593      -66.998       45.347      109.771      133.507       76.807    12049.765    17824.055     5899.324        2.324        1.789       93.064       78.655        0.714      342.565       18.063      863.041
04/20/2013  15:20:00       88.010      -14.613       67.764      119.185      103.713       62.310    14205.067    10756.383     3882.497        2.069        1.442       89.215       65.709        0.542      342.757       18.388      863.010
04/20/2013  15:21:00      109.759     -135.168       -7.841       90.094      130.378       52.511     8116.924    16998.324     2757.448        2.912        1.394      174.119       54.410        0.098      342.582       18.089      863.008
04/20/2013  15:22:00       42.257       49.870       77.213       80.240       77.023       68.859     6438.434     5932.543     4741.626        1.367        0.856       65.366       64.683        0.979      342.643       18.195      863.004
04/20/2013  15:23:00       85.081       69.307       87.707      101.010      104.812       77.286    10203.101    10985.507     5973.154        2.344        1.358      109.737       60.451        0.303      342.508       17.965      862.995
04/20/2013  15:24:00      121.811      116.637      129.427      115.343      114.314       83.405    13304.069    13067.618     6956.457        3.926        1.666      168.648       88.733        0.277      342.317       17.638      862.982
04/20/2013  15:25:00       86.408       65.410       72.876       77.803       72.739       52.763     6053.279     5290.933     2783.984        1.559        0.706      108.373       39.575        0.133      342.727       18.337      862.963
04/20/2013  15:26:00       70.378       36.847       29.610       60.364       64.703       51.972     3643.769     4186.428     2701.067        0.886        0.527       79.440       25.329        0.102      342.906       18.643      862.964
04/20/2013  15:27:00       88.382       20.038      104.620       96.181       79.666       59.815     9250.738     6346.712     3577.893        1.916        0.959       90.625       48.925        0.291      342.538       18.016      862.927
04/20/2013  15:28:00       80.689       49.174       43.559       74.415       67.239       39.313     5537.631     4521.017     1545.522        1.121        0.580       94.493       44.503        0.222      342.455       17.876      862.931
04/20/2013  15:29:00       15.143      -15.271       32.632       56.554       97.142       34.969     3198.329     9436.487     1222.830        0.769        0.693       21.506       33.981        2.497      342.668       18.239      862.925
04/20/2013  15:30:00       75.826       53.206       60.557       68.321       70.083       61.416     4667.773     4911.680     3771.865        1.280        0.668       92.631       47.201        0.260      342.684       18.264      862.932
04/20/2013  15:31:00       87.951       64.286       70.001       74.294       78.538       55.410     5519.629     6168.226     3070.296        1.576        0.738      108.941       44.284        0.165      342.687       18.270      862.916
04/20/2013  15:32:00       60.582      111.782      110.320       92.610       84.946       70.775     8576.667     7215.764     5009.107        2.457        1.040      127.143       67.885        0.285      342.224       17.481      862.894
04/20/2013  15:33:00        3.316        1.497      -11.179       40.879       64.787       36.197     1671.122     4197.399     1310.222        0.366        0.359        3.638       12.930       12.631      342.442       17.855      862.870
04/20/2013  15:34:00       35.671       70.113        3.666       37.236       40.191       29.830     1386.530     1615.312      889.809        0.505        0.195       78.666       27.862        0.125      342.694       18.282      862.848
04/20/2013  15:35:00       23.873       21.258       28.090       78.166       66.505       62.705     6109.884     4422.880     3931.910        0.814        0.723       31.966       50.312        2.477      342.764       18.401      862.831
04/20/2013  15:36:00      168.259      108.883       50.854      115.630       83.967       94.065    13370.364     7050.501     8848.261        3.601        1.463      200.416       78.299        0.153      342.510       17.968      862.794
04/20/2013  15:37:00      100.307       93.170       79.497      136.460       99.551       64.877    18621.371     9910.424     4209.033        2.890        1.637      136.902       57.095        0.174      342.590       18.103      862.780
04/20/2013  15:38:00      178.709      160.987       70.341      102.002      102.055       92.824    10404.488    10415.219     8616.207        4.611        1.472      240.528       58.935        0.060      342.469       17.897      862.785
04/20/2013  15:39:00      150.550      130.546      115.977      149.950      131.003      110.566    22484.856    17161.681    12224.734        5.251        2.594      199.268       98.650        0.245      342.552       18.040      862.744
04/20/2013  15:40:00      186.068      147.513       79.268      111.794       84.607       85.814    12497.913     7158.322     7364.013        4.484        1.351      237.448       62.636        0.070      342.835       18.519      862.766
04/20/2013  15:41:00      120.743      107.660       64.915       94.143       64.014       59.171     8862.827     4097.799     3501.214        2.342        0.823      161.770       41.783        0.067      342.686       18.269      862.794
04/20/2013  15:42:00      115.435       29.728       17.336       80.364       88.860       51.153     6458.298     7896.156     2616.679        1.574        0.849      119.201       19.687        0.027      342.532       18.006      862.785
04/20/2013  15:43:00       97.938     -108.591       24.393       70.525       85.741       54.521     4973.846     7351.545     2972.487        1.864        0.765      146.233       55.380        0.143      342.572       18.075      862.756
04/20/2013  15:44:00        6.627      -45.067       34.315       36.489       68.939       47.251     1331.457     4752.536     2232.699        0.578        0.416       45.552       28.861        0.401      342.776       18.421      862.747
04/20/2013  15:45:00       54.429     -113.093       11.727       75.146       85.708       46.160     5646.862     7345.911     2130.734        1.550        0.756      125.509       48.284        0.148      342.627       18.169      862.721
04/20/2013  15:46:00       40.212      -94.763       -3.613       51.029       57.388       35.589     2604.000     3293.439     1266.563        0.889        0.358      102.942       26.664        0.067      342.630       18.174      862.715
04/20/2013  15:47:00      102.995     -196.016      -14.034       60.452       49.067       43.056     3654.482     2407.563     1853.815        2.857        0.396      221.428       39.067        0.031      342.615       18.144      862.693
04/20/2013  15:48:00       48.408      -33.975       43.934       62.836       76.516       55.533     3948.421     5854.670     3083.870        0.916        0.644       59.141       41.129        0.484      342.948       18.714      862.670
04/20/2013  15:49:00       74.765      -86.268      -11.016       57.265       57.543       37.729     3279.239     3311.207     1423.447        1.058        0.401      114.158       36.808        0.104      342.545       18.030      862.680
04/20/2013  15:50:00        0.829      -42.652        4.132       27.173       56.524       32.929      738.394     3194.919     1084.349        0.343        0.251       42.660       38.926        0.833      343.012       18.825      862.661
04/20/2013  15:51:00       19.443       27.210       29.192       23.151       43.638       28.075      535.966     1904.245      788.190        0.260        0.161       33.443       15.923        0.227      342.870       18.582      862.638
04/20/2013  15:52:00       66.984       11.954       11.327       37.083       50.261       29.306     1375.135     2526.183      858.865        0.476        0.238       68.043       11.089        0.027      342.690       18.276      862.617
04/20/2013  15:53:00       40.107       13.869       20.896      112.795      244.872       96.256    12722.670    59962.320     9265.237        4.208        4.098       42.437       64.206        2.289      343.148       19.052      862.531
04/20/2013  15:54:00       35.009      133.022       -3.302       59.849       53.736       35.707     3581.896     2887.512     1274.958        1.334        0.387      137.552       31.450        0.052      342.944       18.708      862.617
04/20/2013  15:55:00      100.666       53.384       47.609       80.198       58.598       52.207     6431.689     3433.709     2725.541        1.392        0.630      113.945       41.458        0.132      343.431       19.537      862.608
04/20/2013  15:56:00       34.080       21.074       66.976       49.116       69.168       40.813     2412.342     4784.188     1665.710        0.748        0.443       40.070       29.065        0.526      342.930       18.685      862.580
04/20/2013  15:57:00       29.896       11.956       39.519       40.820       66.164       43.389     1666.252     4377.737     1882.573        0.526        0.396       32.198       34.917        1.176      342.865       18.574      862.584
04/20/2013  15:58:00      112.506       73.197      104.189      123.749      163.666      108.030    15313.763    26786.476    11670.409        4.131        2.689      134.222      117.903        0.772      342.603       18.125      862.521
04/20/2013  15:59:00      123.587      180.935      183.230      131.444      113.664       96.398    17277.440    12919.576     9292.598        6.053        1.974      219.115       87.772        0.160      342.638       18.184      862.510
04/20/2013  16:00:00      146.855      113.128      112.760      109.010       88.162       79.510    11883.251     7772.537     6321.804        3.652        1.299      185.376       59.058        0.101      342.701       18.291      862.511
04/20/2013  16:01:00      166.264      145.489      107.083       98.520       79.180       64.250     9706.159     6269.424     4128.125        4.019        1.005      220.931       43.926        0.040      342.696       18.285      862.505
04/20/2013  16:02:00       88.991       87.115       83.320       85.179       91.509       77.995     7255.382     8373.936     6083.231        2.208        1.086      124.533       84.708        0.463      342.621       18.157      862.503
04/20/2013  16:03:00       30.993       21.783       42.110       62.068       79.515       54.524     3852.496     6322.556     2972.874        0.818        0.657       37.882       56.635        2.235      342.844       18.538      862.478
04/20/2013  16:04:00      104.573       -9.787       53.942       94.439      175.469       67.080     8918.711    30789.482     4499.683        2.907        2.210      105.030       96.332        0.841      342.961       18.734      862.459
04/20/2013  16:05:00      111.599     -188.588      -20.169       67.630       66.877       39.917     4573.778     4472.527     1593.335        2.953        0.532      219.134       35.627        0.026      342.668       18.236      862.450
04/20/2013  16:06:00       95.561     -152.294      -17.598       71.167       86.887       50.048     5064.712     7549.371     2504.763        2.387        0.756      179.792       24.450        0.018      342.693       18.279      862.426
04/20/2013  16:07:00       88.531     -118.652      -16.335       59.235       59.964       44.357     3508.821     3595.639     1967.546        1.563        0.454      148.041       36.372        0.060      342.711       18.312      862.411
04/20/2013  16:08:00       59.848       -3.797       58.173       80.966       95.834       67.643     6555.449     9184.130     4575.533        1.364        1.016       59.969       68.047        1.288      343.078       18.936      862.389
04/20/2013  16:09:00      106.733     -143.893      -18.682       89.194      105.909       53.022     7955.631    11216.757     2811.383        2.721        1.099      179.157       57.590        0.103      343.044       18.877      862.383
04/20/2013  16:10:00       60.282     -112.781       -4.908       58.820       94.020       49.216     3459.831     8839.830     2422.254        1.555        0.736      127.881       59.520        0.217      343.358       19.413      862.382
04/20/2013  16:11:00      159.887      105.538       33.476       96.729       75.759       54.742     9356.568     5739.373     2996.645        2.795        0.905      191.578       44.614        0.054      343.133       19.027      862.371
04/20/2013  16:12:00      137.968       78.948       13.387       93.476       61.378       37.878     8737.793     3767.273     1434.775        1.969        0.697      158.959        7.176        0.002      343.352       19.402      862.374
04/20/2013  16:13:00      111.910       83.644       22.304       85.222       59.521       53.125     7262.745     3542.723     2822.294        1.682        0.681      139.715       23.685        0.029      343.505       19.661      862.369
04/20/2013  16:14:00      168.849      105.806       25.403      110.900       86.286       64.514    12298.888     7445.286     4162.020        3.212        1.195      199.261       52.888        0.070      343.414       19.508      862.357
04/20/2013  16:15:00      302.391      170.491       28.285       96.051       62.041       68.227     9225.735     3849.132     4654.924        6.952        0.886      347.142       22.977        0.004      342.886       18.606      862.362
04/20/2013  16:16:00      213.354      113.693       18.028       88.753       65.357       52.897     7877.057     4271.517     2798.086        3.686        0.747      241.756       15.725        0.004      342.712       18.311      862.374
04/20/2013  16:17:00       20.045      117.614       -7.101       85.848       66.537       39.996     7369.954     4427.181     1599.712        1.384        0.670      119.310       31.370        0.069      343.001       18.805      862.369
04/20/2013  16:18:00       50.176       91.397       -0.250       65.047       65.964       28.372     4231.052     4351.280      804.948        1.013        0.469      104.264       29.309        0.079      342.838       18.527      862.327
04/20/2013  16:19:00      117.546       84.385       26.484       64.702       47.836       59.645     4186.371     2288.275     3557.559        1.583        0.502      144.700       32.606        0.051      342.998       18.801      862.300
04/20/2013  16:20:00      149.603       94.314       35.465      104.759       79.532       64.748    10974.466     6325.417     4192.317        2.701        1.075      176.851       33.719        0.036      343.060       18.904      862.301
04/20/2013  16:21:00      154.106       96.433       54.384       76.254       56.660       54.790     5814.645     3210.305     3001.944        2.401        0.601      181.792       42.041        0.053      342.752       18.378      862.298
04/20/2013  16:22:00       76.857       77.833       52.562       76.756       55.006       52.375     5891.473     3025.669     2743.151        1.319        0.583      109.384       28.401        0.067      343.198       19.140      862.293
04/20/2013  16:23:00       47.137      158.924       32.331       68.484      108.944       75.994     4690.041    11868.692     5775.090        2.543        1.117      165.768       63.130        0.145      343.212       19.162      862.296
04/20/2013  16:24:00      160.382      129.539       13.516      112.032       68.897       72.091    12551.210     4746.825     5197.118        3.259        1.125      206.162       46.134        0.050      343.022       18.838      862.306
04/20/2013  16:25:00      167.280      117.170       13.665       77.531       62.583       53.490     6011.027     3916.640     2861.186        2.734        0.639      204.234       32.899        0.026      342.874       18.588      862.320
04/20/2013  16:26:00      101.221       69.224       11.143       52.121       42.464       29.764     2716.600     1803.214      885.871        1.028        0.270      122.628       11.561        0.009      342.769       18.411      862.317
04/20/2013  16:27:00       -2.462      125.443       -6.757       58.947      112.038       36.477     3474.805    12552.403     1330.563        1.657        0.868      125.467       49.413        0.155      343.041       18.873      862.310
04/20/2013  16:28:00       -8.278      248.779      -21.174       52.452      128.258       53.961     2751.169    16450.033     2911.741        4.226        1.106      248.917       71.940        0.084      342.996       18.794      862.302
04/20/2013  16:29:00       86.518       65.940       10.668       68.470       51.344       34.548     4688.117     2636.248     1193.558        1.023        0.426      108.781       26.766        0.061      342.975       18.760      862.300
04/20/2013  16:30:00       40.612      152.037      -14.215       44.465       99.462       44.190     1977.172     9892.663     1952.769        1.939        0.691      157.368       54.950        0.122      342.844       18.538      862.296
04/20/2013  16:31:00      -11.542       83.339       -4.030       20.737       49.463       24.684      430.043     2446.618      609.296        0.529        0.174       84.135       30.907        0.135      342.951       18.721      862.292
04/20/2013  16:32:00        9.201       14.870       12.912       23.994       26.153       16.102      575.712      683.995      259.269        0.100        0.076       17.486       15.177        0.753      343.104       18.983      862.284
04/20/2013  16:33:00       16.576        3.578       18.634       32.047       30.092       20.109     1027.011      905.519      404.384        0.149        0.117       16.958       17.504        1.065      342.626       18.167      862.279
04/20/2013  16:34:00       20.774      -25.794       -7.694       27.336       29.899       20.305      747.275      893.929      412.300        0.160        0.103       33.119       13.061        0.156      342.683       18.264      862.271
04/20/2013  16:35:00       87.624       56.465       39.156       57.361       46.177       44.125     3290.266     2132.360     1947.056        0.988        0.368      104.242       30.848        0.088      343.040       18.872      862.251
04/20/2013  16:36:00       -4.034       35.096       62.581       36.378       34.260       29.163     1323.391     1173.775      850.501        0.426        0.167       35.327       19.457        0.303      343.303       19.320      862.226
04/20/2013  16:37:00       88.367       66.502       10.756       71.259       44.799       43.264     5077.904     2006.966     1871.803        1.065        0.448      110.595       26.274        0.056      343.230       19.195      862.230
04/20/2013  16:38:00       15.899        6.112       13.470       51.434       33.057       27.283     2645.453     1092.733      744.371        0.248        0.224       17.034       13.871        0.663      343.369       19.432      862.231
04/20/2013  16:39:00       46.473       30.391       25.588       40.941       30.510       35.729     1676.197      930.865     1276.558        0.381        0.194       55.528       21.795        0.154      342.934       18.691      862.226
04/20/2013  16:40:00       73.217       51.388       14.279       74.116       55.876       37.927     5493.217     3122.091     1438.442        0.913        0.503       89.450       27.159        0.092      343.235       19.203      862.207
04/20/2013  16:41:00      124.271       28.492       35.982      100.276       72.064       53.691    10055.221     5193.171     2882.762        1.784        0.907      127.495       27.216        0.046      343.127       19.019      862.206
04/20/2013  16:42:00      132.798       41.867       35.101       49.267       43.325       48.612     2427.282     1877.046     2363.165        1.364        0.333      139.242       25.098        0.032      343.012       18.824      862.208
04/20/2013  16:43:00       99.937       83.097       66.377       87.232       69.919       77.662     7609.441     4888.688     6031.310        1.991        0.926      129.971       53.321        0.168      343.267       19.255      862.188
04/20/2013  16:44:00       65.019       53.736       46.017       58.650       60.363       48.956     3439.808     3643.653     2396.706        0.935        0.474       84.351       28.168        0.112      343.176       19.103      862.197
04/20/2013  16:45:00       86.109      117.103      129.338      103.077       83.441       71.450    10624.779     6962.363     5105.080        3.027        1.135      145.355       67.439        0.215      342.755       18.385      862.186
04/20/2013  16:46:00      126.249      109.121       41.643       69.001       71.544       65.057     4761.158     5118.503     4232.409        2.184        0.706      166.872       38.935        0.054      343.255       19.238      862.193
04/20/2013  16:47:00       83.814       62.783        7.439       54.791       45.441       35.454     3002.015     2064.922     1256.983        0.867        0.316      104.721       16.201        0.024      343.291       19.299      862.203
04/20/2013  16:48:00       36.920       -0.949       36.308       44.688       53.925       36.221     1997.032     2907.948     1311.957        0.445        0.311       36.933       21.030        0.324      343.099       18.972      862.207
04/20/2013  16:49:00      110.176       78.096       36.686       63.141       40.614       36.901     3986.774     1649.479     1361.679        1.329        0.350      135.047       15.400        0.013      343.079       18.939      862.194
04/20/2013  16:50:00       63.900       -5.546       10.175       45.430       81.985       28.957     2063.883     6721.542      838.510        0.692        0.481       64.141       40.700        0.403      343.070       18.922      862.184
04/20/2013  16:51:00      -17.788       27.019        6.980       71.226       73.433       35.683     5073.122     5392.376     1273.310        0.642        0.587       32.349       44.568        1.898      343.211       19.164      862.158
04/20/2013  16:52:00      -42.344       21.930      -14.245       64.171       57.024       33.981     4117.967     3251.766     1154.687        0.550        0.426       47.686       30.066        0.398      343.546       19.734      862.157
04/20/2013  16:53:00      -18.281       82.202       -2.973       46.299       71.244       39.824     2143.569     5075.718     1585.928        0.795        0.440       84.210       36.447        0.187      343.433       19.542      862.165
04/20/2013  16:54:00      -79.618       77.632      -16.866       77.520       78.183       29.852     6009.281     6112.622      891.114        1.283        0.651      111.201       31.997        0.083      343.421       19.520      862.154
04/20/2013  16:55:00       41.409       11.094       36.873       42.755       77.688       44.493     1827.987     6035.478     1979.646        0.652        0.492       42.869       42.003        0.960      343.346       19.393      862.123
04/20/2013  16:56:00      192.341      132.113        6.736       87.002       70.366       57.100     7569.345     4951.313     3260.372        3.514        0.789      233.343       40.904        0.031      343.092       18.957      862.121
04/20/2013  16:57:00      150.902       67.720       18.086       73.684       51.285       50.053     5429.297     2630.126     2505.256        1.912        0.528      165.401       42.532        0.066      343.005       18.811      862.108
04/20/2013  16:58:00      104.839       53.513        5.812       51.516       47.906       32.398     2653.942     2294.964     1049.619        0.994        0.300      117.707       13.480        0.013      342.932       18.688      862.103
04/20/2013  16:59:00       82.109       60.441       29.304       50.830       50.779       47.544     2583.729     2578.498     2260.390        0.934        0.371      101.956       31.670        0.096      343.275       19.272      862.095
04/20/2013  17:00:00      157.106      168.649        0.255      114.351       94.664       71.490    13076.232     8961.307     5110.761        4.013        1.357      230.488       52.831        0.053      343.032       18.856      862.088
04/20/2013  17:01:00      131.695      124.513       20.894       65.314       46.319       62.917     4265.974     2145.485     3958.491        2.183        0.518      181.238       38.143        0.044      343.010       18.819      862.065
04/20/2013  17:02:00      113.418       62.272       34.003       86.721       53.029       48.918     7520.542     2812.061     2393.016        1.531        0.636      129.389       40.296        0.097      342.986       18.778      862.037
04/20/2013  17:03:00        2.251       46.595       -1.489       47.235       60.268       30.036     2231.122     3632.252      902.137        0.447        0.338       46.650       18.237        0.153      343.254       19.237      862.042
04/20/2013  17:04:00       32.975      162.528      -22.471       78.625      107.499       50.946     6181.955    11555.977     2595.461        2.417        1.017      165.839       54.788        0.109      343.335       19.372      862.053
04/20/2013  17:05:00      -29.635      216.077      -31.889       68.669       73.411       38.804     4715.455     5389.214     1505.758        3.010        0.581      218.100       32.517        0.022      343.217       19.170      862.036
04/20/2013  17:06:00       72.217      183.631       -4.589       69.475      138.030       69.503     4826.754    19052.274     4830.613        3.383        1.435      197.321       71.274        0.130      343.188       19.120      862.010
04/20/2013  17:07:00       72.417      206.766      -19.817       55.332      128.059       67.488     3061.625    16399.043     4554.571        3.620        1.201      219.081       67.968        0.096      343.158       19.070      861.996
04/20/2013  17:08:00       49.109      139.843        3.787       92.642       80.359       58.880     8582.510     6457.567     3466.845        2.024        0.925      148.216       52.124        0.124      343.424       19.525      862.003
04/20/2013  17:09:00       41.910      129.423       -0.899       71.291       77.448       50.591     5082.394     5998.205     2559.470        1.607        0.682      136.039       42.325        0.097      343.390       19.468      862.004
04/20/2013  17:10:00       72.700      150.053      -12.627       70.003       70.273       47.643     4900.405     4938.257     2269.825        2.003        0.605      166.737       40.170        0.058      343.318       19.343      861.997
04/20/2013  17:11:00       48.820      196.302      -15.185       62.260       98.825       53.257     3876.269     9766.376     2836.359        2.881        0.824      202.282       55.491        0.075      343.239       19.208      861.988
04/20/2013  17:12:00       48.342      174.115      -22.476       68.469      112.574       50.924     4688.035    12672.994     2593.260        2.655        0.998      180.702       61.691        0.117      343.141       19.042      861.987
04/20/2013  17:13:00      200.428      124.176       40.736       58.338       46.102       56.266     3403.326     2125.404     3165.857        3.297        0.435      235.777       40.543        0.030      343.243       19.215      861.982
04/20/2013  17:14:00      179.579      110.082       68.774      101.460       77.546       61.372    10294.110     6013.344     3766.522        3.458        1.004      210.634       32.495        0.024      343.292       19.298      861.980
04/20/2013  17:15:00      211.877      109.604       12.086       70.541       56.753       50.293     4976.007     3220.851     2529.377        3.389        0.536      238.547       38.840        0.027      343.207       19.152      861.976
04/20/2013  17:16:00      189.388      114.375       24.354       54.878       39.688       38.370     3011.641     1575.141     1472.227        2.780        0.303      221.245        7.112        0.001      343.151       19.057      861.987
04/20/2013  17:17:00       64.635       65.450       18.483       78.101       55.067       47.136     6099.806     3032.374     2221.787        1.008        0.568       91.986       26.151        0.081      343.401       19.485      861.969
04/20/2013  17:18:00      176.621       97.792        8.531       66.324       65.599       38.724     4398.837     4303.289     1499.538        2.551        0.510      201.887       21.232        0.011      343.152       19.061      861.966
04/20/2013  17:19:00      175.909       94.069       21.148       96.954       58.889       39.077     9400.148     3467.935     1527.040        2.732        0.720      199.482       30.021        0.023      343.247       19.221      861.963
04/20/2013  17:20:00      171.201      135.186       13.267       83.511       65.231       56.260     6974.168     4255.096     3165.167        3.108        0.720      218.140       36.304        0.028      343.159       19.071      861.966
04/20/2013  17:21:00       83.140      120.125       10.582       92.176       71.382       62.542     8496.497     5095.321     3911.483        1.948        0.875      146.090       46.258        0.100      343.271       19.263      861.962
04/20/2013  17:22:00       97.503       92.125       14.316      118.560       79.897       63.204    14056.526     6383.557     3994.748        2.131        1.222      134.141       54.881        0.167      343.209       19.157      861.967
04/20/2013  17:23:00       12.478      120.437       -3.156       50.504       78.897       38.257     2550.678     6224.694     1463.601        1.245        0.512      121.081       42.387        0.123      343.234       19.202      861.966
04/20/2013  17:24:00       24.896      113.654       -3.227       82.196       59.279       33.728     6756.228     3514.049     1137.566        1.248        0.570      116.349       21.682        0.035      343.328       19.362      861.956
04/20/2013  17:25:00      108.226      114.551       -2.234       66.313       57.985       46.008     4397.380     3362.282     2116.777        1.736        0.494      157.590       35.177        0.050      343.092       18.959      861.956
04/20/2013  17:26:00      119.900      115.391       17.727       76.777       56.523       48.081     5894.673     3194.840     2311.826        1.970        0.570      166.406       32.951        0.039      343.115       18.998      861.963
04/20/2013  17:27:00       72.695       63.769       10.143       58.628       48.458       40.822     3437.292     2348.165     1666.440        0.845        0.373       96.701       30.895        0.102      343.187       19.122      861.964
04/20/2013  17:28:00       61.488       28.740       13.340       76.647       49.518       43.009     5874.760     2452.020     1849.776        0.748        0.509       67.874       30.231        0.198      343.360       19.417      861.949
04/20/2013  17:29:00      156.268       89.931       42.939      103.047       73.607       74.810    10618.599     5418.001     5596.538        2.799        1.082      180.298       55.342        0.094      343.311       19.330      861.952
04/20/2013  17:30:00       61.164       32.384       52.532       79.548       83.876       52.719     6327.897     7035.118     2779.300        1.184        0.807       69.208       39.371        0.324      343.407       19.496      861.951
04/20/2013  17:31:00       56.530       75.102       81.960       60.893       52.604       60.163     3707.914     2767.139     3619.611        1.282        0.505       94.000       39.865        0.180      343.313       19.337      861.957
04/20/2013  17:32:00       40.434        7.184       40.286       52.006       57.569       36.693     2704.586     3314.200     1346.343        0.534        0.368       41.067       34.341        0.699      343.394       19.475      861.956
04/20/2013  17:33:00        3.025       29.889       60.916       41.615       51.126       42.504     1731.797     2613.879     1806.583        0.538        0.308       30.041       36.785        1.499      343.589       19.808      861.943
04/20/2013  17:34:00       38.113       54.072       73.410       83.337       52.653       49.813     6944.988     2772.330     2481.319        1.098        0.610       66.154       47.434        0.514      343.569       19.772      861.924
04/20/2013  17:35:00       31.217       66.216       66.762       55.661       49.878       49.520     3098.158     2487.816     2452.257        0.893        0.402       73.205       25.673        0.123      343.398       19.481      861.896
04/20/2013  17:36:00       43.038      119.586      -10.408       37.495       83.343       40.912     1405.911     6946.002     1673.803        1.314        0.501      127.095       38.974        0.094      343.417       19.513      861.900
04/20/2013  17:37:00       85.551       76.964        5.856       79.049       74.410       48.814     6248.797     5536.892     2382.855        1.372        0.708      115.076       33.460        0.085      343.443       19.559      861.906
04/20/2013  17:38:00      153.160      100.654       45.217       70.147       65.812       56.847     4920.570     4331.269     3231.533        2.406        0.624      183.273       42.287        0.053      343.475       19.611      861.901
04/20/2013  17:39:00      180.798       53.621       39.447      111.618       79.446       70.881    12458.514     6311.720     5024.058        3.045        1.190      188.582       60.452        0.103      343.282       19.281      861.895
04/20/2013  17:40:00      170.011      103.250       45.289       92.931       63.183       61.850     8636.133     3992.037     3825.425        2.903        0.823      198.908       62.323        0.098      343.369       19.430      861.905
04/20/2013  17:41:00      113.245       73.604       24.644       58.419       44.942       41.781     3412.741     2019.751     1745.621        1.301        0.359      135.063       29.262        0.047      343.308       19.327      861.912
04/20/2013  17:42:00       62.353       74.280       57.110       72.961       48.127       41.095     5323.293     2316.168     1688.778        1.100        0.466       96.982       29.798        0.094      343.454       19.577      861.905
04/20/2013  17:43:00       37.069       29.936       15.301       46.425       30.912       26.210     2155.239      955.577      686.953        0.315        0.190       47.647       21.780        0.209      343.498       19.651      861.906
04/20/2013  17:44:00       35.448       -4.184        9.097       45.568       44.505       24.398     2076.440     1980.717      595.241        0.300        0.233       35.694       13.190        0.137      343.474       19.611      861.908
04/20/2013  17:45:00      112.737       79.027       57.870       76.082       55.341       38.163     5788.422     3062.674     1456.432        1.630        0.515      137.677       17.875        0.017      343.547       19.734      861.913
04/20/2013  17:46:00       85.864      112.702      -12.367       67.333      102.384       41.582     4533.719    10482.485     1729.078        1.848        0.837      141.684       36.783        0.067      343.438       19.550      861.921
04/20/2013  17:47:00       64.921      167.273      -16.036       84.917      104.694       53.355     7210.920    10960.753     2846.720        2.673        1.051      179.430       43.393        0.058      343.435       19.542      861.924
04/20/2013  17:48:00      181.389      120.847       13.121      104.048       88.726       59.200    10826.056     7872.279     3504.622        3.494        1.110      217.958       41.651        0.037      343.288       19.290      861.924
04/20/2013  17:49:00      135.154      128.619        7.210      103.512       69.090       60.585    10714.667     4773.454     3670.589        2.701        0.958      186.573       40.755        0.048      343.259       19.241      861.912
04/20/2013  17:50:00       53.973      115.670       17.473       76.658       87.708       67.462     5876.465     7692.675     4551.082        1.736        0.906      127.642       54.534        0.183      343.300       19.312      861.907
04/20/2013  17:51:00      132.230      128.081       14.839       98.331       76.510       75.626     9669.017     5853.747     5719.264        2.767        1.062      184.090       51.039        0.077      343.234       19.199      861.897
04/20/2013  17:52:00      251.796      152.360       33.969      106.384       94.034       71.976    11317.499     8842.302     5180.606        5.655        1.267      294.304       55.616        0.036      343.266       19.252      861.877
04/20/2013  17:53:00      212.134      115.738       32.756      124.056       93.209       57.468    15389.900     8687.867     3302.526        4.342        1.369      241.653       26.806        0.012      343.240       19.210      861.847
04/20/2013  17:54:00      163.509      151.448       -0.272      105.096      116.299       75.297    11045.274    13525.445     5669.691        3.995        1.512      222.871       65.413        0.086      343.214       19.166      861.850
04/20/2013  17:55:00       65.836      253.009      -31.262       88.236      149.681       73.575     7785.655    22404.468     5413.335        5.246        1.780      261.434       58.149        0.049      343.086       18.949      861.854
04/20/2013  17:56:00      -40.873      277.483      -35.211       58.951       80.905       41.969     3475.269     6545.637     1761.380        4.584        0.589      280.477       46.255        0.027      343.038       18.864      861.836
04/20/2013  17:57:00       54.557      138.015       -4.864       49.906       96.107       48.174     2490.648     9236.479     2320.688        1.805        0.702      148.407       57.393        0.150      343.033       18.858      861.822
04/20/2013  17:58:00      217.147      142.537       35.447       89.236       76.943       69.524     7963.070     5920.208     4833.634        4.372        0.936      259.749       40.551        0.024      343.135       19.030      861.799
04/20/2013  17:59:00      200.087      126.849        5.617       82.074       59.889       50.093     6736.155     3586.657     2509.326        3.449        0.642      236.908       29.725        0.016      343.122       19.008      861.793
04/20/2013  18:00:00      193.019      130.599       36.807      142.129      110.548       70.391    20200.722    12220.894     4954.932        4.652        1.869      233.050       62.876        0.073      343.301       19.314      861.794
04/20/2013  18:01:00      245.443      184.500       19.494       93.841       75.509       74.590     8806.115     5701.552     5563.668        5.736        1.004      307.055       53.575        0.030      343.125       19.013      861.813
04/20/2013  18:02:00      204.330      175.452       17.646      117.506       73.245       78.380    13807.725     5364.878     6143.354        4.908        1.266      269.322       47.270        0.031      343.073       18.925      861.825
04/20/2013  18:03:00      147.242      100.851       35.516      123.070       91.675       61.217    15146.242     8404.354     3747.469        3.020        1.365      178.469       37.578        0.044      343.167       19.084      861.830
04/20/2013  18:04:00      157.623      131.482       13.781      128.414       75.436       74.736    16490.167     5690.648     5585.402        3.504        1.388      205.262       50.615        0.061      343.044       18.875      861.846
04/20/2013  18:05:00      130.054      128.222       20.760       86.155       69.428       60.388     7422.617     4820.207     3646.754        2.484        0.794      182.633       47.310        0.067      343.055       18.895      861.843
04/20/2013  18:06:00       98.111       74.977       19.979       70.067       70.592       48.213     4909.388     4983.187     2324.518        1.393        0.611      123.480       27.378        0.049      343.123       19.013      861.840
04/20/2013  18:07:00       49.209      221.886      -24.601       62.203      102.523       47.886     3869.166    10510.892     2293.110        3.446        0.834      227.277       35.763        0.025      343.232       19.195      861.831
04/20/2013  18:08:00       30.057      129.812      -20.625       43.469       75.404       30.480     1889.596     5685.692      929.051        1.334        0.425      133.247       34.055        0.065      343.345       19.392      861.823
04/20/2013  18:09:00      127.086       99.529        3.242       95.903       88.178       72.270     9197.433     7775.373     5222.918        2.413        1.110      161.421       56.668        0.123      343.351       19.400      861.818
04/20/2013  18:10:00      148.226      116.322        6.840      105.767       60.169       56.045    11186.593     3620.327     3140.992        2.675        0.897      188.419       34.485        0.033      343.135       19.033      861.817
04/20/2013  18:11:00       54.360      189.528       -9.392       65.657      112.172       67.975     4310.845    12582.455     4620.631        3.024        1.076      197.169       71.958        0.133      343.114       18.996      861.822
04/20/2013  18:12:00       54.035       97.219        2.240       86.864       76.938       54.833     7545.359     5919.490     3006.698        1.442        0.824      111.226       42.947        0.149      343.057       18.899      861.814
04/20/2013  18:13:00      258.233      142.293       44.176      118.180       91.655       70.235    13966.490     8400.656     4932.908        5.809        1.365      294.842       38.322        0.017      343.140       19.040      861.810
04/20/2013  18:14:00      192.409       91.442       23.573      111.780       83.275       65.675    12494.791     6934.754     4313.204        3.484        1.187      213.033       50.103        0.055      343.120       19.006      861.819
04/20/2013  18:15:00       61.044      119.928       -5.372       81.364       84.264       48.599     6620.046     7100.389     2361.825        1.711        0.804      134.570       38.656        0.083      343.143       19.046      861.833
04/20/2013  18:16:00       54.384      130.052        3.467       69.369       80.054       56.600     4812.007     6408.585     3203.555        1.715        0.721      140.965       47.158        0.112      342.977       18.763      861.837
04/20/2013  18:17:00       44.966       81.293        1.578       56.210       68.505       41.410     3159.561     4692.925     1714.768        0.910        0.478       92.901       35.696        0.148      343.061       18.906      861.830
04/20/2013  18:18:00       32.693       81.740      -10.840       58.398       55.727       36.275     3410.358     3105.482     1315.847        0.785        0.392       88.036       28.690        0.106      343.121       19.011      861.822
04/20/2013  18:19:00      110.657       39.891       10.133       64.283       59.860       43.801     4132.256     3583.219     1918.563        1.178        0.482      117.628       29.447        0.063      343.179       19.108      861.821
04/20/2013  18:20:00       21.471      103.917      -19.220       81.440       78.523       37.624     6632.454     6165.882     1415.546        1.292        0.711      106.112       23.809        0.050      343.235       19.204      861.828
04/20/2013  18:21:00      121.233      118.348       23.171       97.691       60.619       55.137     9543.625     3674.705     3040.127        2.275        0.813      169.422       44.230        0.068      343.165       19.084      861.829
04/20/2013  18:22:00       17.943      285.761      -33.861       62.289      125.406       54.450     3879.943    15726.611     2964.773        5.285        1.129      286.323       58.916        0.042      343.053       18.888      861.832
04/20/2013  18:23:00      140.698      111.182       17.500      122.891       79.137       61.789    15102.192     6262.622     3817.896        2.882        1.259      179.324       44.644        0.062      343.068       18.919      861.823
04/20/2013  18:24:00      121.023      172.506       23.406      129.632      113.202       82.767    16804.566    12814.758     6850.295        4.071        1.823      210.725       61.183        0.084      342.933       18.687      861.831
04/20/2013  18:25:00       58.841      213.465       -5.332       95.245      132.020       80.487     9071.604    17429.215     6478.082        4.101        1.649      221.427       68.767        0.096      342.962       18.736      861.829
04/20/2013  18:26:00      134.569       93.791        7.431       91.610       65.397       47.359     8392.354     4276.723     2242.897        2.093        0.746      164.030       27.140        0.027      343.088       18.951      861.850
04/20/2013  18:27:00      238.562      160.762       35.247      130.172       92.865       67.162    16944.846     8623.823     4510.685        5.703        1.504      287.674       46.347        0.026      342.900       18.630      861.853
04/20/2013  18:28:00      218.632      108.011       39.082      125.729       77.245       73.453    15807.699     5966.838     5395.303        4.408        1.358      243.857       48.014        0.039      342.931       18.682      861.853
04/20/2013  18:29:00      212.682      146.686       16.585      136.155       83.573       72.018    18538.155     6984.376     5186.577        4.886        1.535      258.361       51.499        0.040      342.903       18.635      861.874
04/20/2013  18:30:00       82.201      180.254       -5.450       90.740      123.094       78.848     8233.724    15152.192     6216.998        3.444        1.480      198.113       62.565        0.100      342.901       18.632      861.880
04/20/2013  18:31:00      206.794      144.026       23.235      118.528       82.094       72.600    14048.955     6739.377     5270.815        4.505        1.303      252.007       48.366        0.037      342.866       18.573      861.901
04/20/2013  18:32:00      286.209      171.917       32.384      141.617      125.308       85.077    20055.372    15702.105     7238.045        7.775        2.150      333.873       49.404        0.022      342.821       18.496      861.902
04/20/2013  18:33:00      202.008      191.252       32.049      161.019       98.333      102.394    25927.226     9669.381    10484.553        6.224        2.304      278.181       75.109        0.073      342.819       18.493      861.928
04/20/2013  18:34:00      226.382      172.231       34.718      134.087      112.755       80.926    17979.433    12713.637     6548.989        5.967        1.862      284.452       50.538        0.032      342.794       18.448      861.929
04/20/2013  18:35:00      209.465      151.546       26.251      174.989      100.272       67.269    30621.305    10054.433     4525.163        5.636        2.260      258.538       40.688        0.025      342.790       18.443      861.936
04/20/2013  18:36:00      145.958      122.419        9.485      126.153      106.228       74.252    15914.482    11284.436     5513.423        3.454        1.636      190.500       46.259        0.059      342.793       18.448      861.937
04/20/2013  18:37:00      132.643      106.727       34.192      105.995       78.311       63.776    11234.908     6132.651     4067.357        2.579        1.072      170.249       43.274        0.065      342.800       18.461      861.945
04/20/2013  18:38:00      113.868      112.791        6.013      114.804      114.825       81.601    13180.010    13184.792     6658.674        2.937        1.651      160.274       65.047        0.165      342.776       18.419      861.962
04/20/2013  18:39:00      136.944      170.730       10.724      117.023      113.317       79.894    13694.403    12840.756     6383.025        4.046        1.646      218.866       64.653        0.087      342.721       18.327      861.959
04/20/2013  18:40:00      167.059      222.179       -3.234      137.693      125.753       93.294    18959.252    15813.807     8703.769        6.037        2.174      277.979       87.051        0.098      342.632       18.175      861.967
04/20/2013  18:41:00       63.960      217.022       -1.564      112.704      162.116       88.979    12702.125    26281.554     7917.283        4.904        2.345      226.251       89.800        0.158      342.628       18.170      861.974
04/20/2013  18:42:00      138.461      142.010       22.208      130.639      101.138       92.676    17066.523    10228.959     8588.846        3.785        1.794      198.339       56.260        0.080      342.623       18.161      861.995
04/20/2013  18:43:00      110.094      109.595       16.526       82.729       74.464       70.653     6844.131     5544.820     4991.841        2.089        0.869      155.344       45.911        0.087      342.629       18.170      861.988
04/20/2013  18:44:00      135.468      126.335       12.759       83.111       74.057       60.351     6907.463     5484.453     3642.236        2.525        0.802      185.235       39.123        0.045      342.636       18.182      861.985
04/20/2013  18:45:00      123.893      165.251        2.338       96.554      115.255       72.845     9322.658    13283.614     5306.428        3.528        1.396      206.537       70.444        0.116      342.649       18.205      861.996
04/20/2013  18:46:00      179.020      143.516       14.832      123.115       75.928       57.570    15157.325     5765.092     3314.344        3.855        1.212      229.445       47.155        0.042      342.620       18.154      861.998
04/20/2013  18:47:00      190.959      188.695       11.415      145.499      100.040       71.220    21170.072    10007.965     5072.237        5.422        1.813      268.460       54.777        0.042      342.585       18.095      861.995
04/20/2013  18:48:00      143.303      116.860       23.382       93.278       71.185       67.105     8700.868     5067.275     4503.073        2.650        0.914      184.911       47.598        0.066      342.614       18.145      862.003
04/20/2013  18:49:00      149.227      133.773        4.496      113.700       88.272       67.644    12927.737     7791.930     4575.771        3.274        1.265      200.409       46.690        0.054      342.602       18.125      862.010
04/20/2013  18:50:00      152.123      126.743        9.504       93.449       59.249       52.689     8732.723     3510.441     2776.088        2.715        0.751      198.003       32.097        0.026      342.624       18.162      862.017
04/20/2013  18:51:00      179.239      183.271       32.929      167.259      121.907       95.886    27975.493    14861.235     9194.131        5.941        2.602      256.349       74.614        0.085      342.566       18.063      862.028
04/20/2013  18:52:00      232.345      142.777       25.351      125.177       95.892       90.292    15669.394     9195.310     8152.579        5.401        1.651      272.708       61.775        0.051      342.539       18.016      862.023
04/20/2013  18:53:00      126.842      106.354       19.508       84.103       99.738       62.409     7073.276     9947.623     3894.849        2.434        1.046      165.530       49.051        0.088      342.535       18.011      862.043
04/20/2013  18:54:00      180.814      117.820        0.236      119.121       84.127       76.313    14189.849     7077.325     5823.608        3.683        1.355      215.813       49.876        0.053      342.529       18.001      862.052
04/20/2013  18:55:00      162.955      118.281       13.658      117.805       62.975       58.289    13878.083     3965.895     3397.651        3.098        1.062      201.357       26.963        0.018      342.552       18.039      862.063
04/20/2013  18:56:00      142.877      111.093       48.216      118.463       75.140       74.815    14033.460     5646.065     5597.223        3.017        1.264      180.985       25.136        0.019      342.519       17.983      862.061
04/20/2013  18:57:00      125.177      145.128       12.665      117.970       96.425       72.286    13916.908     9297.845     5225.204        3.266        1.422      191.655       55.710        0.084      342.443       17.854      862.091
04/20/2013  18:58:00      126.180      173.967        0.170      129.326      130.873       73.723    16725.137    17127.791     5435.094        4.273        1.964      214.909       63.914        0.088      342.440       17.847      862.086
04/20/2013  18:59:00       85.329      188.431        0.798       98.812      125.998       76.951     9763.737    15875.581     5921.480        3.717        1.578      206.851       64.469        0.097      342.415       17.807      862.087
04/20/2013  19:00:00      124.372      149.600       15.116      120.907      104.175       71.147    14618.385    10852.435     5061.947        3.430        1.527      194.547       59.316        0.093      342.415       17.806      862.078
04/20/2013  19:01:00      100.991      123.964       10.161      104.322       80.810       63.231    10883.166     6530.331     3998.219        2.354        1.071      159.894       47.207        0.087      342.421       17.817      862.072
04/20/2013  19:02:00      127.390      126.599       35.257      100.600       96.325       87.875    10120.339     9278.494     7722.034        3.031        1.356      179.599       70.416        0.154      342.392       17.766      862.072
04/20/2013  19:03:00       66.684      158.858       -0.095       72.847      110.338       59.085     5306.743    12174.549     3491.012        2.532        1.049      172.286       61.292        0.127      342.383       17.751      862.076
04/20/2013  19:04:00      201.755      169.227       23.575      115.959       75.151       78.222    13446.448     5647.678     6118.688        4.755        1.261      263.330       52.936        0.040      342.347       17.689      862.079
04/20/2013  19:05:00      217.956      159.989       25.324      142.484       82.665       66.865    20301.652     6833.478     4470.959        5.267        1.580      270.372       43.479        0.026      342.343       17.684      862.092
04/20/2013  19:06:00      135.549      205.736        1.011      141.164      113.640       87.368    19927.263    12914.130     7633.213        5.058        2.024      246.376       75.547        0.094      342.339       17.678      862.095
04/20/2013  19:07:00      126.935      150.718       -9.822      125.445       93.077       63.779    15736.558     8663.316     4067.735        3.369        1.423      197.049       40.116        0.041      342.318       17.640      862.118
04/20/2013  19:08:00       52.390      164.681       -3.701       62.823       93.436       65.923     3946.746     8730.313     4345.830        2.345        0.851      172.813       58.757        0.116      342.326       17.656      862.134
04/20/2013  19:09:00        4.745      146.153       -0.510       55.804       84.219       42.440     3114.134     7092.816     1801.153        1.669        0.600      146.230       37.191        0.065      342.317       17.641      862.148
04/20/2013  19:10:00       31.301      112.289        3.314       57.647       98.051       59.032     3323.175     9614.030     3484.800        1.501        0.821      116.570       58.996        0.256      342.324       17.652      862.155
04/20/2013  19:11:00       40.482       85.316        5.246       57.263       58.273       49.224     3279.005     3395.702     2423.004        0.902        0.455       94.433       41.608        0.194      342.335       17.672      862.161
04/20/2013  19:12:00       35.331      137.299       -6.214       53.458      130.197       53.255     2857.770    16951.160     2836.092        2.139        1.132      141.772       65.362        0.213      342.287       17.589      862.159
04/20/2013  19:13:00       79.593       75.098       19.020       76.110       48.522       56.679     5792.715     2354.374     3212.470        1.185        0.568      109.429       34.691        0.100      342.275       17.571      862.166
04/20/2013  19:14:00       45.584       65.133       12.941       67.973       56.019       50.945     4620.352     3138.096     2595.395        0.842        0.518       79.499       34.958        0.193      342.277       17.574      862.168
04/20/2013  19:15:00       56.688       40.715       24.292       56.356       43.413       44.791     3175.954     1884.671     2006.252        0.626        0.353       69.794       21.907        0.099      342.265       17.553      862.175
04/20/2013  19:16:00       13.280      164.519       -5.812       51.248      125.499       59.250     2626.339    15750.090     3510.546        2.458        1.094      165.054       57.462        0.121      342.201       17.442      862.191
04/20/2013  19:17:00       35.820      117.394        0.326       64.654      114.447       58.052     4180.120    13098.042     3370.037        1.785        1.032      122.737       59.824        0.238      342.113       17.295      862.210
04/20/2013  19:18:00       13.982      189.958      -17.123       48.164      128.207       49.393     2319.804    16437.161     2439.626        2.888        1.060      190.472       56.398        0.088      342.090       17.255      862.218
04/20/2013  19:19:00       41.944      137.718       -2.905       64.020       97.543       54.726     4098.560     9514.727     2994.982        1.867        0.830      143.964       52.888        0.135      342.070       17.221      862.244
04/20/2013  19:20:00      129.663      148.279        6.300       91.814       99.565       78.432     8429.896     9913.142     6151.556        3.166        1.225      196.975       67.243        0.117      342.031       17.153      862.251
04/20/2013  19:21:00       37.770      123.691       -9.041       72.097      100.895       52.652     5197.937    10179.832     2772.185        1.748        0.907      129.329       51.618        0.159      341.983       17.072      862.259
04/20/2013  19:22:00       62.483      154.251       -4.403      103.031       90.178       51.405    10615.405     8132.155     2642.424        2.455        1.069      166.426       49.116        0.087      341.962       17.037      862.274
04/20/2013  19:23:00       31.488      136.725      -13.217       60.150       76.987       49.083     3618.006     5926.923     2409.119        1.590        0.598      140.304       48.600        0.120      341.934       16.990      862.287
04/20/2013  19:24:00       41.277      148.703      -13.317       49.450       94.529       49.955     2445.260     8935.800     2495.490        1.893        0.694      154.326       58.292        0.143      341.908       16.945      862.298
04/20/2013  19:25:00       90.006      141.678        1.700       75.523      106.711       64.745     5703.692    11387.331     4191.978        2.473        1.064      167.851       60.094        0.128      341.869       16.878      862.322
04/20/2013  19:26:00       71.232      106.089       15.071       87.990       85.701       64.406     7742.315     7344.580     4148.142        1.789        0.962      127.785       53.993        0.179      341.819       16.794      862.336
04/20/2013  19:27:00       33.488      136.920      -13.314       37.501       81.572       44.690     1406.301     6654.062     1997.183        1.505        0.503      140.955       52.067        0.136      341.793       16.750      862.353
04/20/2013  19:28:00       73.708      187.242      -13.198       75.448      151.843       62.963     5692.404    23056.356     3964.282        3.668        1.636      201.228       82.045        0.166      341.770       16.713      862.370
04/20/2013  19:29:00       87.259      136.830        8.804       91.727      113.480       71.678     8413.764    12877.635     5137.725        2.642        1.321      162.286       68.078        0.176      341.738       16.657      862.380
04/20/2013  19:30:00       42.043      210.957      -23.669      110.290      143.696       85.835    12163.926    20648.666     7367.659        4.350        2.009      215.105       85.804        0.159      341.710       16.611      862.395
04/20/2013  19:31:00       31.128      231.231      -25.043       63.247      113.618       58.648     4000.214    12909.138     3439.625        3.770        1.017      233.316       71.038        0.093      341.716       16.618      862.423
04/20/2013  19:32:00       50.329      238.377      -11.683       93.046      125.796       64.482     8657.530    15824.669     4157.929        4.406        1.432      243.632       66.747        0.075      341.664       16.531      862.433
04/20/2013  19:33:00       68.438      135.645       13.202       94.850       98.985       85.905     8996.473     9798.032     7379.586        2.471        1.309      151.932       69.202        0.207      341.649       16.506      862.441
04/20/2013  19:34:00      102.641      164.052       15.054       87.672      116.014       83.860     7686.428    13459.291     7032.453        3.292        1.409      193.515       78.651        0.165      341.628       16.469      862.457
04/20/2013  19:35:00       62.633      200.728      -33.923       78.136      151.921       67.357     6105.300    23080.125     4537.014        3.954        1.686      210.272       81.910        0.152      341.613       16.445      862.470
04/20/2013  19:36:00       56.501      210.410      -18.730       64.246      113.949       59.946     4127.548    12984.336     3593.526        3.426        1.035      217.864       65.669        0.091      341.596       16.415      862.478
04/20/2013  19:37:00       28.889      108.779       13.737       62.075      119.699       62.223     3853.305    14327.916     3871.656        1.745        1.103      112.550       67.796        0.363      341.554       16.346      862.505
04/20/2013  19:38:00       45.320      132.645        4.936       71.555      106.841       63.525     5120.118    11415.070     4035.393        2.012        1.029      140.174       63.622        0.206      341.535       16.311      862.525
04/20/2013  19:39:00       59.751      166.231       -1.921       68.197      114.455       63.721     4650.855    13099.904     4060.333        2.651        1.091      176.643       66.061        0.140      341.515       16.279      862.533
04/20/2013  19:40:00       38.733      158.597        2.436       65.444       88.570       57.017     4282.950     7844.622     3250.923        2.102        0.769      163.258       56.497        0.120      341.484       16.225      862.544
04/20/2013  19:41:00       24.673      195.611      -19.418       67.962      121.970       51.288     4618.819    14876.570     2630.432        3.068        1.106      197.161       55.851        0.080      341.506       16.263      862.548
04/20/2013  19:42:00       24.805      218.356      -12.710       69.656      108.148       53.488     4851.932    11695.930     2861.020        3.393        0.970      219.760       64.625        0.086      341.492       16.238      862.560
04/20/2013  19:43:00       24.662      326.235      -42.496       64.759       73.735       49.208     4193.728     5436.899     2421.398        6.045        0.603      327.166       44.156        0.018      341.524       16.292      862.564
04/20/2013  19:44:00       40.610      193.850       -3.051       62.741      126.585       66.567     3936.473    16023.730     4431.188        3.181        1.220      198.058       71.999        0.132      341.477       16.215      862.567
04/20/2013  19:45:00       25.740      156.129       -2.723       68.076      109.768       55.570     4634.386    12049.060     3087.997        2.241        0.989      158.237       58.626        0.137      341.460       16.185      862.571
04/20/2013  19:46:00       43.558      208.757      -22.451       48.015       86.149       50.343     2305.398     7421.697     2534.431        2.912        0.613      213.253       47.614        0.050      341.437       16.146      862.573
04/20/2013  19:47:00       35.699      147.114        0.262       61.051       85.420       53.361     3727.270     7296.558     2847.346        1.839        0.694      151.384       54.468        0.129      341.409       16.100      862.582
04/20/2013  19:48:00       63.658      120.645        8.619       99.324      101.916       73.898     9865.178    10386.822     5460.857        2.219        1.286      136.410       70.362        0.266      341.378       16.049      862.575
04/20/2013  19:49:00       29.973      161.883       -2.826       66.114      103.588       65.519     4371.001    10730.534     4292.698        2.325        0.970      164.634       61.573        0.140      341.356       16.011      862.587
04/20/2013  19:50:00       -0.944      180.477       -2.975       70.541      134.877       54.166     4976.040    18191.895     2933.962        2.934        1.305      180.480       69.195        0.147      341.355       16.009      862.601
04/20/2013  19:51:00      -13.810      284.421      -26.500       49.269      126.567       54.231     2427.420    16019.082     2940.955        5.158        1.069      284.756       70.055        0.061      341.384       16.055      862.613
04/20/2013  19:52:00       14.483      234.222      -24.752       46.407       81.573       37.204     2153.604     6654.108     1384.103        3.294        0.510      234.669       36.626        0.024      341.359       16.014      862.625
04/20/2013  19:53:00       10.120      174.700      -17.283       49.170       93.238       42.850     2417.721     8693.255     1836.104        2.193        0.647      174.993       49.825        0.081      341.348       15.997      862.625
04/20/2013  19:54:00       19.277      245.467      -26.753       46.239      104.232       39.226     2138.027    10864.274     1538.665        3.794        0.727      246.223       47.652        0.037      341.360       16.016      862.621
04/20/2013  19:55:00       29.665      162.646       -5.031       67.789       79.159       55.815     4595.393     6266.069     3115.314        2.067        0.699      165.329       49.227        0.089      341.319       15.948      862.632
04/20/2013  19:56:00       42.328      146.727       -4.189       60.316       90.536       58.992     3638.038     8196.813     3480.088        1.932        0.766      152.710       57.091        0.140      341.320       15.949      862.635
04/20/2013  19:57:00       19.210      169.190      -19.138       70.002      104.640       62.733     4900.252    10949.595     3935.459        2.457        0.989      170.277       57.570        0.114      341.319       15.948      862.639
04/20/2013  19:58:00        2.128      240.525      -24.778       60.038       80.369       38.832     3604.584     6459.171     1507.887        3.502        0.579      240.534       29.662        0.015      341.300       15.915      862.661
04/20/2013  19:59:00       19.922      317.190      -30.421       81.603      115.101       60.947     6659.048    13248.355     3714.480        6.277        1.181      317.815       64.563        0.041      341.350       15.999      862.672
04/20/2013  20:00:00       19.253      257.872      -19.105       95.418      135.587       69.060     9104.612    18383.887     4769.258        4.974        1.613      258.589       80.020        0.096      341.355       16.006      862.674
04/20/2013  20:01:00       15.250      190.191       -7.139       76.648       97.070       55.283     5874.991     9422.680     3056.254        2.740        0.918      190.802       57.176        0.090      341.339       15.979      862.691
04/20/2013  20:02:00       11.149      178.350       -6.572       73.113      115.466       59.199     5345.548    13332.362     3504.556        2.708        1.109      178.699       64.327        0.130      341.296       15.907      862.703
04/20/2013  20:03:00        2.981      137.451       -3.002       53.783       93.284       45.751     2892.657     8701.879     2093.152        1.630        0.684      137.483       44.827        0.106      341.311       15.934      862.718
04/20/2013  20:04:00       29.731      122.955        2.345       48.823       68.707       45.175     2383.668     4720.611     2040.802        1.257        0.457      126.498       43.991        0.121      341.312       15.937      862.727
04/20/2013  20:05:00       -1.849      200.360      -12.273       64.812      114.128       56.248     4200.645    13025.209     3163.863        3.034        1.019      200.368       56.464        0.079      341.288       15.895      862.724
04/20/2013  20:06:00       19.304      191.997      -24.895       56.250      100.765       34.814     3164.009    10153.624     1211.988        2.619        0.726      192.965       39.578        0.042      341.311       15.934      862.724
04/20/2013  20:07:00       19.200      234.342      -18.357       56.508      103.832       58.724     3193.117    10781.186     3448.558        3.652        0.871      235.127       61.514        0.068      341.325       15.956      862.733
04/20/2013  20:08:00        2.644      188.610      -18.470       46.455      104.974       47.070     2158.026    11019.627     2215.610        2.566        0.770      188.629       58.966        0.098      341.306       15.924      862.735
04/20/2013  20:09:00      -28.408      279.425      -23.143       80.216       85.924       41.903     6434.624     7382.875     1755.881        4.749        0.779      280.865       38.552        0.019      341.329       15.962      862.743
04/20/2013  20:10:00       12.169      246.575      -34.432       50.568       63.937       37.049     2557.130     4088.000     1372.603        3.507        0.401      246.875       31.790        0.017      341.324       15.954      862.754
04/20/2013  20:11:00      -11.608      194.908      -30.587       62.913       57.008       34.700     3958.010     3249.930     1204.063        2.373        0.421      195.253       15.300        0.006      341.340       15.981      862.756
04/20/2013  20:12:00      -40.690      148.183      -14.872       49.981       66.716       37.523     2498.076     4450.961     1407.997        1.609        0.418      153.668       36.430        0.056      341.320       15.949      862.763
04/20/2013  20:13:00      -10.062      160.681      -10.790       48.126       76.754       34.794     2316.083     5891.177     1210.588        1.773        0.471      160.996       36.799        0.052      341.265       15.856      862.772
04/20/2013  20:14:00       -3.810      129.473      -13.590       49.501       43.680       28.241     2450.391     1907.905      797.552        1.106        0.258      129.529       21.452        0.027      341.292       15.903      862.782
04/20/2013  20:15:00      -23.641      156.592      -12.150       44.273       66.777       38.361     1960.085     4459.146     1471.572        1.656        0.395      158.367       38.316        0.059      341.289       15.898      862.794
04/20/2013  20:16:00       -4.437      171.740      -13.878       55.976       80.730       47.879     3133.366     6517.254     2292.363        2.082        0.597      171.797       49.459        0.083      341.286       15.891      862.805
04/20/2013  20:17:00      -31.023      153.545       -7.995       53.288       56.335       37.892     2839.637     3173.622     1435.827        1.602        0.372      156.648       34.041        0.047      341.286       15.895      862.814
04/20/2013  20:18:00       -2.311      188.562      -16.178       62.583       83.776       41.995     3916.636     7018.424     1763.587        2.426        0.635      188.576       41.025        0.047      341.266       15.857      862.824
04/20/2013  20:19:00      -18.031       98.996       -0.909       46.502       79.125       31.255     2162.416     6260.745      976.903        0.976        0.470      100.625       36.761        0.133      341.267       15.860      862.834
04/20/2013  20:20:00      -52.399      105.954      -19.400       49.745       43.687       22.199     2474.530     1908.568      492.813        0.961        0.244      118.203       22.424        0.036      341.258       15.847      862.851
04/20/2013  20:21:00      -59.397      131.550      -16.589       70.242       63.625       48.942     4933.880     4048.197     2395.326        1.624        0.569      144.338       42.062        0.085      341.306       15.927      862.852
04/20/2013  20:22:00      -77.122      141.887      -24.579       35.174       53.248       25.921     1237.209     2835.339      671.920        1.571        0.237      161.493       23.774        0.022      341.309       15.934      862.871
04/20/2013  20:23:00      -65.682       40.939       -0.927       48.969       35.545       17.647     2398.008     1263.416      311.429        0.498        0.199       77.396       18.916        0.060      341.305       15.926      862.876
04/20/2013  20:24:00      -64.551       98.727      -11.244       59.429       54.218       33.683     3531.823     2939.549     1134.530        1.082        0.380      117.957       22.159        0.035      341.201       15.749      862.901
04/20/2013  20:25:00      -59.734       77.747       -6.897       37.345       55.396       31.502     1394.619     3068.745      992.392        0.756        0.273       98.045       33.748        0.118      341.173       15.703      862.911
04/20/2013  20:26:00      -70.441       27.796       -0.277       51.849       49.463       30.515     2688.274     2446.547      931.170        0.590        0.303       75.727       34.680        0.210      341.147       15.657      862.941
04/20/2013  20:27:00      -72.692        4.204       -2.372       34.833       31.578       21.186     1213.303      997.175      448.845        0.398        0.133       72.813       14.564        0.040      341.166       15.692      862.953
04/20/2013  20:28:00      -70.572       35.117      -11.604       50.924       34.984       25.918     2593.203     1223.901      671.758        0.542        0.224       78.826       28.180        0.128      341.081       15.547      862.975
04/20/2013  20:29:00      -87.045      116.138      -32.850       58.619       60.727       28.343     3436.209     3687.752      803.324        1.503        0.396      145.138       33.204        0.052      340.932       15.294      862.999
04/20/2013  20:30:00      -73.861       95.336      -17.954       48.304       59.388       26.067     2333.258     3526.971      679.480        1.070        0.327      120.600       27.516        0.052      340.921       15.275      863.005
04/20/2013  20:31:00      -30.387       70.201        5.272       26.200       48.608       20.871      686.463     2362.731      435.601        0.468        0.174       76.495       21.086        0.076      340.849       15.153      863.029
04/20/2013  20:32:00      -38.919       74.188       -5.746       22.468       21.699       14.423      504.802      470.831      208.030        0.412        0.059       83.777       13.544        0.026      340.929       15.289      863.031
04/20/2013  20:33:00      -32.401       82.811       -5.072       34.915       68.168       31.736     1219.056     4646.933     1007.170        0.740        0.344       88.924       34.456        0.150      340.852       15.158      863.049
04/20/2013  20:34:00      -45.408       20.593        0.554       36.283       60.319       26.697     1316.421     3638.341      712.725        0.408        0.283       49.860       21.155        0.180      340.924       15.281      863.063
04/20/2013  20:35:00      -44.779       54.493       -8.120       25.595       32.689       20.076      655.100     1068.577      403.035        0.358        0.106       70.531       13.891        0.039      340.902       15.242      863.081
04/20/2013  20:36:00      -27.167       26.639        3.594       40.333       39.745       17.027     1626.721     1579.646      289.910        0.248        0.175       38.048       13.946        0.134      340.890       15.221      863.085
04/20/2013  20:37:00      -10.806       15.853        4.974       26.954       27.384       20.048      726.495      749.856      401.910        0.114        0.094       19.186       17.989        0.879      340.864       15.180      863.108
04/20/2013  20:38:00      -72.678       51.900      -18.503       36.582       54.109       26.824     1338.254     2927.838      719.516        0.665        0.249       89.307       33.853        0.144      340.974       15.363      863.112
04/20/2013  20:39:00      -28.789       60.429      -11.042       26.929       33.493       16.978      725.168     1121.786      288.248        0.337        0.107       66.936       15.539        0.054      340.951       15.327      863.130
04/20/2013  20:40:00      -42.817        2.809      -10.037       26.612       29.793       23.319      708.193      887.637      543.777        0.204        0.107       42.909       24.473        0.325      341.020       15.443      863.135
04/20/2013  20:41:00      -42.207       -0.990       -5.381       23.360       23.306       12.476      545.676      543.175      155.648        0.153        0.062       42.219        8.168        0.037      341.027       15.454      863.148
04/20/2013  20:42:00      -34.175        3.086       -1.991       20.766       10.433       10.961      431.216      108.845      120.153        0.092        0.033       34.314       10.979        0.102      340.875       15.198      863.156
04/20/2013  20:43:00      -23.335       37.484       -0.992       14.525       16.831       14.327      210.986      283.268      205.257        0.132        0.035       44.154        8.311        0.035      340.917       15.269      863.167
04/20/2013  20:44:00      -76.972       14.555      -12.545       33.320       18.977       13.447     1110.229      360.109      180.828        0.397        0.083       78.336        9.216        0.014      340.947       15.318      863.174
04/20/2013  20:45:00      -58.679       76.835      -15.495       31.735       46.811       19.355     1007.141     2191.275      374.615        0.658        0.179       96.680       12.953        0.018      340.897       15.236      863.194
04/20/2013  20:46:00      -79.777       30.537      -10.919       33.454       43.431       22.796     1119.160     1886.253      519.646        0.547        0.176       85.422       15.592        0.033      340.914       15.263      863.201
04/20/2013  20:47:00      -95.763       69.796      -25.420       43.966       40.799       18.853     1933.050     1664.558      355.452        0.932        0.198      118.499       15.801        0.018      340.837       15.134      863.227
04/20/2013  20:48:00     -133.505       93.585      -27.954       42.554       44.528       24.513     1810.873     1982.741      600.877        1.588        0.220      163.039       22.229        0.019      340.871       15.190      863.233
04/20/2013  20:49:00     -102.762       88.263      -24.739       30.170       40.748       23.651      910.199     1660.425      559.380        1.105        0.157      135.464       22.001        0.026      340.826       15.114      863.248
04/20/2013  20:50:00     -143.988      104.443      -28.238       34.965       43.405       30.218     1222.579     1883.992      913.112        1.823        0.201      177.879       26.474        0.022      340.862       15.174      863.262
04/20/2013  20:51:00      -90.949       82.261       -8.663       29.931       43.018       23.549      895.875     1850.549      554.575        0.921        0.165      122.632       16.519        0.018      340.809       15.086      863.260
04/20/2013  20:52:00      -84.690       24.466       -5.148       32.028       50.087       21.198     1025.808     2508.685      449.371        0.589        0.199       88.153       23.124        0.069      340.865       15.182      863.263
04/20/2013  20:53:00     -137.585      -51.655       -4.321       47.688       29.964       23.502     2274.128      897.848      552.358        1.267        0.186      146.962       18.516        0.016      340.820       15.105      863.261
04/20/2013  20:54:00      -93.882       -2.188       -1.469       47.069       42.270       21.342     2215.513     1786.782      455.476        0.664        0.223       93.907       10.929        0.014      340.736       14.962      863.280
04/20/2013  20:55:00     -134.580      -57.053      -10.360       47.878       38.780       21.222     2292.269     1503.890      450.385        1.286        0.212      146.174       12.226        0.007      340.760       15.002      863.279
04/20/2013  20:56:00     -155.624      -55.408      -18.354       42.913       57.059       25.039     1841.516     3255.756      626.940        1.667        0.286      165.193       15.456        0.009      340.669       14.849      863.276
04/20/2013  20:57:00     -168.828      -62.995      -20.403       52.036       49.336       24.590     2707.702     2434.001      604.680        1.932        0.287      180.198       13.846        0.006      340.568       14.677      863.295
04/20/2013  20:58:00     -195.752      -49.918       -9.681       52.981       54.157       31.111     2806.986     2932.978      967.902        2.380        0.335      202.016       29.597        0.021      340.454       14.483      863.304
04/20/2013  20:59:00     -139.716      -49.548       -3.432       63.967       52.083       35.780     4091.829     2712.598     1280.179        1.503        0.404      148.242       36.982        0.062      340.371       14.345      863.323
04/20/2013  21:00:00     -177.808      -53.492       -2.369       55.051       51.548       32.520     3030.627     2657.202     1057.565        2.061        0.337      185.680       30.198        0.026      340.377       14.355      863.336
04/20/2013  21:01:00     -195.859      -44.784      -11.141       42.868       40.704       28.143     1837.704     1656.841      792.001        2.239        0.214      200.914       22.156        0.012      340.380       14.359      863.352
04/20/2013  21:02:00     -177.053      -68.113      -14.897       35.287       44.680       25.614     1245.187     1996.281      656.065        2.005        0.195      189.703       20.129        0.011      340.409       14.407      863.382
04/20/2013  21:03:00     -186.832      -51.922      -15.489       40.899       44.271       29.774     1672.758     1959.931      886.464        2.118        0.226      193.912       25.551        0.017      340.361       14.327      863.407
04/20/2013  21:04:00     -138.769      -72.078       -4.686       82.845       53.421       41.754     6863.328     2853.767     1743.421        1.797        0.573      156.372       49.284        0.099      340.397       14.388      863.438
04/20/2013  21:05:00     -164.991      -29.055       -8.827       47.019       44.889       31.613     2210.784     2015.049      999.388        1.668        0.261      167.530       30.718        0.034      340.346       14.303      863.450
04/20/2013  21:06:00     -165.334      -45.230      -12.932       54.827       49.005       30.181     3006.027     2401.530      910.911        1.793        0.316      171.409       23.435        0.019      340.374       14.349      863.470
04/20/2013  21:07:00     -185.745      -36.799      -12.803       49.021       56.598       26.250     2403.088     3203.308      689.036        2.116        0.315      189.355       24.436        0.017      340.362       14.330      863.482
04/20/2013  21:08:00     -244.564      -34.825      -19.120       51.104       52.688       30.705     2611.612     2775.999      942.776        3.386        0.317      247.031       19.235        0.006      340.350       14.304      863.510
04/20/2013  21:09:00     -204.253      -36.433      -11.014       52.537       63.660       36.326     2760.185     4052.617     1319.581        2.565        0.407      207.477       26.404        0.016      340.322       14.261      863.527
04/20/2013  21:10:00     -177.807      -14.246       -3.251       79.296       63.670       37.563     6287.915     4053.856     1410.989        2.179        0.588      178.376       42.266        0.056      340.302       14.227      863.541
04/20/2013  21:11:00     -233.958      -54.320      -33.503       55.628       74.157       36.058     3094.479     5499.194     1300.147        3.435        0.495      240.181       25.352        0.011      340.324       14.262      863.555
04/20/2013  21:12:00     -222.604      -40.428      -11.532       69.378       62.513       38.953     4813.370     3907.868     1517.337        3.078        0.512      226.246       29.349        0.017      340.278       14.184      863.567
04/20/2013  21:13:00     -177.875      -67.765       -6.999       65.283       69.685       35.490     4261.881     4856.041     1259.521        2.333        0.519      190.346       24.912        0.017      340.290       14.205      863.587
04/20/2013  21:14:00     -182.007      -87.134       -0.962       84.370       58.218       38.673     7118.331     3389.321     1495.612        2.636        0.600      201.789       35.796        0.031      340.233       14.109      863.592
04/20/2013  21:15:00     -233.566      -62.664      -18.547       69.485       57.774       34.591     4828.230     3337.826     1196.513        3.409        0.468      241.826       28.022        0.013      340.193       14.039      863.617
04/20/2013  21:16:00     -187.662      -39.993      -23.622       71.701       47.751       31.899     5141.042     2280.191     1017.520        2.291        0.422      191.876       37.174        0.038      340.156       13.980      863.619
04/20/2013  21:17:00     -197.358      -36.953      -11.631       68.441       73.839       40.930     4684.139     5452.199     1675.256        2.613        0.591      200.788       42.281        0.044      340.127       13.930      863.646
04/20/2013  21:18:00     -195.892      -46.380      -15.811       57.832       46.219       40.390     3344.547     2136.229     1631.357        2.394        0.356      201.307       33.581        0.028      340.132       13.939      863.648
04/20/2013  21:19:00     -150.199      -32.016      -12.868       66.353       71.967       40.295     4402.752     5179.275     1623.714        1.748        0.560      153.573       31.869        0.043      340.151       13.971      863.668
04/20/2013  21:20:00     -162.804      -68.602       -8.297       57.682       63.746       30.503     3327.267     4063.546      930.408        1.980        0.416      176.667       25.099        0.020      340.114       13.909      863.680
04/20/2013  21:21:00     -159.571      -10.607      -16.221       50.614       44.507       31.104     2561.777     1980.877      967.430        1.567        0.276      159.923       23.188        0.021      340.088       13.867      863.690
04/20/2013  21:22:00     -176.584      -29.967      -15.486       65.617       62.725       30.610     4305.583     3934.413      936.949        2.075        0.459      179.109       26.904        0.023      340.032       13.772      863.697
04/20/2013  21:23:00     -171.263      -17.472      -13.553       52.195       42.985       28.660     2724.268     1847.733      821.374        1.761        0.270      172.152       24.750        0.021      339.994       13.709      863.696
04/20/2013  21:24:00     -167.773      -62.867      -10.047       43.535       52.085       25.592     1895.261     2712.869      654.968        1.873        0.263      179.165       21.538        0.014      339.967       13.664      863.703
04/20/2013  21:25:00     -175.980      -25.574      -28.370       52.555       36.190       21.427     2762.079     1309.703      459.119        1.848        0.227      177.828        9.235        0.003      339.929       13.597      863.711
04/20/2013  21:26:00     -175.901      -62.081       -7.876       40.927       43.117       33.687     1675.030     1859.099     1134.840        1.976        0.233      186.535       23.605        0.016      339.864       13.488      863.718
04/20/2013  21:27:00     -164.195      -12.218      -15.417       47.149       54.063       31.852     2223.025     2922.795     1014.575        1.675        0.308      164.649       26.787        0.026      339.853       13.470      863.737
04/20/2013  21:28:00     -143.246      -24.423      -10.202       48.278       52.672       30.857     2330.802     2774.311      952.155        1.364        0.303      145.313       28.040        0.037      339.901       13.552      863.747
04/20/2013  21:29:00     -124.098      -32.271      -16.214       42.753       51.381       25.058     1827.800     2640.045      627.911        1.090        0.255      128.225       20.758        0.026      339.866       13.493      863.761
04/20/2013  21:30:00      -97.281      -17.235       -3.177       47.240       69.762       30.946     2231.624     4866.799      957.661        0.891        0.403       98.796       26.606        0.073      339.887       13.528      863.767
04/20/2013  21:31:00     -160.234      -20.525      -22.518       63.291       57.249       30.650     4005.776     3277.453      939.413        1.741        0.411      161.543       30.422        0.035      339.912       13.569      863.779
04/20/2013  21:32:00     -138.246       11.222      -19.646       38.443       40.820       31.021     1477.888     1666.281      962.291        1.186        0.205      138.700       16.376        0.014      339.965       13.659      863.785
04/20/2013  21:33:00     -107.611        1.946      -13.819       47.357       45.914       23.456     2242.729     2108.054      550.161        0.834        0.245      107.629       25.013        0.054      339.922       13.587      863.789
04/20/2013  21:34:00     -115.294      -33.868      -13.238       29.967       48.762       27.501      898.034     2377.755      756.280        0.932        0.202      120.165       20.879        0.030      339.947       13.629      863.790
04/20/2013  21:35:00     -100.804      -19.821      -10.833       45.122       45.175       36.432     2035.970     2040.773     1327.301        0.804        0.270      102.734       29.163        0.081      339.913       13.573      863.810
04/20/2013  21:36:00     -129.799       19.906      -25.138       53.244       40.270       22.434     2834.898     1621.646      503.289        1.142        0.248      131.317       18.588        0.020      339.972       13.671      863.802
04/20/2013  21:37:00     -139.492      -18.969      -21.783       36.514       46.180       26.090     1333.250     2132.570      680.666        1.222        0.207      140.776        6.490        0.002      339.953       13.640      863.817
04/20/2013  21:38:00      -77.448      -17.090       -7.186       45.084       41.892       29.063     2032.547     1754.959      844.664        0.549        0.232       79.312       27.573        0.121      339.912       13.570      863.814
04/20/2013  21:39:00      -91.720       11.416      -20.953       38.897       43.022       19.911     1512.977     1850.873      396.465        0.637        0.188       92.428       12.880        0.019      339.998       13.716      863.825
04/20/2013  21:40:00      -59.253      -13.263      -30.477       29.045       20.691       25.062      843.627      428.102      628.092        0.326        0.095       60.719       19.950        0.108      340.019       13.752      863.840
04/20/2013  21:41:00      -55.326       -1.734       -5.520       29.259       22.910       22.557      856.104      524.864      508.837        0.249        0.094       55.353       17.837        0.104      339.995       13.711      863.841
04/20/2013  21:42:00      -61.991      -30.447       -7.204       27.335       34.887       18.605      747.191     1217.082      346.153        0.357        0.116       69.065       14.499        0.044      340.014       13.742      863.851
04/20/2013  21:43:00      -30.840        4.586       -6.741       27.826       32.218       13.362      774.278     1038.016      178.538        0.150        0.100       31.179        5.888        0.036      339.987       13.697      863.857
04/20/2013  21:44:00      -32.061        5.376      -12.517       27.326       44.963       19.793      746.729     2021.666      391.756        0.219        0.158       32.509       16.837        0.268      340.039       13.784      863.861
04/20/2013  21:45:00      -13.810       -2.186       10.466       23.599       26.044       13.467      556.905      678.302      181.355        0.086        0.071       13.982       12.729        0.829      339.949       13.632      863.860
04/20/2013  21:46:00      -75.488      -26.590       -8.404       38.523       30.514       18.474     1484.054      931.118      341.297        0.462        0.138       80.034       17.116        0.046      339.992       13.705      863.872
04/20/2013  21:47:00     -103.414       13.645      -14.380       25.539       25.723       20.822      652.234      661.688      433.556        0.642        0.087      104.311       16.289        0.024      340.017       13.750      863.882
04/20/2013  21:48:00      -65.248      -20.591      -14.542       33.107       23.316       22.538     1096.080      543.626      507.963        0.352        0.107       68.420       21.839        0.102      340.049       13.803      863.880
04/20/2013  21:49:00      -56.259       14.542       -3.699       26.574       19.926       12.493      706.197      397.026      156.082        0.232        0.063       58.109        9.505        0.027      340.013       13.740      863.891
04/20/2013  21:50:00      -49.189        1.087       -4.262       20.048       23.401       10.807      401.913      547.592      116.789        0.175        0.053       49.201        5.878        0.014      339.991       13.705      863.907
04/20/2013  21:51:00      -48.276      -18.557      -11.383       19.923       32.118       19.169      396.915     1031.576      367.455        0.230        0.090       51.720       18.556        0.129      340.110       13.903      863.909
04/20/2013  21:52:00      -56.264      -33.064       -7.917       23.881       23.561       13.209      570.307      555.101      174.490        0.281        0.065       65.260       11.497        0.031      340.034       13.777      863.910
04/20/2013  21:53:00      -85.617       -4.295       -7.444       37.732       36.970       20.083     1423.724     1366.800      403.347        0.530        0.160       85.725       18.879        0.048      340.041       13.788      863.928
04/20/2013  21:54:00      -91.035      -23.839      -12.223       24.704       41.414       16.109      610.278     1715.078      259.499        0.579        0.129       94.105       12.701        0.018      340.092       13.873      863.922
04/20/2013  21:55:00     -117.504       -4.268      -12.804       22.533       35.216       16.830      507.717     1240.158      283.243        0.801        0.102      117.582        7.007        0.004      340.119       13.920      863.925
04/20/2013  21:56:00      -61.227      -32.178      -11.567       42.047       27.403       21.272     1767.970      750.913      452.501        0.394        0.149       69.167       23.590        0.116      340.082       13.859      863.930
04/20/2013  21:57:00      -69.000      -12.696      -11.906       30.361       32.563       17.353      921.794     1060.334      301.111        0.367        0.114       70.158       11.919        0.029      340.052       13.806      863.939
04/20/2013  21:58:00      -82.556       -3.698      -13.356       36.909       43.426       22.778     1362.293     1885.841      518.848        0.539        0.188       82.639       18.646        0.051      340.057       13.816      863.937
04/20/2013  21:59:00      -45.466      -37.561        8.085       57.335       59.058       31.143     3287.286     3487.889      969.898        0.564        0.387       58.974       30.252        0.263      339.907       13.563      863.946
04/20/2013  22:00:00      -31.523        1.684        3.910       51.306       41.718       18.959     2632.258     1740.352      359.430        0.287        0.237       31.568       17.193        0.297      339.836       13.443      863.960
04/20/2013  22:01:00      -40.195      -32.534       -7.175       42.381       30.235       16.231     1796.128      914.157      263.431        0.285        0.149       51.711        6.353        0.015      339.882       13.519      863.960
04/20/2013  22:02:00      -64.142      -51.640        1.194       45.122       32.315       26.621     2036.031     1044.235      708.702        0.528        0.189       82.346       21.302        0.067      339.847       13.463      863.964
04/20/2013  22:03:00      -53.667      -59.186       12.657       36.036       33.943       21.226     1298.612     1152.118      450.564        0.472        0.145       79.894       22.056        0.076      339.837       13.445      863.970
04/20/2013  22:04:00      -65.189      -61.202       -3.205       34.096       25.863       18.870     1162.557      668.898      356.078        0.510        0.109       89.416       12.756        0.020      339.857       13.478      863.965
04/20/2013  22:05:00      -15.833      -52.429        2.286       34.944       19.481       16.820     1221.095      379.507      282.916        0.244        0.094       54.767       12.771        0.054      339.790       13.366      863.962
04/20/2013  22:06:00      -47.349      -60.797       -6.696       36.159       19.107       17.571     1307.488      365.092      308.735        0.398        0.099       77.059       17.418        0.051      339.787       13.360      863.961
04/20/2013  22:07:00      -54.083      -52.362       -3.692       35.275       29.722       17.011     1244.359      883.372      289.367        0.405        0.121       75.278       14.188        0.036      339.805       13.391      863.954
04/20/2013  22:08:00      -70.856      -59.445       -0.425       35.538       32.841       21.112     1262.963     1078.501      445.696        0.567        0.139       92.489       19.938        0.046      339.749       13.295      863.957
04/20/2013  22:09:00      -51.327      -37.691        7.437       37.383       20.885       18.997     1397.521      436.192      360.880        0.315        0.110       63.680       18.818        0.087      339.677       13.175      863.968
04/20/2013  22:10:00      -86.821      -52.908      -11.561       43.379       29.414       19.434     1881.709      865.204      377.662        0.680        0.156      101.672       17.051        0.028      339.796       13.374      863.973
04/20/2013  22:11:00     -111.510      -77.022        0.553       42.592       34.877       22.335     1814.074     1216.373      498.835        1.095        0.176      135.524       22.104        0.027      339.657       13.140      863.970
04/20/2013  22:12:00     -103.094      -63.269       -6.134       33.550       35.935       20.463     1125.610     1291.355      418.717        0.875        0.142      120.960       18.000        0.022      339.667       13.156      863.983
04/20/2013  22:13:00      -87.639      -59.287       -4.948       26.016       29.124       18.586      676.809      848.234      345.421        0.654        0.094      105.809        8.669        0.007      339.716       13.240      863.984
04/20/2013  22:14:00      -96.198      -60.233        1.258       52.665       39.383       27.210     2773.579     1551.049      740.388        0.897        0.253      113.499       26.984        0.057      339.596       13.037      863.978
04/20/2013  22:15:00      -82.157      -37.182        6.395       36.382       47.176       23.378     1323.657     2225.535      546.513        0.613        0.205       90.179       25.813        0.082      339.547       12.955      863.969
04/20/2013  22:16:00      -50.720      -36.873       -4.160       34.748       25.596       20.040     1207.425      655.163      401.584        0.311        0.113       62.707       18.554        0.088      339.661       13.146      863.971
04/20/2013  22:17:00      -85.553      -32.874       -6.576       24.306       23.750       18.060      590.765      564.062      326.151        0.496        0.074       91.652        7.298        0.006      339.748       13.293      863.955
04/20/2013  22:18:00      -17.755      -59.055       -4.356       27.148       23.572       11.459      737.039      555.632      131.306        0.262        0.071       61.667       12.837        0.043      339.807       13.394      863.960
04/20/2013  22:19:00      -66.048      -69.225       -6.478       16.908       26.670       14.739      285.874      711.299      217.247        0.521        0.061       95.679        7.342        0.006      339.825       13.423      863.958
04/20/2013  22:20:00      -44.112      -47.673       -1.537       20.159       27.460       12.929      406.372      754.056      167.165        0.277        0.066       64.951       13.652        0.044      339.815       13.405      863.966
04/20/2013  22:21:00      -48.654      -59.764      -11.951       18.063       18.700        9.164      326.259      349.698       83.976        0.342        0.038       77.065        5.530        0.005      340.018       13.748      863.972
04/20/2013  22:22:00      -30.479      -32.305       -2.019       22.202       19.312        7.586      492.949      372.971       57.549        0.145        0.046       44.414        7.408        0.028      339.990       13.701      863.966
04/20/2013  22:23:00      -71.711      -41.073       -2.005       22.731       22.430       14.716      516.700      503.104      216.565        0.403        0.062       82.641       12.748        0.024      339.952       13.638      863.971
04/20/2013  22:24:00      -39.543      -14.437        6.771       28.044       11.246       14.388      786.492      126.470      207.002        0.147        0.056       42.096       13.590        0.104      339.858       13.481      863.966
04/20/2013  22:25:00      -79.031      -27.887        3.247       22.531       23.675       12.676      507.642      560.483      160.675        0.413        0.061       83.806        5.232        0.004      339.927       13.596      863.957
04/20/2013  22:26:00      -72.085      -31.168        2.905       25.956       23.788       13.829      673.715      565.884      191.250        0.380        0.072       78.535        9.396        0.014      339.755       13.305      863.955
04/20/2013  22:27:00      -88.600       -7.349       -5.541       25.196       15.067       15.827      634.822      227.028      250.505        0.452        0.056       88.904       13.150        0.022      339.643       13.117      863.939
04/20/2013  22:28:00      -63.625      -16.523        0.173       20.400       22.057       12.142      416.160      486.520      147.417        0.269        0.053       65.736        7.768        0.014      339.525       12.917      863.937
04/20/2013  22:29:00     -104.044      -34.962      -11.128       10.755       16.189        9.397      115.665      262.096       88.303        0.632        0.023      109.761        8.618        0.006      339.686       13.188      863.935
04/20/2013  22:30:00     -110.943      -17.700      -12.060       18.627       15.356       11.969      346.980      235.819      143.263        0.675        0.036      112.346        9.173        0.007      339.631       13.099      863.928
04/20/2013  22:31:00      -99.867      -20.425       -9.585       21.133       15.576       11.902      446.623      242.601      141.665        0.566        0.042      101.934       11.006        0.012      339.645       13.121      863.920
04/20/2013  22:32:00      -73.672      -27.285        4.881       34.174       23.416       19.523     1167.866      548.309      381.164        0.415        0.105       78.562       20.058        0.065      339.532       12.930      863.921
04/20/2013  22:33:00      -76.832      -35.392       -3.262       33.700       19.128       14.278     1135.675      365.882      203.861        0.444        0.085       84.592       15.497        0.034      339.671       13.164      863.904
04/20/2013  22:34:00      -76.588      -36.351       -5.462       32.662       17.663       16.427     1066.777      311.974      269.841        0.443        0.082       84.777       19.773        0.054      339.724       13.254      863.895
04/20/2013  22:35:00      -58.472      -23.716        0.168       33.733       17.205       13.594     1137.925      296.010      184.798        0.280        0.081       63.099       14.938        0.056      339.673       13.166      863.902
04/20/2013  22:36:00      -85.837      -29.969       -4.620       29.504       18.159       13.502      870.498      329.749      182.295        0.483        0.069       90.918       14.903        0.027      339.662       13.148      863.896
04/20/2013  22:37:00      -93.228      -24.829       -2.662       32.799       26.410       21.686     1075.782      697.465      470.280        0.578        0.112       96.478       18.997        0.039      339.561       12.978      863.895
04/20/2013  22:38:00     -100.360      -32.564        0.398       30.443       28.899       20.643      926.806      835.125      426.150        0.666        0.109      105.511       17.920        0.029      339.486       12.852      863.892
04/20/2013  22:39:00      -89.277      -14.646      -11.472       24.706       22.593       16.508      610.410      510.440      272.506        0.485        0.070       90.470       10.386        0.013      339.375       12.665      863.894
04/20/2013  22:40:00     -105.790      -25.664       -7.000       27.063       22.781       15.234      732.397      518.988      232.078        0.669        0.074      108.859       14.212        0.017      339.394       12.697      863.893
04/20/2013  22:41:00      -85.510      -52.861        1.270       25.271       26.986       15.739      638.642      728.239      247.726        0.586        0.081      100.529       11.089        0.012      339.344       12.614      863.887
04/20/2013  22:42:00     -106.701      -44.075       -9.852       20.819       19.622       13.381      433.410      385.036      179.060        0.721        0.050      115.446       11.287        0.010      339.328       12.585      863.897
04/20/2013  22:43:00      -94.269      -39.760        1.178       23.743       21.406       15.360      563.726      458.209      235.925        0.586        0.063      102.311       11.515        0.013      339.287       12.516      863.898
04/20/2013  22:44:00      -41.171      -26.769        4.382       30.829       22.028       14.231      950.437      485.221      202.518        0.203        0.082       49.108       12.911        0.069      339.351       12.625      863.897
04/20/2013  22:45:00      -12.664      -14.443        6.919       19.352       15.950       13.738      374.489      254.408      188.725        0.062        0.041       19.208        7.734        0.162      339.424       12.747      863.899
04/20/2013  22:46:00      -19.638      -22.778        8.965       22.176       18.231       14.061      491.783      332.360      197.705        0.100        0.051       30.074       11.866        0.156      339.393       12.697      863.905
04/20/2013  22:47:00      -29.679      -23.211        5.271       29.290       23.223       13.648      857.928      539.293      186.269        0.152        0.079       37.678       12.857        0.116      339.321       12.574      863.917
04/20/2013  22:48:00      -86.474      -39.798       -3.694       17.749       14.944       11.722      315.028      223.321      137.398        0.488        0.034       95.192        6.935        0.005      339.482       12.846      863.911
04/20/2013  22:49:00      -81.026      -31.109       -4.687       15.170       15.784       11.114      230.129      249.145      123.526        0.408        0.030       86.793       10.968        0.016      339.462       12.812      863.909
04/20/2013  22:50:00      -53.640      -12.500        1.900       20.746       14.079       12.006      430.397      198.231      144.135        0.190        0.039       55.077        9.883        0.032      339.358       12.635      863.913
04/20/2013  22:51:00     -100.288       -9.128      -16.114       16.845       12.457       11.903      283.759      155.185      141.682        0.549        0.029      100.703        8.763        0.008      339.414       12.735      863.909
04/20/2013  22:52:00     -103.861      -13.137      -13.945       19.192       13.002       11.368      368.329      169.048      129.227        0.591        0.033      104.689        5.424        0.003      339.404       12.714      863.899
04/20/2013  22:53:00      -69.316      -14.848       -3.689       15.927       17.554        9.991      253.659      308.149       99.820        0.285        0.033       70.889        7.479        0.011      339.356       12.633      863.895
04/20/2013  22:54:00      -84.493      -42.672       -9.540       13.135       12.219        8.164      172.538      149.312       66.648        0.472        0.019       94.657        5.865        0.004      339.388       12.689      863.893
04/20/2013  22:55:00      -23.396      -17.181        9.842       25.944       19.834       16.701      673.086      393.374      278.931        0.114        0.067       29.027       11.055        0.145      339.368       12.654      863.883
04/20/2013  22:56:00      -88.613      -43.018       -6.717       26.920       20.038       12.574      724.700      401.524      158.096        0.552        0.064       98.502        8.540        0.008      339.273       12.492      863.876
04/20/2013  22:57:00     -112.186      -26.557       -6.202       19.653       18.792       12.000      386.237      353.145      143.998        0.711        0.044      115.287       11.065        0.009      339.127       12.246      863.871
04/20/2013  22:58:00     -108.906      -50.286       -2.872       37.123       19.597       17.290     1378.134      384.028      298.946        0.823        0.103      119.955       12.875        0.012      339.104       12.209      863.879
04/20/2013  22:59:00     -120.021      -56.374      -10.059       15.450       14.540       11.680      238.715      211.400      136.418        0.914        0.029      132.602        8.025        0.004      339.157       12.298      863.888
04/20/2013  23:00:00     -110.933      -29.422       -5.340       28.848       23.522       15.889      832.232      553.275      252.465        0.742        0.082      114.768       13.420        0.014      339.069       12.148      863.886
04/20/2013  23:01:00      -94.204      -19.431       -6.067       27.001       20.639       18.268      729.028      425.955      333.723        0.539        0.074       96.187       15.575        0.026      338.962       11.972      863.888
04/20/2013  23:02:00     -108.019      -14.062       -7.466       29.052       20.495       21.187      844.047      420.057      448.886        0.682        0.086      108.930       18.037        0.027      338.951       11.951      863.885
04/20/2013  23:03:00     -110.861        1.553       -3.039       32.908       23.666       20.962     1082.912      560.063      439.400        0.719        0.104      110.872       19.579        0.031      338.967       11.978      863.864
04/20/2013  23:04:00      -75.047      -10.182        0.709       34.609       22.296       16.763     1197.777      497.093      280.996        0.386        0.099       75.735       15.333        0.041      338.931       11.918      863.858
04/20/2013  23:05:00      -85.870      -33.759       -2.922       18.219       20.547       11.882      331.921      422.160      141.174        0.471        0.045       92.268        9.719        0.011      339.067       12.146      863.843
04/20/2013  23:06:00      -67.016      -40.651       -3.973       27.924       20.405       16.223      779.771      416.346      263.187        0.381        0.073       78.382       15.978        0.042      339.081       12.170      863.823
04/20/2013  23:07:00      -59.996      -28.445        6.530       34.971       19.001       14.334     1222.947      361.024      205.477        0.312        0.089       66.397       17.725        0.071      338.952       11.953      863.805
04/20/2013  23:08:00      -28.788      -24.467        2.974       27.489       20.544       14.980      755.655      422.036      224.391        0.142        0.070       37.781       13.754        0.133      339.000       12.034      863.794
04/20/2013  23:09:00       -8.080      -25.000       11.795       39.971       23.754       19.344     1597.672      564.243      374.196        0.168        0.127       26.274       23.544        0.803      339.045       12.108      863.779
04/20/2013  23:10:00      -14.407      -30.901        4.255       24.085       23.666       13.663      580.083      560.073      186.689        0.125        0.066       34.094        9.961        0.085      339.178       12.333      863.772
04/20/2013  23:11:00      -26.622      -29.117        9.315       28.468       19.880       18.811      810.444      395.213      353.865        0.160        0.078       39.453       13.517        0.117      339.102       12.205      863.780
04/20/2013  23:12:00      -94.025      -53.005       -4.667       15.463       23.294       15.104      239.107      542.622      228.133        0.634        0.050      107.936        8.379        0.006      339.300       12.538      863.773
04/20/2013  23:13:00     -102.282      -43.831       -4.153       24.385       20.417       10.233      594.635      416.869      104.724        0.676        0.056      111.278        8.343        0.006      339.254       12.461      863.769
04/20/2013  23:14:00     -103.937      -48.026        0.681       29.733       25.217       15.351      884.053      635.891      235.666        0.743        0.088      114.497       13.563        0.014      339.083       12.173      863.782
04/20/2013  23:15:00     -109.521      -28.431       -2.625       38.205       22.975       17.402     1459.638      527.856      302.835        0.755        0.115      113.151       20.044        0.031      338.923       11.906      863.772
04/20/2013  23:16:00      -99.947      -20.792        1.400       42.636       25.399       21.038     1817.805      645.118      442.585        0.666        0.145      102.086       21.107        0.043      338.647       11.441      863.753
04/20/2013  23:17:00     -126.936      -14.495       -3.376       41.928       30.319       18.866     1757.926      919.243      355.927        0.968        0.152      127.761       20.635        0.026      338.435       11.086      863.755
04/20/2013  23:18:00     -105.271      -29.188       -3.873       42.818       27.829       26.645     1833.403      774.474      709.944        0.763        0.166      109.242       25.178        0.053      338.334       10.915      863.746
04/20/2013  23:19:00     -108.042      -15.607       -9.979       46.136       30.074       22.366     2128.502      904.420      500.244        0.777        0.177      109.163       25.401        0.054      338.304       10.865      863.732
04/20/2013  23:20:00     -110.152       -4.840       -8.726       45.223       44.531       29.471     2045.124     1983.015      868.526        0.856        0.245      110.259       25.750        0.055      338.235       10.749      863.723
04/20/2013  23:21:00     -109.601      -31.363        5.518       40.741       40.166       22.584     1659.861     1613.312      510.044        0.840        0.189      114.000       23.493        0.042      338.160       10.623      863.718
04/20/2013  23:22:00     -101.466      -42.690        0.348       33.329       35.793       23.131     1110.841     1281.159      535.066        0.752        0.146      110.081       18.380        0.028      338.221       10.725      863.705
04/20/2013  23:23:00      -84.996      -65.845      -10.938       35.708       18.668       17.545     1275.044      348.479      307.836        0.681        0.097      107.517       13.781        0.016      338.270       10.808      863.698
04/20/2013  23:24:00      -87.133      -42.767       -0.842       42.361       23.370       17.025     1794.471      546.178      289.858        0.603        0.132       97.062       18.804        0.038      338.357       10.953      863.679
04/20/2013  23:25:00     -109.275      -61.441       -0.262       42.243       28.563       17.867     1784.473      815.857      319.213        0.932        0.146      125.364       24.443        0.038      338.332       10.911      863.672
04/20/2013  23:26:00     -124.738      -54.911       -1.091       20.495       29.049       19.569      420.047      843.822      382.938        1.011        0.082      136.290       12.264        0.008      338.407       11.037      863.668
04/20/2013  23:27:00     -146.445      -46.511       -2.042       39.589       20.871       19.234     1567.323      435.615      369.961        1.299        0.119      153.653       21.508        0.020      338.368       10.972      863.653
04/20/2013  23:28:00     -161.248      -55.348       -7.727       21.210       23.840       18.212      449.852      568.364      331.671        1.524        0.067      170.483        9.795        0.003      338.335       10.918      863.646
04/20/2013  23:29:00     -156.701      -57.348       -5.667       32.506       31.815       19.371     1056.633     1012.172      375.235        1.516        0.122      166.865       15.642        0.009      338.258       10.787      863.632
04/20/2013  23:30:00     -139.408      -77.062        1.542       49.129       30.402       26.269     2413.695      924.295      690.065        1.470        0.201      159.289       24.291        0.023      338.214       10.713      863.636
04/20/2013  23:31:00     -173.592      -54.638      -10.556       35.111       32.036       17.343     1232.814     1026.290      300.793        1.790        0.128      181.988        6.815        0.001      338.136       10.583      863.643
04/20/2013  23:32:00     -161.840      -72.380       -6.995       35.572       27.421       20.386     1265.393      751.887      415.576        1.696        0.122      177.288       20.131        0.013      338.070       10.472      863.651
04/20/2013  23:33:00     -142.009      -81.920      -14.591       27.296       22.295       17.703      745.080      497.072      313.411        1.432        0.078      163.944       14.314        0.008      338.041       10.423      863.662
04/20/2013  23:34:00     -128.311      -72.040      -13.161       43.804       25.637       24.704     1918.797      657.250      610.305        1.251        0.159      147.151       22.497        0.023      338.048       10.436      863.655
04/20/2013  23:35:00     -148.429      -54.627      -15.367       25.374       24.074       19.173      643.844      579.536      367.603        1.342        0.080      158.163       12.462        0.006      338.067       10.467      863.659
04/20/2013  23:36:00     -138.587      -29.437       -8.353       41.330       29.320       24.063     1708.153      859.690      579.021        1.164        0.157      141.679       23.331        0.027      338.005       10.363      863.647
04/20/2013  23:37:00     -114.967      -19.205       -1.963       50.382       28.220       24.709     2538.339      796.375      610.541        0.877        0.197      116.560       28.656        0.060      338.022       10.392      863.644
04/20/2013  23:38:00     -147.209        8.953      -15.104       41.094       26.066       22.169     1688.708      679.456      491.481        1.242        0.143      147.481       21.482        0.021      337.999       10.353      863.642
04/20/2013  23:39:00     -160.378       26.635      -14.918       43.265       27.103       18.636     1871.876      734.593      347.294        1.480        0.148      162.575       13.326        0.007      338.113       10.545      863.634
04/20/2013  23:40:00     -186.581       26.628       -9.544       29.040       26.182       14.786      843.334      685.477      218.625        1.868        0.087      188.471       15.333        0.007      338.148       10.603      863.634
04/20/2013  23:41:00     -143.506      -19.917      -13.473       45.375       45.970       22.255     2058.892     2113.257      495.282        1.292        0.233      144.882       21.639        0.022      338.023       10.392      863.638
04/20/2013  23:42:00     -169.880      -13.449      -16.265       53.656       36.743       27.013     2879.006     1350.017      729.723        1.713        0.248      170.412       28.379        0.028      337.910       10.203      863.637
04/20/2013  23:43:00     -159.298      -24.903      -12.038       53.182       41.420       27.419     2828.281     1715.631      751.782        1.572        0.265      161.233       31.410        0.038      337.771        9.970      863.636
04/20/2013  23:44:00     -167.687      -24.932      -14.188       52.551       35.566       26.408     2761.595     1264.933      697.408        1.683        0.236      169.530       27.031        0.025      337.724        9.890      863.618
04/20/2013  23:45:00      -89.945      -43.496       -7.778       46.657       35.625       27.566     2176.831     1269.127      759.887        0.712        0.210       99.910       20.213        0.041      337.808       10.032      863.615
04/20/2013  23:46:00     -111.904      -59.316       -0.576       53.008       50.687       22.066     2809.868     2569.139      486.924        1.095        0.293      126.652       25.947        0.042      337.738        9.914      863.609
04/20/2013  23:47:00      -36.942      -34.713        2.969       55.204       28.646       24.863     3047.435      820.573      618.175        0.353        0.224       50.692       25.749        0.258      337.824       10.059      863.600
04/20/2013  23:48:00      -58.600      -12.626        2.040       43.694       38.670       27.207     1909.127     1495.348      740.247        0.387        0.207       59.945       21.551        0.129      337.852       10.106      863.608
04/20/2013  23:49:00     -126.631      -34.564       -9.962       29.188       26.023       16.688      851.964      677.187      278.497        0.957        0.090      131.263       11.940        0.008      337.779        9.983      863.614
04/20/2013  23:50:00     -152.409      -25.534      -10.335       34.871       27.249       20.772     1215.980      742.486      431.466        1.319        0.119      154.533       16.897        0.012      337.702        9.856      863.636
04/20/2013  23:51:00     -114.842      -38.879       -9.138       37.928       33.757       23.560     1438.564     1139.537      555.079        0.896        0.157      121.244       14.605        0.015      337.723        9.890      863.640
04/20/2013  23:52:00     -114.420      -18.384      -24.033       25.204       35.006       19.232      635.249     1225.396      369.862        0.812        0.112      115.887       12.567        0.012      337.743        9.923      863.650
04/20/2013  23:53:00     -118.449      -27.016      -16.580       26.150       28.443       19.784      683.841      809.023      391.392        0.846        0.094      121.491        4.813        0.002      337.732        9.904      863.657
04/20/2013  23:54:00      -58.381      -38.861       -6.204       52.959       22.137       16.239     2804.632      490.027      263.699        0.426        0.178       70.132       12.134        0.030      337.764        9.958      863.647
04/20/2013  23:55:00      -76.734      -17.857       -4.884       28.098       25.644       17.586      789.507      657.601      309.263        0.399        0.088       78.784       14.428        0.034      337.752        9.939      863.654
04/20/2013  23:56:00      -87.660      -29.832       -8.706       17.887       21.274       16.416      319.927      452.589      269.501        0.485        0.052       92.597       11.870        0.016      337.771        9.970      863.641
04/20/2013  23:57:00      -84.113      -39.869      -10.689       16.258       15.754       12.584      264.326      248.181      158.349        0.472        0.034       93.084        4.835        0.003      337.890       10.170      863.645
04/20/2013  23:58:00      -79.553      -40.673       -8.910       16.235       15.580       12.174      263.588      242.749      148.199        0.436        0.033       89.348        6.478        0.005      337.838       10.082      863.643
04/20/2013  23:59:00      -94.412      -38.588      -13.244       13.582       12.352       10.276      184.457      152.569      105.595        0.551        0.022      101.993        4.140        0.002      337.840       10.085      863.635
